[[{"header":{"parameterUnit":"m.s-1","parameterCategory":1,"la1":30.6,"la2":28.766,"lo1":-90.7593,"lo2":-88.6598,"dy":0.0162,"dx":0.0183,"nx":116,"ny":114,"refTime":"2024-02-06T18:00:00:Z","depth":0,"parameterNumber":2,"parameterNumberName":"U-component_of_WINDS"},"data":[0.0,0.0,0.0,0.0,0.0,0.0,0.0,0.0,0.0,0.0,0.0,0.0,0.0,0.0,0.0,0.0,0.0,0.0,0.0,0.0,0.0,0.0,0.0,0.0,0.0,0.0,0.0,0.0,0.0,0.0,0.0,0.0,0.0,0.0,0.0,0.0,0.0,0.0,0.0,0.0,0.0,0.0,0.0,0.0,0.0,0.0,0.0,0.0,0.0,0.0,0.0,0.0,0.0,0.0,0.0,0.0,0.0,0.0,0.0,0.0,0.0,0.0,0.0,0.0,0.0,0.0,0.0,0.0,0.0,0.0,0.0,0.0,0.0,0.0,0.0,0.0,0.0,0.0,0.0,0.0,0.0,0.0,0.0,0.0,0.0,0.0,0.0,0.0,0.0,0.0,0.0,0.0,0.0,0.0,0.0,0.0,0.0,0.0,0.0,0.0,0.0,0.0,0.0,0.0,0.0,0.0,0.0,0.0,0.0,0.0,0.0,0.0,0.0,0.0,0.0,0.0,0.0,0.0,0.0,0.0,0.0,0.0,0.0,0.0,0.0,0.0,0.0,0.0,0.0,0.0,0.0,0.0,0.0,0.0,0.0,0.0,0.0,0.0,0.0,0.0,0.0,0.0,0.0,0.0,0.0,0.0,0.0,0.0,0.0,0.0,0.0,0.0,0.0,0.0,0.0,0.0,0.0,0.0,0.0,0.0,0.0,0.0,0.0,0.0,0.0,0.0,0.0,0.0,0.0,0.0,0.0,0.0,0.0,0.0,0.0,0.0,0.0,0.0,0.0,0.0,0.0,0.0,0.0,0.0,0.0,0.0,0.0,0.0,0.0,0.0,0.0,0.0,0.0,0.0,0.0,0.0,0.0,0.0,0.0,0.0,0.0,0.0,0.0,0.0,0.0,0.0,0.0,0.0,0.0,0.0,0.0,0.0,0.0,0.0,0.0,0.0,0.0,0.0,0.0,0.0,0.0,0.0,0.0,0.0,0.0,0.0,0.0,0.0,0.0,0.0,0.0,0.0,0.0,0.0,0.0,0.0,0.0,0.0,0.0,0.0,0.0,0.0,0.0,0.0,0.0,0.0,0.0,0.0,0.0,0.0,0.0,0.0,0.0,0.0,0.0,0.0,0.0,0.0,0.0,0.0,0.0,0.0,0.0,0.0,0.0,0.0,0.0,0.0,0.0,0.0,0.0,0.0,0.0,0.0,0.0,0.0,0.0,0.0,0.0,0.0,0.0,0.0,0.0,0.0,0.0,0.0,0.0,0.0,0.0,0.0,0.0,0.0,0.0,0.0,0.0,0.0,0.0,0.0,0.0,0.0,0.0,0.0,0.0,0.0,0.0,0.0,0.0,0.0,0.0,0.0,0.0,0.0,0.0,0.0,0.0,0.0,0.0,0.0,0.0,0.0,0.0,0.0,0.0,0.0,0.0,0.0,0.0,0.0,0.0,0.0,0.0,0.0,0.0,0.0,0.0,0.0,0.0,0.0,0.0,0.0,0.0,0.0,0.0,0.0,0.0,0.0,0.0,0.0,0.0,0.0,0.0,0.0,0.0,0.0,0.0,0.0,0.0,0.0,0.0,0.0,0.0,0.0,0.0,0.0,0.0,0.0,0.0,0.0,0.0,0.0,0.0,0.0,0.0,0.0,0.0,0.0,0.0,0.0,0.0,0.0,0.0,0.0,0.0,0.0,0.0,0.0,0.0,0.0,0.0,0.0,0.0,0.0,0.0,0.0,0.0,0.0,0.0,0.0,0.0,0.0,0.0,0.0,0.0,0.0,0.0,0.0,0.0,0.0,0.0,0.0,0.0,0.0,0.0,0.0,0.0,0.0,0.0,0.0,0.0,0.0,0.0,0.0,0.0,0.0,0.0,0.0,0.0,0.0,0.0,0.0,0.0,0.0,0.0,0.0,0.0,0.0,0.0,0.0,0.0,0.0,0.0,0.0,0.0,0.0,0.0,0.0,0.0,0.0,0.0,0.0,0.0,0.0,0.0,0.0,0.0,0.0,0.0,0.0,0.0,0.0,0.0,0.0,0.0,0.0,0.0,0.0,0.0,0.0,0.0,0.0,0.0,0.0,0.0,0.0,0.0,0.0,0.0,0.0,0.0,0.0,0.0,0.0,0.0,0.0,0.0,0.0,0.0,0.0,0.0,0.0,0.0,0.0,0.0,0.0,0.0,0.0,0.0,0.0,0.0,0.0,0.0,0.0,0.0,0.0,0.0,0.0,0.0,0.0,0.0,0.0,0.0,0.0,0.0,0.0,0.0,0.0,0.0,0.0,0.0,0.0,0.0,0.0,0.0,0.0,0.0,0.0,0.0,0.0,0.0,0.0,0.0,0.0,0.0,0.0,0.0,0.0,0.0,0.0,0.0,0.0,0.0,0.0,0.0,0.0,0.0,0.0,0.0,0.0,0.0,0.0,0.0,0.0,0.0,0.0,0.0,0.0,0.0,0.0,0.0,0.0,0.0,0.0,0.0,0.0,0.0,0.0,0.0,0.0,0.0,0.0,0.0,0.0,0.0,0.0,0.0,0.0,0.0,0.0,0.0,0.0,0.0,0.0,0.0,0.0,0.0,0.0,0.0,0.0,0.0,0.0,0.0,0.0,0.0,0.0,0.0,0.0,0.0,0.0,0.0,0.0,0.0,0.0,0.0,0.0,0.0,0.0,0.0,0.0,0.0,0.0,0.0,0.0,0.0,0.0,0.0,0.0,0.0,0.0,0.0,0.0,0.0,0.0,0.0,0.0,0.0,0.0,0.0,0.0,0.0,0.0,0.0,0.0,0.0,0.0,0.0,0.0,0.0,0.0,0.0,0.0,0.0,0.0,0.0,0.0,0.0,0.0,0.0,0.0,0.0,0.0,0.0,0.0,0.0,0.0,0.0,0.0,0.0,0.0,0.0,0.0,0.0,0.0,0.0,0.0,0.0,0.0,0.0,0.0,0.0,0.0,0.0,0.0,0.0,0.0,0.0,0.0,0.0,0.0,0.0,0.0,0.0,0.0,0.0,0.0,0.0,0.0,0.0,0.0,0.0,0.0,0.0,0.0,0.0,0.0,0.0,0.0,0.0,0.0,0.0,0.0,0.0,0.0,0.0,0.0,0.0,0.0,0.0,0.0,0.0,0.0,0.0,0.0,0.0,0.0,0.0,0.0,0.0,0.0,0.0,0.0,0.0,0.0,0.0,0.0,0.0,0.0,0.0,0.0,0.0,0.0,0.0,0.0,0.0,0.0,0.0,0.0,0.0,0.0,0.0,0.0,0.0,0.0,0.0,0.0,0.0,0.0,0.0,0.0,0.0,0.0,0.0,0.0,0.0,0.0,0.0,0.0,0.0,0.0,0.0,0.0,0.0,0.0,0.0,0.0,0.0,0.0,0.0,0.0,0.0,0.0,0.0,0.0,0.0,0.0,0.0,0.0,0.0,0.0,0.0,0.0,0.0,0.0,0.0,0.0,0.0,0.0,0.0,0.0,0.0,0.0,0.0,0.0,0.0,0.0,0.0,0.0,0.0,0.0,0.0,0.0,0.0,0.0,0.0,0.0,0.0,0.0,0.0,0.0,0.0,0.0,0.0,0.0,0.0,0.0,0.0,0.0,0.0,0.0,0.0,0.0,0.0,0.0,0.0,0.0,0.0,0.0,0.0,0.0,0.0,0.0,0.0,0.0,0.0,0.0,0.0,0.0,0.0,0.0,0.0,0.0,0.0,0.0,0.0,0.0,0.0,0.0,0.0,0.0,0.0,0.0,0.0,0.0,0.0,0.0,0.0,0.0,0.0,0.0,0.0,0.0,0.0,0.0,0.0,0.0,0.0,0.0,0.0,0.0,0.0,0.0,0.0,0.0,0.0,0.0,0.0,0.0,0.0,0.0,0.0,0.0,0.0,0.0,0.0,0.0,0.0,0.0,0.0,0.0,0.0,0.0,0.0,0.0,0.0,0.0,0.0,0.0,0.0,0.0,0.0,0.0,0.0,0.0,0.0,0.0,0.0,0.0,0.0,0.0,0.0,0.0,0.0,0.0,0.0,0.0,0.0,0.0,0.0,0.0,0.0,0.0,0.0,0.0,0.0,0.0,0.0,0.0,0.0,0.0,0.0,0.0,0.0,0.0,0.0,0.0,0.0,0.0,0.0,0.0,0.0,0.0,0.0,0.0,0.0,0.0,0.0,0.0,0.0,0.0,0.0,0.0,0.0,0.0,0.0,0.0,0.0,0.0,0.0,0.0,0.0,0.0,0.0,0.0,0.0,0.0,0.0,0.0,0.0,0.0,0.0,0.0,0.0,0.0,0.0,0.0,0.0,0.0,0.0,0.0,0.0,0.0,0.0,0.0,0.0,0.0,0.0,0.0,0.0,0.0,0.0,0.0,0.0,0.0,0.0,0.0,0.0,0.0,0.0,0.0,0.0,0.0,0.0,0.0,0.0,0.0,0.0,0.0,0.0,0.0,0.0,0.0,0.0,0.0,0.0,0.0,0.0,0.0,0.0,0.0,0.0,0.0,0.0,0.0,0.0,0.0,0.0,0.0,0.0,0.0,0.0,0.0,0.0,0.0,0.0,0.0,0.0,0.0,0.0,0.0,0.0,0.0,0.0,0.0,0.0,0.0,0.0,0.0,0.0,0.0,0.0,0.0,0.0,0.0,0.0,0.0,0.0,0.0,0.0,0.0,0.0,0.0,0.0,0.0,0.0,0.0,0.0,0.0,0.0,0.0,0.0,0.0,0.0,0.0,0.0,0.0,0.0,0.0,0.0,0.0,0.0,0.0,0.0,0.0,0.0,0.0,0.0,0.0,0.0,0.0,0.0,0.0,0.0,0.0,0.0,0.0,0.0,0.0,0.0,0.0,0.0,0.0,0.0,0.0,0.0,0.0,0.0,0.0,0.0,0.0,0.0,0.0,0.0,0.0,0.0,0.0,0.0,0.0,0.0,0.0,0.0,0.0,0.0,0.0,0.0,0.0,0.0,0.0,0.0,0.0,0.0,0.0,0.0,0.0,0.0,0.0,0.0,0.0,0.0,0.0,0.0,0.0,0.0,0.0,0.0,0.0,0.0,0.0,0.0,0.0,0.0,0.0,0.0,0.0,0.0,0.0,0.0,0.0,0.0,0.0,0.0,0.0,0.0,0.0,0.0,0.0,0.0,0.0,0.0,0.0,0.0,0.0,0.0,0.0,0.0,0.0,0.0,0.0,0.0,0.0,0.0,0.0,0.0,0.0,0.0,0.0,0.0,0.0,0.0,0.0,0.0,0.0,0.0,0.0,0.0,0.0,0.0,0.0,0.0,0.0,0.0,0.0,0.0,0.0,0.0,0.0,0.0,0.0,0.0,0.0,0.0,0.0,0.0,0.0,0.0,0.0,0.0,0.0,0.0,0.0,0.0,0.0,0.0,0.0,0.0,0.0,0.0,0.0,0.0,0.0,0.0,0.0,0.0,0.0,0.0,0.0,0.0,0.0,0.0,0.0,0.0,0.0,0.0,0.0,0.0,0.0,0.0,0.0,0.0,0.0,0.0,0.0,0.0,0.0,0.0,0.0,0.0,0.0,0.0,0.0,0.0,0.0,0.0,0.0,0.0,0.0,0.0,0.0,0.0,0.0,0.0,0.0,0.0,0.0,0.0,0.0,0.0,0.0,0.0,0.0,0.0,0.0,0.0,0.0,0.0,0.0,0.0,0.0,0.0,0.0,0.0,0.0,0.0,0.0,0.0,0.0,0.0,0.0,0.0,0.0,0.0,0.0,0.0,0.0,0.0,0.0,0.0,0.0,0.0,0.0,0.0,0.0,0.0,0.0,0.0,0.0,0.0,0.0,0.0,0.0,0.0,0.0,0.0,0.0,0.0,0.0,0.0,0.0,0.0,0.0,0.0,0.0,0.0,0.0,0.0,0.0,0.0,0.0,0.0,0.0,0.0,0.0,0.0,0.0,0.0,0.0,0.0,0.0,0.0,0.0,0.0,0.0,0.0,0.0,0.0,0.0,0.0,0.0,0.0,0.0,0.0,0.0,0.0,0.0,0.0,0.0,0.0,0.0,0.0,0.0,0.0,0.0,0.0,0.0,0.0,0.0,0.0,0.0,0.0,0.0,0.0,0.0,2.3807,2.1825,0.0,0.0,0.0,0.0,0.0,0.0,0.0,0.0,0.0,0.0,0.0,0.0,0.0,0.0,0.0,0.0,0.0,0.0,0.0,0.0,0.0,0.0,0.0,0.0,0.0,0.0,0.0,0.0,0.0,0.0,0.0,0.0,0.0,0.0,4.5304,4.5633,4.5783,4.5783,4.6112,4.6262,4.6262,4.4792,4.3901,4.3237,0.0,0.0,0.0,0.0,0.0,0.0,0.0,0.0,0.0,0.0,0.0,0.0,0.0,0.0,0.0,0.0,0.0,0.0,0.0,0.0,0.0,0.0,0.0,0.0,0.0,0.0,0.0,0.0,0.0,0.0,0.0,0.0,0.0,0.0,0.0,0.0,0.0,0.0,0.0,0.0,0.0,0.0,0.0,0.0,0.0,0.0,0.0,0.0,0.0,0.0,0.0,0.0,0.0,0.0,0.0,0.0,0.0,0.0,0.0,0.0,0.0,0.0,0.0,0.0,0.0,0.0,0.0,0.0,0.0,0.0,2.3931,2.2812,0.0,0.0,0.0,0.0,0.0,0.0,0.0,0.0,0.0,0.0,0.0,0.0,0.0,0.0,0.0,0.0,0.0,0.0,0.0,0.0,0.0,0.0,0.0,4.7309,4.7309,4.7309,4.7309,4.707,0.0,0.0,0.0,0.0,4.5633,4.5633,4.5633,4.6202,4.6501,4.6501,4.704,4.7309,4.7309,4.6255,4.5869,4.5958,4.2535,0.0,0.0,0.0,0.0,0.0,0.0,0.0,0.0,0.0,0.0,0.0,0.0,0.0,0.0,0.0,0.0,0.0,0.0,0.0,0.0,0.0,0.0,0.0,0.0,0.0,0.0,0.0,0.0,0.0,0.0,0.0,0.0,0.0,0.0,0.0,0.0,0.0,0.0,0.0,0.0,0.0,0.0,0.0,0.0,0.0,0.0,0.0,0.0,0.0,0.0,0.0,0.0,0.0,0.0,0.0,0.0,0.0,0.0,0.0,0.0,0.0,0.0,0.0,2.8715,2.7955,2.6338,2.523,2.4735,2.4704,2.4237,2.4176,2.3915,2.0943,0.0,0.0,0.0,0.0,0.0,0.0,0.0,0.0,0.0,0.0,0.0,0.0,0.0,0.0,0.0,0.0,0.0,0.0,0.0,4.7309,4.7309,4.7309,4.7309,4.7309,4.7309,4.7279,4.7189,4.7189,4.713,4.704,4.704,4.704,4.704,4.713,4.7189,4.7189,4.7279,4.7309,4.7309,4.6255,4.6255,4.7019,4.4783,4.3892,4.3985,0.0,0.0,0.0,0.0,0.0,0.0,0.0,0.0,0.0,0.0,0.0,0.0,0.0,0.0,0.0,0.0,0.0,0.0,0.0,0.0,0.0,0.0,0.0,0.0,0.0,0.0,0.0,0.0,0.0,0.0,0.0,0.0,0.0,0.0,0.0,0.0,0.0,0.0,0.0,0.0,0.0,3.7691,3.7643,0.0,0.0,0.0,0.0,0.0,0.0,0.0,0.0,0.0,0.0,0.0,0.0,0.0,2.876,2.9143,2.9469,2.965,2.9915,2.9915,2.9279,2.7855,2.7604,2.6849,2.5707,2.457,0.0,2.2702,2.1096,0.0,0.0,0.0,0.0,0.0,0.0,0.0,0.0,0.0,0.0,0.0,0.0,0.0,0.0,0.0,0.0,0.0,0.0,0.0,0.0,0.0,4.7309,4.7309,4.7309,4.7309,4.7309,4.7309,4.7309,4.7309,4.7309,4.7309,4.7309,4.7309,4.7309,4.7309,4.7309,4.7309,4.7309,4.7309,4.6844,4.6931,4.7309,4.6373,4.5718,4.5144,4.4591,0.0,0.0,0.0,0.0,0.0,0.0,0.0,0.0,0.0,0.0,0.0,0.0,0.0,0.0,0.0,0.0,0.0,0.0,0.0,0.0,0.0,0.0,0.0,0.0,0.0,0.0,0.0,0.0,0.0,0.0,0.0,0.0,0.0,0.0,0.0,0.0,0.0,0.0,0.0,3.756,3.6989,3.7418,3.6796,3.6036,0.0,0.0,0.0,0.0,0.0,0.0,0.0,0.0,0.0,3.1265,3.0167,2.991,3.0728,3.0199,3.0062,3.0204,2.9422,2.8654,2.8009,2.6487,2.5319,2.4416,2.3145,2.2209,2.1577,2.0955,1.9101,1.6573,0.0,0.0,0.0,0.0,1.191,1.1774,0.0,0.0,0.0,0.0,0.0,0.0,0.0,0.0,0.0,0.0,0.0,0.0,4.7309,4.7309,4.7309,4.7309,4.7309,4.7309,4.7309,4.7309,4.7222,4.6931,4.6931,4.6931,4.6931,4.7193,4.7309,4.7309,4.7309,4.7309,4.7309,4.7309,4.7309,4.7309,4.7309,4.6931,4.6166,4.5417,4.4499,4.3559,0.0,0.0,0.0,0.0,0.0,0.0,0.0,0.0,0.0,0.0,0.0,0.0,0.0,0.0,0.0,0.0,0.0,0.0,0.0,0.0,0.0,0.0,0.0,0.0,0.0,0.0,0.0,0.0,0.0,0.0,0.0,0.0,0.0,0.0,0.0,0.0,0.0,3.7317,3.7193,3.7821,3.7193,3.6314,0.0,0.0,0.0,0.0,0.0,0.0,3.2312,3.1847,3.1725,3.1949,3.0878,3.0829,3.1635,3.0922,3.0497,3.0497,2.9077,2.8171,2.7644,2.5206,2.3765,2.296,2.1925,2.127,2.1002,2.0451,1.863,1.5924,1.5372,1.3472,1.1165,1.1165,1.1165,1.1165,0.0,0.0,0.0,0.0,0.0,0.0,0.0,0.0,0.0,0.0,0.0,4.7309,4.7309,4.7309,4.7309,4.7309,4.7309,4.7309,4.7309,4.7309,4.6844,4.5869,4.5869,4.5869,4.5869,4.6814,4.7309,4.7309,4.7309,4.7309,4.7309,4.7309,4.7309,4.7309,4.7309,4.7309,4.7222,4.7193,4.655,4.5656,4.5214,0.0,0.0,0.0,0.0,0.0,0.0,0.0,0.0,0.0,0.0,0.0,0.0,0.0,0.0,0.0,0.0,0.0,0.0,0.0,0.0,0.0,0.0,0.0,0.0,0.0,0.0,0.0,0.0,0.0,0.0,0.0,0.0,0.0,0.0,0.0,0.0,0.0,0.0,3.9046,3.8265,0.0,0.0,0.0,0.0,3.4205,3.4108,3.3513,3.207,3.0907,3.0784,3.1949,3.1159,3.0754,3.088,3.1121,3.1322,3.1322,2.9865,2.841,2.6659,2.5219,2.3474,2.1859,2.1859,2.1584,2.1133,1.9364,1.768,1.5924,1.442,1.2788,1.1165,1.1165,1.1165,1.1165,0.0,0.0,0.0,0.0,0.0,0.0,0.0,0.0,4.7309,4.7309,4.7309,4.7309,4.7309,4.7309,4.7309,4.7309,4.7309,4.7309,4.7309,4.7309,4.7106,4.6726,4.6726,4.6726,4.6726,4.7106,4.7309,4.7309,4.7309,4.7309,4.7309,4.7309,4.7309,4.7309,4.7309,4.7309,4.7309,4.7309,4.6726,4.5808,4.5648,4.4481,0.0,0.0,0.0,0.0,0.0,0.0,0.0,0.0,0.0,0.0,0.0,0.0,0.0,0.0,0.0,0.0,0.0,0.0,0.0,0.0,0.0,0.0,0.0,0.0,0.0,0.0,0.0,0.0,0.0,0.0,0.0,0.0,0.0,0.0,0.0,0.0,0.0,3.8222,3.8019,0.0,3.6742,3.7632,3.7559,3.5876,3.6015,3.5586,3.4268,3.293,3.2055,3.1678,3.1339,3.1176,3.1176,3.1304,3.1377,3.1377,2.8838,2.7254,2.6573,2.391,2.231,2.1346,2.1346,2.1207,2.078,1.9197,1.759,1.6053,1.5487,1.3685,1.1457,1.1457,1.1457,1.1457,0.0,0.0,0.0,0.0,0.0,0.0,0.0,4.7309,4.7309,4.7309,4.7309,4.7309,4.7309,4.7309,4.7309,4.7309,4.7309,4.7309,4.7309,4.7019,4.6814,4.6814,4.6814,4.6814,4.6814,4.7106,4.7309,4.7309,4.7309,4.7309,4.7309,4.7309,4.7309,4.7309,4.7309,4.7309,4.7309,4.6931,4.6638,4.6255,4.5779,4.4869,4.3721,0.0,0.0,0.0,0.0,0.0,0.0,0.0,0.0,0.0,0.0,0.0,0.0,0.0,0.0,0.0,0.0,0.0,0.0,0.0,0.0,0.0,0.0,0.0,0.0,0.0,0.0,0.0,0.0,0.0,0.0,0.0,0.0,0.0,0.0,3.8206,3.8298,3.8298,3.8298,3.7814,3.6509,3.7523,3.7466,3.5749,3.5781,3.5458,3.4133,3.3253,3.2384,3.1377,3.1377,3.1377,3.1377,3.0843,3.0437,3.0437,2.7238,2.5636,2.5368,2.2832,2.1346,2.1081,2.1081,2.0943,2.0665,1.9541,1.7981,1.599,1.5566,1.388,1.1619,1.1619,1.1619,1.1619,0.0,0.0,0.0,0.0,0.0,0.0,4.7309,4.7309,4.7309,4.7309,4.7309,4.7309,4.7309,4.7309,4.7309,4.7309,4.7309,4.7309,4.7309,4.6344,4.5869,4.5869,4.5869,4.5869,4.5869,4.6814,4.7309,4.7309,4.7309,4.7309,4.7339,4.7339,4.7339,4.7369,4.7369,4.7369,4.7282,4.6284,4.6373,4.7135,4.5718,4.5326,4.5417,0.0,0.0,0.0,0.0,0.0,0.0,0.0,0.0,0.0,0.0,0.0,0.0,0.0,0.0,0.0,0.0,0.0,0.0,0.0,0.0,0.0,0.0,0.0,0.0,0.0,0.0,0.0,0.0,0.0,0.0,0.0,0.0,0.0,3.8665,3.901,3.9308,3.9308,3.9308,3.8693,3.7451,3.733,3.6215,3.365,3.3398,3.2892,3.1506,3.1377,3.1377,3.1377,3.1377,3.1377,3.1377,2.9639,2.8706,2.8706,2.5383,2.3638,2.3229,2.1885,2.1081,2.0665,2.0665,2.0665,2.0665,2.0665,1.8821,1.599,1.4583,1.3031,1.1619,1.1619,1.1619,1.1619,0.0,0.0,0.0,0.0,0.0,0.0,4.7309,4.7309,4.7309,4.7309,4.7309,4.7309,4.7309,4.7309,4.7309,4.7309,4.7309,4.7309,4.7309,4.7019,4.6931,4.6931,4.6931,4.6931,4.6931,4.7106,4.7309,4.7309,4.7309,4.7549,4.8027,4.8027,4.8267,4.8716,4.7936,4.7936,4.8686,4.7073,4.6596,4.6839,4.5982,4.484,4.3626,0.0,0.0,0.0,0.0,0.0,0.0,0.0,0.0,0.0,0.0,0.0,0.0,0.0,0.0,0.0,0.0,0.0,0.0,0.0,0.0,0.0,0.0,0.0,0.0,0.0,0.0,0.0,0.0,0.0,0.0,0.0,3.9216,3.9262,3.9124,3.9216,3.9308,3.9308,3.8432,3.7824,3.7689,3.6848,3.6102,3.535,3.4338,3.3583,3.2892,3.1873,3.1377,3.1377,3.112,3.1009,3.1009,2.9265,2.8328,2.8328,2.5113,2.3502,2.3229,2.1609,2.0804,2.0665,2.0665,2.0665,2.0665,2.0665,1.8821,1.6131,1.5707,1.388,1.1619,1.1619,1.1619,1.1619,0.0,0.0,0.0,0.0,0.0,0.0,4.7309,4.7309,4.7309,4.7309,4.7309,4.7309,4.7309,4.7309,4.7309,4.7309,4.7309,4.7309,4.7309,4.7309,4.7106,4.6726,4.7106,4.7309,4.7309,4.7309,4.7429,4.7728,4.7728,4.8057,4.8686,4.8686,4.8895,4.9254,4.8068,4.7975,4.8437,4.6538,4.5797,4.5768,4.5402,4.4573,4.3464,4.3843,4.3108,4.1868,4.1398,4.1498,4.1696,4.1398,0.0,0.0,0.0,0.0,0.0,0.0,0.0,0.0,0.0,0.0,0.0,0.0,0.0,0.0,0.0,0.0,0.0,0.0,0.0,0.0,0.0,0.0,0.0,0.0,3.9629,3.9698,3.9905,3.9744,3.9629,3.9629,3.8541,3.7696,3.7143,3.5892,3.4819,3.4132,3.3367,3.2758,3.2511,3.1873,3.1377,3.1377,3.1138,3.0879,3.0879,2.8328,2.7137,2.7004,2.3774,2.2284,2.2147,2.1207,2.0665,2.0665,2.0665,2.0665,2.0665,2.0665,1.8821,1.6131,0.0,0.0,0.0,0.0,1.1619,1.1619,0.0,0.0,0.0,0.0,0.0,0.0,4.7399,4.7369,4.7339,4.7399,4.7369,4.7309,4.7309,4.7309,4.7309,4.7309,4.7309,4.7309,4.7309,4.7309,4.6931,4.5958,4.6814,4.7309,4.7309,4.7369,4.7698,4.8297,4.8356,4.8745,4.9374,4.9283,4.9222,4.9282,4.7992,4.7491,4.7491,4.5465,4.4563,4.4664,4.4683,4.4425,4.4132,4.3725,4.3218,4.2609,4.1597,4.1324,4.1424,4.1324,0.0,0.0,0.0,0.0,0.0,0.0,0.0,0.0,0.0,0.0,0.0,0.0,0.0,0.0,0.0,0.0,0.0,0.0,0.0,0.0,0.0,0.0,0.0,0.0,4.0135,4.0295,4.0755,4.0433,4.0112,3.9922,3.9064,3.7738,3.6059,3.4644,3.3096,3.1598,3.1451,3.1433,3.1377,3.1377,0.0,0.0,0.0,3.0879,3.075,2.7254,2.5383,2.5383,2.2147,2.0665,2.0665,2.0665,2.0665,2.0665,2.0665,2.0665,2.0665,2.0665,1.8821,1.6131,1.5707,1.4022,1.1619,1.1619,1.1619,1.1619,0.0,0.0,0.0,0.0,0.0,0.0,4.8027,4.7638,4.7489,4.8027,4.7638,4.7309,4.7309,4.7309,4.7309,4.7309,4.7309,4.7309,4.7309,4.7309,4.7222,4.7019,4.7222,4.7309,4.7309,4.7818,4.8147,4.8297,4.8805,4.9404,5.0062,4.9139,4.9026,4.9455,4.7528,4.7124,4.7772,4.5989,4.5213,4.5363,4.5548,4.472,4.3322,4.3544,4.3057,4.2229,4.1581,4.1597,4.1895,4.1398,4.1696,4.1993,4.1498,4.1424,0.0,0.0,0.0,0.0,0.0,0.0,0.0,0.0,0.0,0.0,0.0,0.0,0.0,0.0,0.0,0.0,0.0,0.0,0.0,4.0594,4.0663,4.0709,4.08,4.0732,4.0136,3.8608,3.7374,3.5995,3.4516,3.3138,3.2226,3.1891,3.1891,3.1726,3.1396,3.1377,3.1249,3.1009,3.062,3.0361,3.0083,2.6737,2.5143,2.5008,2.216,0.0,2.0665,2.0665,2.0665,2.0665,2.0665,2.0665,2.0665,2.0665,1.8821,1.5849,1.3452,1.2043,1.1619,1.1619,1.1619,1.1619,0.0,0.0,0.0,0.0,0.0,0.0,4.8716,4.8207,4.7908,4.8237,4.7728,4.7309,4.7309,4.7309,4.7309,4.7309,4.7309,4.7309,4.7309,4.7309,4.7309,4.7309,4.7309,4.7309,4.7309,4.7967,4.8446,4.8775,4.9434,5.0092,5.0627,4.9626,4.9291,4.9513,4.7383,4.6687,4.7047,4.563,4.5129,4.5076,4.5304,4.4781,4.3887,4.3996,4.3472,4.2552,4.2265,4.2364,4.2567,4.2262,4.2567,4.2844,4.2364,4.2364,4.2466,0.0,0.0,0.0,0.0,0.0,0.0,0.0,0.0,0.0,0.0,0.0,0.0,0.0,0.0,4.0975,4.0583,0.0,4.0594,4.1122,4.0984,4.0915,4.1168,4.0321,3.9432,3.8547,3.7254,3.5779,3.4152,3.2767,3.1928,3.1708,3.1689,3.1598,3.1396,3.1249,3.1138,3.0879,3.0361,2.9691,2.874,2.6203,2.4602,2.391,2.1887,2.0859,2.0871,2.1003,2.1076,2.1076,2.1076,2.1076,2.0934,1.9337,1.7888,1.6155,1.2991,1.1796,1.1728,1.1728,1.1775,1.1843,0.0,0.0,0.0,0.0,0.0,0.0,0.0,4.8716,4.8327,4.8446,4.7788,4.7309,4.7309,4.7106,4.6931,4.6726,4.6931,4.7019,4.7019,4.7222,4.7309,4.7309,4.7309,4.7369,4.7489,4.8147,4.8805,4.9464,5.0122,5.069,5.1229,4.9902,4.9317,4.9219,4.6971,4.6058,4.5953,4.5154,4.4722,4.4722,4.4722,4.4722,4.4725,4.4594,4.396,4.318,4.3049,4.3023,4.3023,4.3023,4.3308,4.3618,4.3127,4.3308,4.3515,4.3127,4.3023,0.0,0.0,0.0,0.0,0.0,0.0,0.0,0.0,4.3832,4.2683,4.2988,4.1709,4.0606,4.0869,4.0892,4.0984,4.1489,4.1145,4.0838,4.0978,3.9699,3.8472,3.7971,3.6832,3.5517,3.3688,3.2506,3.1744,3.1396,3.1377,3.1377,3.1249,3.1009,3.0915,3.0858,2.9927,2.8891,2.7745,2.5726,2.4092,2.2993,2.172,2.1136,2.1148,2.1378,2.1474,2.1474,2.1474,2.1474,2.133,1.8081,1.6755,1.6462,1.3386,1.2006,1.1918,1.1884,1.1952,1.206,0.0,0.0,0.0,0.0,0.0,0.0,0.0,0.0,4.8506,4.9075,4.8087,4.7309,4.7309,4.655,4.5598,4.4684,4.5417,4.5958,4.5958,4.6814,4.7309,4.7309,4.7309,4.7578,4.8177,4.8835,4.9464,5.0122,5.078,5.1139,5.1135,4.9092,4.8167,4.8066,4.5847,4.4938,4.483,4.4722,4.4722,4.4722,4.4722,4.4722,4.4722,4.4673,4.4306,4.3702,4.3206,4.3023,4.3023,4.3023,4.3023,4.3127,4.3023,4.3023,4.3127,4.3023,4.3023,4.3023,4.3023,4.3389,4.4124,4.5236,4.547,4.5757,0.0,4.5846,4.4648,4.4327,4.3065,4.1845,4.1522,4.1122,4.0984,4.1489,4.1145,4.0455,3.9339,3.8547,3.7249,3.4852,3.4487,3.3669,3.1856,3.158,3.1433,3.1377,3.1377,3.1249,3.1009,3.0879,3.0781,3.0478,2.9094,2.8164,2.809,2.5157,2.3621,2.3479,2.2119,2.1426,2.1438,2.1462,2.1474,2.1474,2.1474,2.1474,2.133,1.8081,1.6755,1.6462,1.3386,1.2135,1.2223,1.2088,1.2047,1.206,0.0,0.0,0.0,0.0,0.0,0.0,0.0,0.0,4.8386,4.8656,4.7878,4.7309,4.7309,4.6432,4.5417,4.4406,4.5235,4.5779,4.5779,4.6726,4.7309,4.7309,4.7309,4.7608,4.8267,4.8925,4.9583,5.0242,5.09,5.0917,5.022,4.8696,4.7661,4.6971,4.5449,4.4722,4.4722,4.4722,4.4722,4.4722,4.4722,4.4722,4.4722,4.4722,4.4591,4.433,4.4095,4.4016,0.0,4.4016,4.4016,4.4016,4.4016,4.4016,4.4016,4.4016,4.4016,4.4016,4.4441,4.497,4.5446,4.6035,4.6323,4.6663,4.6774,4.5448,4.4178,4.4383,4.2784,4.1452,4.1591,4.1168,4.0892,4.1099,4.0709,3.9855,3.8605,3.7541,3.6164,3.426,3.3608,3.273,3.1561,3.1598,3.1744,3.1744,3.1964,3.1961,3.1565,3.13,3.1123,3.0746,2.9088,2.7767,2.6937,2.4693,2.3158,2.2312,2.1909,2.1704,2.1716,2.186,2.1933,2.1933,2.1933,2.1933,2.1786,1.9521,1.8021,1.6974,1.4573,1.3261,1.2393,1.225,1.2244,1.2318,0.0,0.0,0.0,0.0,0.0,0.0,0.0,0.0,0.0,0.0,4.7317,4.6638,4.6077,4.5417,4.4563,4.3559,4.4377,4.5115,4.5417,4.6344,4.7019,4.7309,4.7309,4.7608,4.8267,4.8925,4.9492,4.9749,5.0401,5.022,4.912,4.8094,4.7177,4.6374,4.5235,4.4722,4.4722,4.4722,4.4722,4.4722,4.4722,4.4722,4.4722,4.4722,4.4722,4.4722,4.4722,4.4722,4.4722,4.4722,4.4722,4.4722,4.4722,4.4722,4.4722,4.4722,4.4853,4.5118,4.5711,4.6164,4.6482,4.6482,4.6933,4.7133,4.6482,4.5052,4.386,4.3988,4.2347,4.0938,4.1306,4.0961,4.0617,4.0617,4.0295,3.9681,3.8319,3.7042,3.5718,3.4309,3.3313,3.2368,3.1763,3.1983,3.2166,3.2166,3.2308,3.232,3.1917,3.1531,3.1178,3.1028,2.9192,2.7679,2.6208,2.4671,2.3104,2.1691,2.1885,2.1981,2.1981,2.2174,2.2259,2.2259,2.2259,2.2259,2.2109,1.9962,1.8441,1.7227,1.5097,1.3568,1.2488,1.2386,1.2413,1.2501,0.0,0.0,0.0,0.0,0.0,0.0,0.0,0.0,0.0,0.0,0.0,4.5115,4.3177,4.2889,4.2528,4.1498,4.2333,4.3273,4.4312,4.5326,4.6255,4.7309,4.7309,4.7608,4.8267,4.8925,4.9097,4.8624,4.9291,4.9092,4.8066,4.6971,4.6478,4.6374,4.5235,4.4722,4.4722,4.4722,4.4722,4.4722,4.4722,4.4722,4.4722,4.4722,4.4722,4.4722,4.4722,4.4722,4.4722,4.4722,4.4722,4.4722,4.4722,4.4722,4.4722,4.4722,4.514,4.5715,4.6264,4.6447,4.6447,4.6447,4.6891,4.708,4.6127,4.5185,4.4206,4.3214,4.1883,4.0823,4.0846,4.0433,4.0066,4.0066,4.0066,3.9681,3.8319,3.7318,3.6187,3.489,3.3501,3.2588,3.2551,3.257,3.257,3.257,3.2186,3.1917,3.1531,3.1143,3.1045,3.0994,2.9551,2.8144,2.6866,2.529,2.3844,2.2235,2.2247,2.2247,2.2247,2.2259,2.2259,2.2259,2.2259,2.2259,2.2109,1.8754,1.7379,1.7074,1.3876,1.2501,1.2501,1.2494,1.2501,1.2501,0.0,0.0,0.0,0.0,0.0,0.0,0.0,0.0,0.0,0.0,0.0,0.0,0.0,0.0,0.0,0.0,4.2235,4.2985,4.3273,4.484,4.5958,4.6255,4.6931,4.7608,4.8267,4.8925,4.9401,4.9626,4.961,4.8993,4.7965,4.6867,4.5953,4.5235,4.483,4.4722,4.4722,4.4722,4.4722,4.4722,4.4722,4.4722,4.4722,4.4722,4.4722,4.4722,0.0,4.4722,4.4722,4.4722,4.4722,4.4722,4.4722,4.4722,4.48,4.5218,4.5741,4.6238,4.6421,4.6761,4.7048,4.7048,4.7179,4.7106,4.6152,4.491,4.3668,4.2712,4.1649,4.0823,4.0823,4.0686,4.0571,4.0571,4.0571,4.0059,3.8759,3.7784,3.6656,3.5211,3.4161,3.3413,3.3413,3.3156,3.2874,3.2566,3.2701,3.257,3.1861,3.1739,3.167,3.1371,2.9786,2.8392,2.691,2.5318,2.387,2.2259,2.2259,2.2259,2.2259,2.2259,2.2259,2.2259,2.2259,2.2259,2.2109,1.9962,1.829,1.7227,1.4944,1.3421,1.2501,1.2501,1.2501,1.2501,0.0,0.0,0.0,0.0,0.0,0.0,0.0,0.0,0.0,0.0,0.0,0.0,0.0,0.0,0.0,0.0,0.0,4.2431,4.2792,4.4003,4.484,4.5235,4.5898,4.646,4.6871,4.775,4.8179,4.8209,4.8787,4.8296,4.6867,4.6583,4.5768,4.4722,4.4722,4.4722,4.4722,4.4722,4.4722,4.4722,4.4722,4.4722,4.4722,4.4722,4.4722,0.0,4.4722,4.4722,4.4722,4.4722,4.4722,4.4774,4.4983,4.5192,4.548,4.6055,4.6499,4.6813,4.7022,4.7362,4.7597,4.7388,4.7336,4.7054,4.5897,4.4461,4.3179,4.2449,4.1392,4.0594,4.0778,4.0823,4.0823,4.0823,4.0961,4.0829,3.9913,3.8509,3.7237,3.6443,3.485,3.3817,3.3817,3.3459,3.3157,3.2863,3.282,3.2684,3.2105,3.1965,3.1841,3.1559,2.9965,2.8516,2.691,2.5318,2.387,2.2259,2.2259,2.2259,2.2259,2.2259,2.2259,2.2259,2.2259,2.2259,2.2109,2.0425,1.8905,1.7227,1.5548,1.3913,1.2583,1.2583,1.2617,1.2651,0.0,0.0,0.0,0.0,0.0,0.0,0.0,0.0,0.0,0.0,0.0,0.0,0.0,0.0,0.0,0.0,0.0,0.0,4.2695,4.2792,4.3273,4.4219,4.4312,4.4312,4.4312,4.5493,4.5594,4.4501,4.679,4.6785,4.4778,4.582,4.5741,4.4722,4.4722,4.4722,4.4722,4.4722,4.4722,4.4722,4.4722,4.4722,4.4722,4.4722,4.4722,4.4722,4.4722,4.4722,4.4722,4.4722,4.4748,4.4879,4.548,4.6055,4.663,4.7179,4.7362,4.7492,4.8015,4.8146,4.8015,4.744,4.7143,4.6757,4.5247,4.3796,4.2647,4.221,4.1038,4.0272,4.0778,4.0869,4.0892,4.0892,4.1306,4.1604,4.1479,3.952,3.8067,3.7934,3.5549,3.3817,3.3817,3.34,3.3278,3.3278,3.2544,3.2105,3.2105,3.1841,3.1559,3.1559,3.0107,2.8516,2.691,2.5332,2.3722,2.2259,2.2259,2.2259,2.2259,2.2259,2.2271,2.2283,2.2283,2.2283,2.2145,2.0458,1.8936,1.7255,1.5582,1.3996,1.2745,1.2745,1.2834,1.2922,0.0,0.0,0.0,0.0,0.0,0.0,0.0,0.0,0.0,0.0,0.0,0.0,0.0,0.0,0.0,0.0,0.0,0.0,4.1696,4.2431,4.2889,4.3177,4.3937,4.4312,4.4312,4.5071,4.5369,4.508,4.5338,4.5465,4.5308,4.4811,4.4625,4.4722,4.4722,4.4722,4.4722,4.4722,4.4722,4.4722,4.4722,4.4722,4.4722,4.4722,4.4722,4.4722,4.4722,4.4722,4.4722,4.4722,4.5036,4.5506,4.6081,4.6656,4.7153,4.7283,4.7623,4.7911,4.7623,4.7545,4.7414,4.6839,4.5917,4.4763,4.3672,4.2598,4.159,4.0805,4.0999,4.1214,4.1352,4.1696,4.1948,4.1948,4.2063,4.1752,4.0684,3.9192,3.7668,3.6614,3.4883,3.3678,3.34,3.3139,3.2701,3.2403,3.2246,3.1965,3.17,3.17,3.1559,3.1559,3.1135,2.9663,2.691,2.4301,2.2707,2.2259,2.2259,2.2259,2.2259,2.2259,2.2367,2.2549,2.2549,2.2657,2.2838,2.1134,1.9409,1.7686,1.6128,1.4434,1.2901,1.2901,1.2929,1.2949,0.0,0.0,0.0,0.0,0.0,0.0,0.0,0.0,0.0,0.0,0.0,0.0,0.0,0.0,0.0,0.0,0.0,0.0,0.0,4.1868,4.2137,4.2137,4.2722,4.3012,4.3012,4.3585,4.3983,4.3983,4.4384,4.4543,4.4407,4.4277,4.4309,4.4356,4.4356,4.4487,4.4722,4.4722,4.4722,0.0,0.0,4.4722,4.4722,4.4722,4.4722,4.4722,4.4722,4.4905,4.5192,4.5689,4.6107,4.6421,4.6761,4.7257,4.7702,4.7702,4.7754,4.7728,4.7414,4.7153,4.6813,4.6264,4.5175,4.4156,4.3537,4.236,4.1449,4.1322,4.1538,4.165,4.1857,4.2132,4.2339,4.2339,4.2339,4.1806,4.0344,3.8993,3.7534,3.6093,3.4609,3.3678,3.3539,3.3142,3.2809,3.265,3.221,3.1841,3.1559,3.1559,3.1645,3.1816,3.048,2.8213,2.5256,2.3493,2.2609,2.2609,2.2609,2.2609,2.2609,2.2609,2.2681,2.2826,2.2826,2.2911,2.3043,2.2102,2.0689,1.8956,1.7372,1.5688,1.4172,1.3374,1.3098,1.3152,0.0,0.0,0.0,0.0,0.0,0.0,0.0,0.0,0.0,0.0,0.0,0.0,0.0,0.0,0.0,0.0,0.0,0.0,0.0,0.0,4.1324,4.1324,4.1324,4.1324,4.1324,4.1794,4.2056,4.2056,4.3493,4.3686,4.2918,4.3868,4.4086,4.3755,4.3755,4.4068,4.4617,4.4617,4.4643,4.4722,4.4722,4.4722,4.4722,0.0,4.4722,4.4748,4.4826,4.5271,4.6003,4.6996,4.7336,4.7336,4.7414,4.778,4.8172,4.8094,4.7728,4.731,4.7153,4.6734,4.6238,4.5663,4.478,4.4017,4.3967,4.269,4.1661,4.256,4.2226,4.1811,4.2247,4.2339,4.2339,4.2339,4.2339,4.1806,4.0344,3.8993,3.7554,3.6152,3.4703,3.3908,3.3824,3.3588,3.3358,3.3215,3.2329,3.1713,3.1713,3.1713,3.1725,3.1905,2.878,2.5951,2.3495,2.3198,2.3043,2.3043,2.3043,2.3043,2.3043,2.3043,2.3056,2.3092,2.3092,2.3116,2.3152,2.3152,2.205,2.0148,1.872,1.7084,1.5302,1.3853,1.3288,1.3403,0.0,0.0,0.0,0.0,0.0,0.0,0.0,0.0,0.0,0.0,4.2065,4.1498,0.0,0.0,0.0,0.0,0.0,0.0,0.0,0.0,0.0,4.1324,4.1324,4.1324,4.1324,4.1402,4.1455,4.1455,4.176,4.2049,4.2317,4.2496,4.2811,4.318,4.318,4.3493,4.4016,4.4016,4.4278,4.4722,4.4722,4.4722,4.4722,4.4722,0.0,0.0,4.5297,4.6159,4.7074,4.7257,4.7336,4.7414,4.7885,4.812,4.8094,4.7623,4.7414,4.7127,4.6186,4.5846,4.5637,4.5036,4.3975,4.3054,4.3054,4.2233,4.1599,4.1784,4.2028,4.2224,4.2316,4.2339,4.2339,4.2339,4.2339,4.1806,4.0344,3.8993,3.7677,3.6563,3.5116,3.4157,3.3929,3.3892,3.3476,3.2878,3.2664,3.2484,3.2484,3.2484,3.1918,3.0499,2.7337,2.5563,2.5019,2.3803,2.3043,2.3043,2.3043,2.3043,2.3043,2.3043,2.3164,2.3381,2.3381,2.3502,2.3707,2.3707,2.1756,1.8846,1.8675,1.6588,1.3851,1.3528,1.3376,1.3403,0.0,0.0,0.0,0.0,0.0,0.0,0.0,4.4191,4.3368,4.2889,4.1967,4.1324,4.1324,4.1324,4.1324,0.0,0.0,0.0,0.0,0.0,0.0,4.1324,4.1324,4.1324,4.1324,4.1324,4.1324,4.1324,0.0,4.1455,4.1716,4.1716,4.203,4.2579,4.2579,4.2892,4.3415,4.3415,4.3755,4.4278,4.4278,4.446,4.4722,4.4722,0.0,0.0,4.6212,4.6865,4.7388,4.7675,4.778,4.7832,4.8094,4.8172,4.8068,4.7492,4.7127,4.6708,4.5846,4.5401,4.5166,4.5192,4.4015,4.2971,4.3536,4.2516,4.165,4.1903,4.2155,4.2339,4.2339,4.2339,4.2339,4.2339,4.2339,4.1806,4.0344,3.9226,3.7983,3.6681,3.5276,3.4378,3.4144,3.3903,3.3734,3.3275,3.3317,3.31,3.2707,3.2107,3.1001,2.92,2.7074,2.5465,2.4541,2.3769,2.3454,2.3454,2.3454,2.3454,2.3454,2.3454,2.3538,2.3659,2.3659,2.3731,2.384,2.384,2.2211,1.9917,1.8942,1.6992,1.4706,1.3728,1.3403,1.3397,0.0,0.0,0.0,0.0,0.0,0.0,0.0,4.3273,4.2528,4.2528,4.1769,4.1324,4.1324,4.1324,4.1324,0.0,0.0,0.0,0.0,0.0,0.0,0.0,0.0,0.0,4.1324,0.0,0.0,4.1324,4.1324,0.0,0.0,0.0,0.0,0.0,4.1977,4.2291,4.284,4.284,4.318,0.0,0.0,4.4147,4.4565,0.0,0.0,0.0,0.0,4.7414,4.7597,4.8041,4.8172,4.8172,4.8041,4.8015,4.7858,4.7179,4.6656,4.6159,4.5584,4.5088,4.4879,4.548,4.4433,4.3474,4.4224,4.3211,4.2085,4.2247,4.2339,4.2339,4.2339,4.2339,4.2339,4.2339,4.2431,4.1965,4.0475,3.9432,3.8275,3.6995,3.5489,3.4613,3.454,3.4239,3.397,3.3821,3.3816,3.3413,3.2503,3.1077,2.9534,2.8,2.6527,2.5092,2.384,2.384,2.384,2.384,2.384,2.384,2.384,2.384,2.384,2.384,2.384,2.384,2.384,2.384,2.2533,2.0575,1.9115,1.7319,1.5358,1.3887,1.3403,1.3403,0.0,0.0,0.0,0.0,0.0,0.0,0.0,4.2625,4.1398,4.1398,4.1324,4.1324,4.1324,4.1324,4.1324,0.0,0.0,0.0,0.0,0.0,0.0,0.0,0.0,0.0,0.0,0.0,0.0,4.1324,4.1324,0.0,0.0,0.0,0.0,0.0,0.0,4.1716,4.2239,4.2239,0.0,0.0,0.0,0.0,0.0,0.0,0.0,0.0,0.0,4.7675,4.812,4.8172,4.8172,4.8094,4.7571,4.7414,4.7205,4.6107,4.5741,4.5584,4.4983,4.4774,4.4879,4.548,4.5191,4.4785,4.4417,4.3988,4.338,4.2443,4.2339,4.2339,4.2339,4.2339,4.2339,4.2339,4.2729,4.2464,4.0979,3.9897,3.8963,3.7857,3.6393,3.5412,3.5014,3.4936,3.4654,3.3785,3.382,3.318,3.1558,2.9868,2.8175,2.6621,2.4933,2.4,2.384,2.384,2.384,2.384,2.384,2.384,2.384,2.384,2.384,2.384,2.384,2.384,2.384,2.384,2.1878,1.8789,1.8626,1.6508,1.3562,1.3397,1.3403,1.3403,0.0,0.0,0.0,0.0,0.0,0.0,4.2722,4.1769,4.1324,4.1324,4.1324,4.1324,4.1324,4.1324,4.1324,4.1324,0.0,0.0,0.0,0.0,0.0,0.0,0.0,0.0,0.0,0.0,4.1324,4.1324,4.1324,0.0,0.0,0.0,0.0,0.0,0.0,4.1428,4.1664,4.1664,0.0,0.0,0.0,0.0,0.0,0.0,0.0,0.0,0.0,0.0,4.8172,4.8172,4.8172,4.8068,4.7519,4.71,4.6656,4.5872,4.5637,4.5506,4.4879,4.4983,4.5401,4.6003,4.5871,4.5481,4.5055,4.4376,4.3553,4.2466,4.2339,4.2339,4.2339,4.2339,4.2212,4.1829,4.2108,4.1879,4.0094,3.9234,3.8365,3.7565,3.5962,3.4847,3.4989,3.4574,3.4122,3.3837,3.3837,3.2588,2.9928,2.9153,2.8061,2.6346,2.4627,2.384,2.384,2.384,2.384,2.384,2.384,2.384,2.384,2.384,2.384,2.384,2.384,2.384,2.384,2.384,2.1717,1.8626,1.8626,1.6508,1.3403,1.3403,1.3403,1.3403,0.0,0.0,0.0,0.0,0.0,4.3843,4.2431,4.1696,4.1324,4.1324,4.1324,4.1324,4.1324,4.1324,4.1324,4.1324,4.1324,0.0,0.0,0.0,0.0,0.0,0.0,0.0,0.0,0.0,4.1324,4.1324,4.1324,4.1324,0.0,0.0,4.1324,4.1324,0.0,0.0,0.0,0.0,0.0,0.0,0.0,0.0,0.0,0.0,0.0,0.0,0.0,0.0,0.0,0.0,0.0,4.8068,4.7519,4.6944,4.6369,4.5794,4.5506,4.5271,4.4853,4.5166,4.5767,4.6342,4.6435,4.6188,4.5401,4.4792,4.3927,4.2593,4.2339,4.2339,4.2339,4.2339,4.2212,4.1701,4.1983,4.1573,3.977,3.9027,3.819,3.7219,3.5573,3.4574,3.4875,3.4122,3.3837,3.3837,3.3837,3.2283,2.8997,2.8842,2.7748,2.5568,2.4467,2.384,2.384,2.384,2.384,2.384,2.384,2.384,2.384,2.384,2.384,2.384,2.384,2.384,2.384,2.384,2.1717,1.8626,1.8626,1.6508,1.3403,1.3403,1.3403,1.3403,0.0,0.0,0.0,0.0,0.0,0.0,4.4312,4.2528,4.1324,4.1324,4.1324,4.1324,4.1324,4.1324,4.1324,4.1324,4.1324,0.0,0.0,0.0,0.0,0.0,0.0,0.0,0.0,0.0,4.1324,4.1324,4.1324,4.1324,4.1324,4.1324,4.1324,4.1324,0.0,0.0,0.0,0.0,0.0,0.0,0.0,0.0,0.0,0.0,0.0,0.0,0.0,0.0,0.0,0.0,0.0,0.0,0.0,4.6944,4.6369,4.5794,4.5218,4.4748,4.4722,4.5166,4.5767,4.6342,4.6917,4.6888,4.5643,4.5281,4.4669,4.2696,4.2339,4.2339,4.2339,4.2339,4.2339,4.2339,4.2515,4.2193,4.0665,3.9636,3.8496,3.6941,3.5754,3.4857,3.4441,3.3988,3.3837,3.3837,3.3837,3.2283,2.8997,2.8842,2.7278,2.4,2.384,2.384,2.384,2.384,2.384,2.384,2.384,2.384,2.384,2.384,2.384,2.384,2.384,2.384,2.384,2.384,2.1717,1.8626,1.8626,1.6508,1.3403,1.3403,1.3403,1.3403,0.0,0.0,0.0,0.0,0.0,0.0,0.0,4.2164,4.1324,4.1324,4.1324,4.1324,4.1324,4.1324,4.1324,4.1324,4.1324,0.0,0.0,0.0,0.0,0.0,0.0,0.0,0.0,0.0,4.1324,4.1324,4.1324,4.1324,4.1324,4.1324,4.1324,4.1324,4.1324,4.1324,0.0,0.0,0.0,0.0,0.0,0.0,4.6238,0.0,0.0,0.0,0.0,0.0,0.0,0.0,0.0,0.0,0.0,0.0,0.0,4.6264,4.5506,4.4722,4.4722,4.5454,4.6264,4.6421,4.7205,4.7587,4.656,4.5768,4.4915,4.3553,4.2822,4.2339,4.2339,4.2339,4.1956,4.1035,4.1463,4.1407,3.9592,3.8826,3.8097,3.7639,3.6034,3.4857,3.4441,3.3988,3.3837,3.3837,3.3837,3.2283,2.8997,2.8842,2.7278,2.384,2.384,2.384,2.384,2.384,2.384,2.384,2.384,2.384,2.384,2.384,2.384,2.384,2.384,2.384,2.368,2.2533,2.0737,1.8463,1.7311,1.5358,1.3403,1.3403,1.3403,1.3403,0.0,0.0,0.0,0.0,0.0,0.0,0.0,4.2528,4.1769,4.1324,4.1324,4.1324,4.1324,4.1324,4.1324,4.1324,4.1324,0.0,0.0,0.0,0.0,0.0,0.0,0.0,4.1324,4.1324,4.1324,4.1324,4.1324,4.1324,4.1324,4.1324,4.1324,4.1324,4.1324,4.1324,0.0,0.0,0.0,0.0,0.0,0.0,4.6473,0.0,0.0,0.0,0.0,0.0,0.0,0.0,0.0,0.0,0.0,0.0,0.0,0.0,4.582,4.5009,4.48,4.5584,4.6473,4.6473,4.7336,4.7821,4.6465,4.5768,4.4915,4.3553,4.2696,4.2339,4.2339,4.2339,4.1956,4.0777,4.1463,4.1272,3.9316,3.8704,3.8078,3.6885,3.5587,3.4724,3.4441,3.3988,3.3837,3.3837,3.3837,3.2283,2.8997,2.8842,2.7278,2.384,2.384,2.384,2.384,2.384,2.384,2.384,2.384,2.384,2.384,2.384,2.384,2.384,2.384,2.384,0.0,2.1878,2.0241,1.8463,1.6656,1.4863,1.3403,1.3403,1.3403,1.3403,0.0,0.0,0.0,0.0,0.0,0.0,0.0,4.3531,4.2528,4.1498,4.1398,4.1424,4.1324,4.1324,4.1324,4.1324,0.0,0.0,0.0,0.0,0.0,0.0,0.0,0.0,4.1324,4.1324,4.1324,4.1324,4.1324,4.1324,4.1324,4.1324,4.1324,4.1324,4.1324,4.1324,0.0,0.0,0.0,0.0,4.3101,4.4487,0.0,0.0,0.0,0.0,0.0,0.0,0.0,0.0,0.0,0.0,0.0,0.0,0.0,0.0,0.0,0.0,0.0,4.5584,4.6473,4.6473,4.7336,4.7703,4.5889,4.5403,0.0,4.2822,4.2339,4.2339,4.2339,4.2339,4.2084,4.1315,4.2122,4.1924,3.975,3.9253,3.8059,3.5288,3.4724,3.4441,3.4441,3.3988,3.3837,3.3837,3.3837,3.2283,2.8997,2.8842,2.7278,2.384,2.384,2.384,2.384,2.384,2.384,2.384,2.384,2.384,2.384,2.384,2.384,2.384,2.384,2.384,2.368,2.1717,2.0079,1.8463,1.65,1.4871,1.3403,1.3403,1.3403,1.3403,0.0,0.0,0.0,0.0,0.0,0.0,0.0,0.0,0.0,0.0,4.2431,4.2137,4.1398,4.1324,4.1324,0.0,0.0,0.0,0.0,0.0,0.0,0.0,0.0,0.0,4.1324,4.1324,4.1324,4.1324,4.1324,4.1324,4.1324,4.1324,4.1324,4.1324,4.1324,4.1324,0.0,0.0,0.0,0.0,4.399,4.5218,0.0,0.0,0.0,0.0,4.8172,4.8172,0.0,0.0,0.0,0.0,0.0,0.0,0.0,0.0,4.6081,4.5506,4.4879,0.0,4.6473,4.6473,4.7336,4.7938,0.0,4.5889,4.4915,4.3678,4.2822,4.2339,4.2339,4.2339,4.1956,4.0799,4.1727,4.1946,3.975,3.8969,3.7932,3.5736,3.5157,3.4724,3.4441,3.3988,3.3837,3.3837,3.3837,3.2283,2.8997,2.8842,2.7278,2.384,2.384,2.384,2.384,2.384,2.384,2.384,2.384,2.384,2.384,2.384,2.384,2.384,2.384,2.384,2.352,2.0413,1.8952,1.83,1.5201,1.3728,1.3403,1.3403,1.3403,1.3403,0.0,0.0,0.0,0.0,0.0,0.0,0.0,0.0,0.0,0.0,0.0,4.1868,4.1324,4.1324,0.0,0.0,0.0,0.0,0.0,0.0,0.0,0.0,0.0,4.1324,4.1324,4.1324,4.1324,4.1324,4.1324,4.1324,4.1324,4.1324,4.1324,4.1324,4.1324,4.1324,0.0,0.0,0.0,4.3127,4.4304,0.0,0.0,0.0,0.0,0.0,4.8172,4.8172,0.0,4.8172,4.8172,4.8172,0.0,0.0,0.0,0.0,4.6264,4.582,4.4957,4.5401,4.6159,4.6421,4.7153,4.751,4.6295,4.5646,4.4915,4.3451,4.2696,4.2339,4.2339,4.2339,4.2025,4.1195,4.2256,4.2348,4.0153,3.8923,3.7639,3.5754,3.5025,3.4724,3.4724,3.4139,3.3837,3.3837,3.3837,3.2283,2.8997,2.8842,2.7278,2.384,2.384,2.384,2.384,2.384,2.384,2.384,2.384,2.384,2.384,2.384,2.384,2.384,2.384,2.3348,2.2372,1.9765,1.8137,1.7147,1.4383,1.3403,1.3403,1.3403,1.3403,1.3403,0.0,0.0,0.0,0.0,0.0,0.0,0.0,0.0,0.0,0.0,0.0,0.0,0.0,0.0,0.0,0.0,0.0,0.0,0.0,0.0,0.0,0.0,4.1324,4.1324,4.1324,4.1324,4.1324,4.1324,4.1324,4.1324,4.1324,4.1324,4.1324,4.1324,4.1324,4.135,0.0,4.2056,4.2631,4.3258,4.4539,0.0,0.0,0.0,0.0,0.0,0.0,0.0,0.0,4.8172,4.8172,4.8172,4.8172,0.0,0.0,0.0,0.0,0.0,4.5062,4.5057,4.5519,4.6091,4.6664,4.6772,4.5401,4.5037,4.4546,4.2696,4.2339,4.2339,4.2339,4.2339,4.2244,4.2051,4.259,4.232,4.0228,3.8622,3.7051,3.5754,3.4875,3.4574,3.4857,3.4122,3.3837,3.3837,3.3534,3.2113,2.8997,2.853,2.6963,2.384,2.384,2.384,2.384,2.384,2.384,2.384,2.384,2.384,2.384,2.384,2.384,2.384,2.384,2.2854,2.106,1.9277,1.7638,1.5843,1.4052,1.3403,1.3403,1.3403,1.3403,1.3403,0.0,0.0,0.0,0.0,0.0,0.0,0.0,0.0,0.0,0.0,0.0,0.0,0.0,0.0,0.0,0.0,0.0,0.0,0.0,0.0,0.0,4.1324,4.1324,4.1324,4.1324,4.1324,4.1324,4.1324,4.1324,4.1324,4.1324,4.1324,4.1324,4.1324,4.1324,4.1585,4.2082,4.2657,4.3232,4.3885,4.5558,0.0,0.0,0.0,0.0,0.0,0.0,0.0,0.0,4.8172,4.8172,4.8172,4.8172,0.0,0.0,0.0,0.0,0.0,4.5062,4.4565,4.4458,4.5043,4.5744,4.5716,4.4302,4.4051,4.3678,4.2593,4.2339,4.2339,4.2339,4.2339,4.2244,4.2051,4.0707,3.9495,3.8853,3.7492,3.6201,3.5157,3.5007,3.4707,3.3988,3.3837,3.3837,3.3837,3.2435,3.087,2.8842,2.7435,2.5872,2.384,2.384,2.384,2.384,2.384,2.384,2.384,2.384,2.384,2.384,2.384,2.384,2.384,2.384,2.2854,2.106,1.9277,1.7638,1.5843,1.4052,1.3403,1.3403,1.3403,1.3403,1.3238,0.0,0.0,0.0,0.0,0.0,0.0,0.0,0.0,0.0,0.0,0.0,0.0,0.0,0.0,0.0,0.0,0.0,0.0,0.0,0.0,4.1324,4.1324,4.1324,4.1324,4.1324,4.1324,4.1324,4.1324,4.1324,4.1324,4.1324,4.1324,4.1324,4.1324,4.1324,4.1638,4.2213,4.2788,4.3546,4.446,0.0,0.0,0.0,0.0,0.0,0.0,0.0,0.0,0.0,0.0,4.8172,4.8172,4.8172,0.0,0.0,0.0,0.0,0.0,4.4957,4.4454,4.4093,4.4211,4.4643,4.4833,4.4055,4.3802,4.3553,4.2466,4.2339,4.2339,4.2339,4.2568,4.2594,4.226,4.1581,4.0551,3.8457,3.7639,3.6608,3.5157,3.4875,3.4574,3.4139,3.3988,3.3837,3.3837,3.2283,3.0562,2.8842,2.7278,2.5568,2.384,2.384,2.384,2.384,2.384,2.384,2.384,2.384,2.384,2.384,2.384,2.384,2.368,2.2854,2.1383,1.9592,1.7964,1.6172,1.4541,1.3728,1.3403,1.3403,1.3403,1.3231,1.2899,0.0,0.0,0.0,0.0,0.0,0.0,0.0,0.0,0.0,0.0,0.0,0.0,0.0,0.0,0.0,0.0,0.0,0.0,0.0,0.0,4.1324,4.1324,4.1324,4.1324,4.1324,4.1324,4.1324,4.1324,4.1324,4.1324,4.1324,4.1324,4.1324,4.1324,4.1455,4.1821,4.2396,4.2971,4.3885,4.5036,0.0,0.0,0.0,0.0,0.0,0.0,0.0,0.0,0.0,0.0,0.0,0.0,0.0,0.0,0.0,4.6656,4.6081,4.5532,4.5062,4.466,4.418,4.3801,4.3888,4.399,4.3559,4.3451,4.32,4.2466,4.2339,4.2339,4.2339,4.2844,4.3008,4.2338,4.2492,4.1509,3.8496,3.7766,3.6904,3.5306,3.4724,3.4441,3.4441,3.3988,3.3837,3.3837,3.1807,3.0083,2.8842,2.6806,2.5092,2.384,2.384,2.384,2.384,2.384,2.384,2.384,2.384,2.384,2.384,2.384,2.352,2.3187,2.1717,1.9917,1.7964,1.6492,1.5028,1.3403,1.3403,1.3403,1.3403,1.3403,1.3065,1.2733,0.0,0.0,0.0,0.0,0.0,0.0,0.0,0.0,0.0,0.0,0.0,0.0,0.0,0.0,0.0,0.0,0.0,0.0,0.0,0.0,4.1324,4.1324,4.1324,4.1324,4.1324,4.1324,4.1324,4.1324,4.1324,4.1324,4.1324,4.1324,4.1324,4.1324,4.1873,4.2422,4.2997,4.3572,4.4487,4.5611,4.6238,0.0,0.0,0.0,0.0,0.0,0.0,0.0,0.0,0.0,0.0,0.0,0.0,0.0,4.7231,4.6656,4.6081,4.5611,4.5584,4.5278,4.49,4.4487,4.3675,4.2891,4.2454,4.2466,4.2339,4.2339,4.2339,4.2339,4.2339,4.3119,4.3394,4.2404,4.1495,4.0371,3.8641,3.7217,3.6201,3.5605,3.5157,3.4875,3.4441,3.3988,3.3837,3.3837,3.087,2.8997,2.8842,2.5727,2.384,2.384,2.384,2.384,2.384,2.384,2.384,2.384,2.384,2.384,2.384,2.384,2.2854,2.1383,2.1222,1.9267,1.6172,1.6008,1.5028,1.3403,1.3403,1.3403,1.3403,1.3403,1.3065,1.2567,0.0,0.0,0.0,0.0,0.0,0.0,0.0,0.0,0.0,0.0,0.0,0.0,0.0,0.0,0.0,0.0,0.0,0.0,0.0,4.1324,4.1324,4.1324,4.1324,4.1324,4.1324,4.1324,4.1324,4.1324,4.1324,4.1324,4.1324,4.1324,4.1507,4.1847,4.2082,4.2683,4.3598,4.4173,4.5088,4.6212,4.6787,4.7362,0.0,0.0,0.0,0.0,0.0,0.0,0.0,0.0,4.8172,4.8172,4.8172,4.7545,4.6761,4.6552,4.582,4.5031,4.4703,4.4396,4.3993,4.3578,4.3009,4.2464,4.2293,4.2339,4.2339,4.2339,4.2339,4.2522,4.3142,4.3556,4.3263,4.1689,4.1121,3.9941,3.7364,3.6645,3.6052,3.5605,3.5306,3.4857,3.4441,3.3988,3.3365,3.2283,3.0083,2.8374,2.7278,2.5092,2.384,2.384,2.384,2.384,2.384,2.384,2.384,2.384,2.384,2.3187,2.22,2.22,2.1222,1.9592,1.8454,1.7147,1.5843,1.4863,1.4052,1.3403,1.3403,1.3403,1.3403,1.3403,1.3065,1.2733,0.0,0.0,0.0,0.0,0.0,0.0,0.0,0.0,0.0,0.0,0.0,0.0,0.0,0.0,0.0,0.0,0.0,0.0,4.1324,4.1324,4.1324,4.1324,4.1324,4.1324,4.1324,4.1324,4.1324,4.1324,4.1324,4.1324,4.1324,4.1507,4.1794,4.2186,4.2552,4.3232,4.4173,4.48,4.5689,4.6787,4.7179,4.7675,0.0,0.0,0.0,0.0,0.0,0.0,0.0,0.0,4.8172,4.8146,4.7989,4.7257,4.6447,4.5901,4.5167,4.4428,4.4068,4.3813,4.3671,4.3235,4.2919,4.2696,4.2339,4.2339,4.2339,4.2339,4.2454,4.2821,4.3648,4.3946,4.3511,4.1805,4.1084,3.9941,3.7364,3.6497,3.6052,3.5754,3.5306,3.4857,3.4574,3.4139,3.3061,3.1501,2.9774,2.8061,2.6346,2.4786,2.384,2.384,2.384,2.384,2.384,2.384,2.352,2.3027,2.3027,2.2361,2.1222,2.0565,1.943,1.7638,1.65,1.5679,1.5028,1.3894,1.3403,1.3403,1.3403,1.3403,1.3403,1.3403,1.3065,1.2567,0.0,0.0,0.0,0.0,0.0,0.0,0.0,0.0,0.0,0.0,0.0,0.0,0.0,0.0,0.0,0.0,0.0,0.0,4.1324,4.1324,4.1324,4.1324,4.1324,4.1324,4.1324,4.1324,4.1324,4.1324,4.1324,4.1324,4.1324,4.1899,4.2186,4.2239,4.3363,4.4199,4.4774,4.5375,4.629,4.7336,4.7336,4.7675,4.8172,0.0,0.0,0.0,0.0,0.0,0.0,0.0,4.8172,4.8068,4.7492,4.6917,4.623,4.4622,4.4193,4.4068,4.3721,4.4028,4.4328,4.3907,4.3802,4.3553,4.2593,4.2339,4.2339,4.2339,4.2729,4.3234,4.3716,4.4245,4.421,4.3309,4.1813,4.0228,3.8641,3.7217,3.6201,3.6201,3.5456,3.5007,3.5007,3.4273,3.3061,3.1331,2.9774,2.8061,2.6346,2.4627,2.384,2.384,2.384,2.384,2.384,2.384,2.2854,2.1222,2.1211,2.1222,2.106,1.943,1.7647,1.6008,1.6008,1.5028,1.3403,1.3403,1.3403,1.3403,1.3403,1.3403,1.3403,1.3403,1.2899,1.2069,0.0,0.0,0.0,0.0,0.0,0.0,0.0,0.0,0.0,0.0,0.0,0.0,0.0,0.0,0.0,0.0,0.0,0.0,4.1324,4.1324,4.1324,4.1324,4.1324,4.1324,4.1324,4.1324,4.1324,4.1324,4.1324,4.1533,4.1925,4.2082,4.2605,4.3389,4.3729,4.4434,4.5401,4.5976,4.6656,4.7362,4.778,4.8041,4.8172,0.0,0.0,0.0,0.0,0.0,0.0,0.0,0.0,0.0,4.6917,4.6342,4.5623,4.452,4.4193,4.384,4.2923,4.2952,4.3235,4.2809,4.2696,4.2719,4.2339,4.2339,4.2339,4.2339,4.2729,4.3234,4.3716,4.3399,4.2645,4.1587,4.0228,3.8641,3.707,3.6497,3.6201,3.6201,3.5456,3.5007,3.5007,3.318,3.1331,2.9619,2.8061,2.6346,2.4627,2.4,2.384,2.384,2.384,2.384,2.384,2.384,2.2854,2.1222,1.9917,1.8779,1.7474,1.6983,1.5851,1.4217,1.4217,1.3894,1.3403,1.3403,1.3403,1.3403,1.3403,1.3403,1.3403,1.3403,1.2899,1.2069,0.0,0.0,0.0,0.0,0.0,0.0,0.0,0.0,0.0,0.0,4.6077,4.5805,0.0,0.0,0.0,0.0,0.0,0.0,0.0,4.218,4.2004,4.2004,4.2004,4.2004,4.2004,4.2004,4.2004,4.2004,4.1768,4.1821,4.2186,4.2631,4.3206,4.3885,4.4356,4.5088,4.6003,4.6578,4.7153,4.7702,4.8041,4.8172,4.8172,0.0,0.0,0.0,0.0,0.0,0.0,0.0,0.0,0.0,4.6316,4.5898,4.5389,4.4469,4.437,4.4192,4.2856,4.2922,4.3151,4.25,4.2339,4.2339,4.2339,4.2339,4.2339,4.2339,4.289,4.3464,4.3762,4.3152,4.2171,4.1042,3.951,3.7932,3.6349,3.6201,3.6201,3.5903,3.5456,3.4707,3.3785,3.225,3.0408,2.7905,2.6806,2.5568,2.384,2.384,2.384,2.384,2.384,2.384,2.384,2.384,2.2533,2.0079,1.9105,1.7319,1.5028,1.5028,1.4375,1.3403,1.3403,1.3403,1.3403,1.3403,1.3403,1.3403,1.3403,1.3403,1.3403,1.3403,1.2899,1.2401,0.0,0.0,4.8177,4.7578,0.0,0.0,0.0,0.0,0.0,0.0,4.6727,4.6665,0.0,0.0,0.0,0.0,0.0,0.0,0.0,4.3489,4.3023,4.3023,4.3023,4.3023,4.3023,4.3023,4.3023,4.3023,4.25,4.2265,4.2343,4.3389,4.3938,4.4068,4.5166,4.5976,4.6578,4.71,4.7675,4.8172,4.8172,4.8172,4.8172,4.812,0.0,0.0,0.0,0.0,0.0,0.0,0.0,0.0,4.5715,4.5584,4.5389,4.4495,4.4561,4.4653,4.3216,4.3274,4.3428,4.2593,4.2339,4.2339,4.2339,4.2339,4.2339,4.2339,4.3119,4.3808,4.3677,4.3262,4.2376,4.08,3.9365,3.7786,3.6349,3.6201,3.6052,3.5754,3.5157,3.4087,3.2097,3.1331,2.9619,2.6504,2.6188,2.5409,2.384,2.384,2.384,2.384,2.384,2.384,2.384,2.368,2.1878,1.8626,1.8463,1.6664,1.3403,1.3403,1.3403,1.3403,1.3403,1.3403,1.3403,1.3403,1.3403,1.3403,1.3403,1.3403,1.3403,1.3403,1.3065,1.2567,0.0,0.0,4.9015,4.8865,0.0,0.0,0.0,0.0,0.0,0.0,0.0,0.0,0.0,0.0,0.0,0.0,0.0,0.0,0.0,4.3127,4.3023,4.3023,4.3023,4.3023,4.3023,4.3023,4.3023,4.3023,4.2892,4.3075,4.352,4.3755,4.4356,4.5271,4.5506,4.6186,4.7153,4.7283,4.7675,4.8172,4.8172,4.8172,4.8146,4.7675,4.7519,0.0,0.0,0.0,0.0,0.0,0.0,0.0,4.5114,4.5245,4.5278,4.3651,4.3746,4.4179,4.238,4.2302,4.257,4.2339,4.2339,4.2339,4.2339,4.2339,4.2339,4.2339,4.3119,4.3413,4.2327,4.1593,4.08,3.9221,3.7639,3.6645,3.6201,3.6201,3.6201,3.6052,3.4221,3.2842,3.2386,2.9293,2.712,2.6346,2.5092,2.416,2.384,2.384,2.384,2.384,2.384,2.384,2.384,2.2361,2.0737,1.8626,1.7147,1.5522,1.3403,1.3403,1.3403,1.3403,1.3403,1.3403,1.3403,1.3403,1.3403,1.3403,1.3403,1.3403,1.3403,1.3403,1.3065,1.2567,0.0,0.0,0.0,0.0,0.0,0.0,0.0,0.0,0.0,0.0,0.0,0.0,0.0,0.0,0.0,0.0,4.8114,4.7137,4.5527,4.4935,4.4335,4.3833,4.3833,4.3833,4.3833,4.3833,4.3833,4.3833,4.3833,4.3859,4.3885,4.4147,4.4748,4.5637,4.5924,4.6525,4.7362,4.7623,4.7911,4.8146,4.7885,4.778,4.7728,4.7127,4.6917,4.6839,4.6264,0.0,0.0,0.0,0.0,0.0,0.0,0.0,4.5493,4.5107,4.5087,4.4878,4.3695,4.3239,4.2949,4.2466,4.2339,4.2339,4.2339,4.2339,4.2339,4.2339,4.3119,4.3413,4.1924,4.1177,4.0228,3.8787,3.7217,3.6201,3.6201,3.6201,3.5754,3.4521,3.3297,3.1759,2.9743,2.7591,2.603,2.5092,2.4308,2.384,2.384,2.384,2.384,2.384,2.384,2.3348,2.2533,2.1706,1.9917,1.7311,1.65,1.5028,1.3403,1.3403,1.3403,1.3403,1.3403,1.3403,1.3403,1.3403,1.3403,1.3403,1.3403,1.3403,1.3403,1.3403,1.3231,1.2906,0.0,0.0,0.0,0.0,0.0,0.0,0.0,0.0,0.0,0.0,0.0,0.0,0.0,0.0,5.0538,0.0,0.0,0.0,4.8066,4.6971,4.5847,4.4722,4.4722,4.4722,4.4722,4.4722,4.4722,4.4722,4.4722,4.4487,4.4042,4.4617,4.5192,4.5794,4.6369,4.6944,4.7519,4.7989,4.812,4.7989,4.7519,4.7283,4.7127,4.6552,4.6316,4.6264,4.5689,4.5532,4.5558,4.5062,0.0,0.0,0.0,0.0,4.5995,4.659,4.6345,4.5698,4.4915,4.4175,4.3326,4.2466,4.2339,4.2339,4.2339,4.2339,4.2339,4.2339,4.2792,4.2903,4.1499,4.0696,3.986,3.835,3.707,3.6201,3.6201,3.6201,3.5438,3.3449,3.2538,3.0685,2.7264,2.6346,2.5251,2.384,2.384,2.384,2.384,2.384,2.384,2.384,2.384,2.3015,2.1222,2.0888,1.9105,1.6008,1.5679,1.4871,1.3403,1.3403,1.3403,1.3403,1.3403,1.3403,1.3403,1.3403,1.3403,1.3403,1.3403,1.3403,1.3403,1.3403,1.3231,1.2906,0.0,0.0,0.0,0.0,0.0,0.0,0.0,0.0,0.0,0.0,5.096,5.099,0.0,5.1079,5.0733,4.9902,4.9708,4.912,4.8066,0.0,0.0,4.4722,4.4722,4.4722,4.4722,4.4722,4.4722,4.4722,4.4722,4.4696,4.4617,4.5218,4.582,4.6395,4.697,4.7545,4.8068,4.8146,4.7911,4.744,4.7362,4.7022,4.6525,4.595,4.5741,4.5663,4.5062,4.5192,4.5611,4.5532,4.5846,0.0,0.0,0.0,4.6783,4.5229,4.5031,4.4939,4.3177,4.2593,4.2466,4.2339,4.2339,4.2339,4.2339,4.2339,4.2339,4.2339,4.1849,4.0998,3.9783,3.8889,3.7942,3.6719,3.6349,3.6201,3.6201,3.6201,3.6052,3.5754,3.2505,3.0053,2.9589,2.6175,2.4,2.384,2.384,2.384,2.384,2.384,2.384,2.384,2.384,2.3015,2.1222,1.9755,1.7964,1.6008,1.4541,1.3562,1.3403,1.3403,1.3403,1.3403,1.3403,1.3403,1.3403,1.3403,1.3403,1.3403,1.3403,1.3403,1.3403,1.3403,1.2395,1.1225,0.0,0.0,0.0,0.0,0.0,0.0,0.0,0.0,0.0,0.0,0.0,5.1229,5.1229,5.1229,5.1011,5.0508,5.0508,4.9805,4.8066,4.6347,4.5235,4.4722,4.4722,4.4722,4.4722,4.4722,4.4722,4.4722,4.4722,4.4722,4.4748,4.5349,4.5924,4.6499,4.7074,4.7466,4.7702,4.7702,4.7388,4.6813,4.6499,4.6238,4.595,4.5349,4.5323,4.5584,4.5323,4.5611,4.6107,4.6107,4.6264,4.6525,4.6865,0.0,0.0,0.0,4.5085,4.4175,4.2696,4.2339,4.2339,4.2339,4.2339,4.2339,4.2339,4.2339,4.2084,4.1271,4.0236,3.939,3.9309,3.8568,3.7595,3.6442,3.6201,3.6201,3.6201,3.6201,3.5736,3.4654,3.1879,2.9574,2.8345,2.5555,2.384,2.384,2.384,2.384,2.384,2.384,2.384,2.384,2.2854,2.1556,1.9755,1.7964,1.6336,1.4541,1.3728,1.3403,1.3403,1.3403,1.3403,1.3403,1.3403,1.3403,1.3403,1.3403,1.3403,1.3403,1.3403,1.3403,1.3231,1.2229,1.1392,1.056,0.0,0.0,0.0,0.0,0.0,0.0,0.0,0.0,0.0,0.0,0.0,5.1229,5.1229,0.0,0.0,0.0,5.1229,5.0412,4.8496,4.666,4.5449,4.5127,4.483,4.4722,4.4722,4.4722,4.4722,4.4722,4.4722,4.4722,4.4748,4.5349,4.5846,4.629,4.6865,4.7205,4.7336,4.7179,4.6787,4.6212,4.5571,4.52,4.5019,4.4332,4.4325,4.4738,4.5115,4.5641,4.6134,4.6543,4.6787,4.6996,4.7414,4.685,0.0,0.0,0.0,4.32,4.2466,4.2339,4.2339,4.2339,4.2339,4.2339,4.2339,4.2061,4.1527,4.0473,3.8729,3.7779,3.8438,3.7845,3.6865,3.6128,3.6146,3.6201,3.6201,3.6201,3.5438,3.3566,3.1268,2.9279,2.7264,2.5092,2.384,2.384,2.384,2.384,2.384,2.384,2.384,2.384,2.2039,2.0403,1.8626,1.65,1.4706,1.3403,1.3403,1.3403,1.3403,1.3403,1.3403,1.3403,1.3403,1.3403,1.3403,1.3403,1.3403,1.3403,1.3403,1.3065,1.2561,1.1225,1.0221,0.9388,0.0,0.0,0.0,0.0,0.0,0.0,0.0,0.0,0.0,0.0,0.0,5.1229,5.1229,5.1229,5.1229,5.1229,5.1229,5.0728,4.9611,4.8496,4.7383,4.6374,4.5235,0.0,4.4722,4.4722,4.4722,4.4722,4.4722,4.4722,4.4748,4.5349,4.5637,4.5689,4.6264,4.6813,4.731,4.6761,4.6186,4.5552,4.472,4.4051,4.3432,4.2488,4.215,4.2362,4.384,4.4713,4.5362,4.6757,4.7649,4.8094,4.812,4.7534,4.644,0.0,0.0,0.0,4.2339,4.2339,4.2339,4.2339,4.2339,4.2339,4.2339,4.1271,4.0344,4.0192,3.7934,3.6094,3.6523,3.5887,3.5336,3.5577,3.5962,3.6201,3.6201,3.6201,3.5587,3.3919,3.159,2.9434,2.7748,2.5251,2.384,2.384,2.384,2.384,2.384,2.384,2.384,2.384,2.2039,2.0403,1.8626,1.5201,1.3569,1.3403,1.3403,1.3403,1.3403,1.3403,1.3403,1.3403,1.3403,1.3403,1.3403,1.3403,1.3403,1.3403,1.3403,1.2395,1.0893,1.0726,0.8887,0.6717,0.0,0.0,0.0,0.0,0.0,0.0,0.0,0.0,0.0,0.0,0.0,0.0,0.0,5.1229,5.1229,5.1229,4.9902,4.8993,4.8596,4.6867,4.5741,4.5342,4.4938,4.4722,4.4722,4.4722,4.4722,4.4722,4.4722,4.4722,4.4722,4.4957,4.5271,4.5663,4.6212,4.6395,4.6212,4.6029,4.5584,4.4926,4.4045,4.3584,4.327,4.2351,4.2454,4.3069,4.3639,4.4869,4.6264,4.6729,4.7026,4.7205,4.7205,4.6105,4.4669,4.3678,4.2822,4.2339,4.2339,4.2339,4.2339,4.2339,4.2339,4.2061,4.1142,4.0603,3.967,3.7801,3.6614,3.5724,3.4935,3.4852,3.5155,3.5559,3.5944,3.6201,3.6201,3.6201,3.5587,3.407,3.159,2.9434,2.7748,2.5251,2.384,2.384,2.384,2.384,2.384,2.384,2.384,2.384,2.106,1.8137,1.5365,1.4052,1.3403,1.3403,1.3403,1.3403,1.3403,1.3403,1.3403,1.3403,1.3403,1.3403,1.3403,1.3403,1.3403,1.3403,1.3403,1.2229,1.0554,0.9388,0.7547,0.5541,0.0,0.0,0.0,0.0,0.0,0.0,0.0,0.0,0.0,5.1229,0.0,0.0,0.0,0.0,5.1229,5.1229,4.9902,4.8894,4.8596,4.6867,4.5635,4.5235,4.4938,4.4722,4.4722,4.4722,4.4722,4.4722,4.4722,4.4722,4.4722,4.4722,4.4931,4.5349,4.5715,4.5794,4.5611,4.5401,4.5088,4.4613,4.3381,4.3285,4.3574,4.2307,4.2616,4.3659,4.3856,4.473,4.5855,4.5619,4.5547,4.5547,4.5547,4.4743,4.3553,4.2593,4.2339,4.2339,4.2339,4.2339,4.2339,4.2339,4.2477,4.2139,4.0495,3.9931,3.9073,3.6384,3.5549,3.4883,3.3937,3.4367,3.4954,3.5357,3.576,3.6054,3.6182,3.6201,3.5438,3.3297,3.1284,2.9123,2.6977,2.4945,2.384,2.384,2.384,2.384,2.384,2.384,2.3187,2.205,1.9277,1.6336,1.3397,1.3403,1.3403,1.3403,1.3403,1.3403,1.3403,1.3403,1.3403,1.3403,1.3403,1.3403,1.3403,1.3403,1.3403,1.3403,1.2727,1.1392,0.9555,0.7714,0.6041,0.4199,0.0,0.0,0.0,0.0,0.0,0.0,0.0,0.0,5.1229,5.1229,0.0,0.0,0.0,0.0,0.0,5.1229,5.1105,5.0632,4.9611,4.8496,4.7485,4.6374,4.5235,4.4722,4.4722,4.4722,4.4722,4.4722,4.4722,4.4722,4.4722,4.4722,4.4722,4.4722,4.4722,4.5062,4.5558,4.4983,4.4722,4.4505,4.2824,4.2949,4.4042,4.2176,4.2396,4.3757,4.4274,4.4495,4.4304,4.3469,4.3114,4.3114,4.3114,4.3458,4.3553,4.2593,4.2339,4.2339,0.0,0.0,0.0,4.2339,4.2706,4.2548,4.0583,3.9375,3.8221,3.6171,3.4746,3.3817,3.3817,3.4128,3.4513,3.4935,3.5357,3.576,3.6146,3.6201,3.4971,3.1606,3.0515,2.8671,2.5435,2.4332,2.384,2.384,2.384,2.384,2.384,2.368,2.2211,1.8789,1.6983,1.5193,1.3403,1.3403,1.3403,1.3403,1.3403,1.3403,1.3403,1.3403,1.3403,1.3403,1.3403,1.3403,1.3403,1.3403,1.3397,1.3231,1.1392,0.9555,0.7714,0.6041,0.4199,0.2692,0.0,0.0,0.0,0.0,0.0,5.1695,5.1509,5.1479,5.1416,0.0,0.0,0.0,5.1229,5.1229,5.1229,5.1229,4.9805,4.8795,4.8496,4.666,4.5449,4.5127,4.483,4.4722,4.4722,4.4722,4.4722,4.4722,4.4722,4.4722,4.4722,4.4722,4.4722,4.4722,4.4722,4.4826,4.4957,4.48,4.4722,4.4639,4.395,4.3526,4.3103,4.2351,4.211,4.2216,4.238,4.3156,4.3983,4.3707,4.363,4.3505,4.2776,4.2673,4.2696,4.2339,4.2339,4.2339,4.2339,0.0,0.0,0.0,0.0,0.0,3.9099,3.7881,3.6602,3.4703,3.4075,3.3817,3.3817,3.3908,3.411,3.4513,3.5155,3.565,3.576,3.4961,3.36,3.1606,2.9743,2.7905,2.5753,2.4811,2.4332,2.4332,2.4012,2.384,2.384,2.2533,2.0899,1.8626,1.6983,1.5193,1.3403,1.3403,1.3403,1.3403,1.3403,1.3403,1.3403,1.3403,1.3403,1.3403,1.3403,1.3403,1.3403,1.3403,1.2567,1.1392,1.0893,0.8883,0.6041,0.5538,0.4199,0.2524,0.0,0.0,5.2306,5.2306,5.2155,5.2002,5.1787,5.1787,5.1695,0.0,0.0,0.0,5.1416,5.1323,5.1229,5.1229,5.0095,4.8993,4.8066,4.6764,4.5635,4.4722,4.4722,4.4722,4.4722,4.4722,4.4722,4.4722,4.4722,4.4722,4.4722,4.4722,4.4722,4.4722,4.4722,4.4722,4.4748,4.5009,4.5114,4.5005,4.4091,4.3811,4.4028,4.3024,4.2875,4.298,4.1959,4.252,4.3404,4.1181,4.0924,4.1332,4.071,4.1399,4.2339,4.2339,4.2339,4.2339,4.2339,4.2339,4.2257,4.1775,0.0,0.0,3.8057,3.7074,3.6263,3.4205,3.3817,3.3817,3.3817,3.3817,3.389,3.411,3.4697,3.5174,3.5357,3.4345,3.291,3.1245,2.9359,2.7435,2.5753,2.497,2.4492,2.4172,2.4012,2.384,2.384,2.1394,1.9592,1.8626,1.6172,1.4375,1.3403,1.3403,1.3403,1.3403,1.3403,1.3403,1.3403,1.3403,1.3403,1.3403,1.3403,1.3403,1.3403,1.2561,1.1724,1.0554,0.9049,0.7208,0.5371,0.4535,0.353,0.2692,0.0,0.0,5.2306,5.2306,5.2155,5.1972,5.1972,5.1972,5.2002,0.0,5.2002,5.188,5.1572,5.1416,5.1229,5.1229,5.1011,5.0095,4.8167,4.7892,4.6867,4.483,4.4722,4.4722,4.4722,4.4722,4.4722,4.4722,4.4722,4.4722,4.4722,4.4722,4.4722,4.4722,4.4722,4.4722,4.4774,4.5375,4.5552,4.5382,4.3801,4.4195,4.5565,4.3796,4.3866,4.4645,4.2328,4.2351,4.2627,3.778,3.7018,3.8067,3.8333,3.9932,4.1934,4.2212,4.2212,4.2061,4.2212,4.2339,4.2048,4.1045,4.1017,0.0,3.7213,3.6774,3.6432,3.4242,3.3817,3.3817,3.3817,3.3817,3.3817,3.3817,3.411,3.4477,3.4899,3.381,3.2408,3.0942,2.907,2.725,2.5435,2.4811,2.4332,2.4012,2.384,2.368,2.352,2.0413,1.8463,1.83,1.5201,1.3403,1.3403,1.3403,1.3403,1.3403,1.3403,1.3403,1.3403,1.3403,1.3403,1.3403,1.3403,1.3403,1.3231,1.1225,1.0388,1.0055,0.671,0.5203,0.4868,0.3363,0.2692,0.2524,5.2698,5.2518,5.2397,5.2608,5.2427,5.2215,5.2215,5.2215,5.2124,5.2002,5.2002,5.188,5.1572,5.1572,5.1416,5.1229,4.9999,4.8894,4.8066,4.7205,4.6085,4.4722,4.518,4.5154,4.4722,4.4722,4.4722,4.4722,4.4722,4.4722,4.4722,4.4722,4.4722,4.4722,4.4722,4.4722,4.4774,4.5375,4.5426,4.5183,4.5294,4.4985,4.4615,4.3962,4.3357,4.2696,4.1097,4.071,4.0581,3.8465,3.7801,3.8333,3.9387,3.9408,3.9408,4.1655,4.1527,4.0862,4.1934,4.2339,4.2048,4.1045,4.0323,0.0,3.6956,3.5952,3.5074,3.3982,3.3817,3.3817,3.3817,3.3817,3.3817,3.3817,3.3872,3.4073,3.4477,3.2373,3.0772,3.0759,2.8125,2.6276,2.6215,2.5448,2.497,2.4811,2.4172,2.3187,2.1717,1.9755,1.7973,1.6492,1.4541,1.3403,1.3403,1.3403,1.3403,1.3403,1.3403,1.3403,1.3403,1.3403,1.3403,1.3403,1.3403,1.3403,1.3231,0.9888,0.8553,0.8382,0.6208,0.4535,0.3195,0.2861,0.2188,0.1682,5.2698,5.2608,5.2518,5.2698,5.2608,5.2518,5.2518,5.2518,5.2427,5.2337,5.2246,5.2155,5.1941,5.1479,5.1105,5.1011,4.9931,4.8923,4.8094,4.7513,4.6714,4.5582,4.5795,4.5901,4.5582,4.5582,4.5582,4.5582,4.5582,4.5368,4.5154,4.5154,4.4722,4.4068,4.4505,4.4661,4.4531,4.5571,4.5804,4.5396,4.5204,4.4738,4.3914,4.2534,4.1633,4.0991,3.8882,3.7534,3.7018,3.7018,3.7534,3.8067,3.8067,3.8597,3.9408,4.0862,4.0732,4.0473,4.1934,4.1987,4.1283,4.0051,3.8945,0.0,0.0,3.5116,3.455,3.3945,3.3678,3.3539,3.3539,3.34,3.326,3.326,3.34,3.3332,3.2791,3.1098,3.0076,3.0251,2.7582,2.5852,2.5819,2.5387,2.5135,2.4798,2.4172,2.3359,2.2533,2.0089,1.8128,1.7311,1.4706,1.3403,1.3403,1.3403,1.3403,1.3403,1.3403,1.3403,1.3403,1.3403,1.3403,1.3403,1.3403,1.2899,1.189,0.9054,0.7547,0.6543,0.4703,0.353,0.2692,0.2692,0.2187,0.1346,5.2698,5.2698,5.2698,5.2698,5.2698,5.2698,5.2698,5.2698,5.2698,5.2698,5.2306,5.2002,5.1911,5.0952,5.0287,4.9969,4.9386,4.8596,4.7689,4.7587,4.7205,4.6428,4.6533,4.6533,4.6428,4.6428,4.6428,4.6428,4.6323,4.6007,4.5609,4.5502,4.4883,4.4002,4.4442,4.4668,4.4899,4.5943,4.6091,4.5565,4.4519,4.3988,4.3553,4.1097,4.0192,3.9801,3.6884,3.5021,3.4094,3.5412,3.6749,3.7534,3.6884,3.7934,3.954,4.0344,4.0192,4.0192,4.1806,4.1562,4.0385,3.902,3.7806,3.6591,0.0,0.0,0.0,3.389,3.3539,3.3278,3.3278,3.2981,3.2755,3.2914,3.3088,3.2755,3.173,3.0274,2.9372,2.9143,2.6908,2.5391,2.5205,2.5127,2.4943,2.4393,2.3976,2.368,2.3348,2.0251,1.8463,1.8128,1.5036,1.3403,1.3403,1.3403,1.3403,1.3403,1.3403,1.3403,1.3403,1.3403,1.3403,1.3403,1.3403,1.2395,1.0554,0.872,0.7045,0.5203,0.3363,0.2692,0.2692,0.2692,0.2187,0.1178,5.2698,5.2698,5.2698,5.2698,5.2698,5.2698,5.2698,5.2698,5.2698,5.2698,5.1604,5.0798,5.0544,4.9455,4.8239,4.7114,4.6523,4.6134,4.6056,4.611,4.6269,4.6428,4.6873,4.6977,4.6428,4.6428,4.6428,4.6428,4.5901,4.5715,4.5609,4.5046,4.5336,4.6137,4.4763,4.521,4.7039,4.6283,4.549,4.447,4.362,4.3512,4.3553,4.1097,4.0192,3.9801,3.6884,3.5021,3.4094,3.5412,3.5957,3.6614,3.9014,3.82,3.7153,4.1013,4.0322,3.8861,4.155,4.1315,3.9996,3.8937,3.7585,3.6224,3.4685,0.0,3.4293,3.389,0.0,3.3278,3.3278,0.0,0.0,3.3624,3.3163,3.295,3.3335,3.0533,2.7946,2.7231,2.5977,2.5086,2.4918,2.4856,2.4553,2.412,2.3866,2.3187,2.1545,1.9592,1.7964,1.6336,1.4375,1.3403,1.3403,1.3403,1.3403,1.3403,1.3403,1.3403,1.3403,1.3403,1.3403,1.3403,1.3403,1.2395,1.0554,0.872,0.7045,0.5203,0.3363,0.2692,0.2692,0.2692,0.2187,0.1178,5.2698,5.2698,5.2698,5.2698,5.2698,5.2698,5.2698,5.2698,5.2698,5.2698,5.2215,5.1819,5.1727,5.0449,4.9034,4.7696,4.655,4.5872,4.5872,4.5899,4.6374,4.7391,4.7596,4.7596,4.7391,4.7391,4.7391,4.7391,4.7184,4.6933,4.6624,4.6303,4.6055,4.5607,4.4928,4.5005,4.577,4.5816,4.5147,4.3962,4.3316,4.2534,4.1482,3.8729,3.7153,3.6344,3.5158,3.4352,3.3955,3.449,3.5821,3.7153,3.6614,3.6749,3.74,3.8333,3.7801,3.7266,3.9277,3.8191,3.6581,3.7029,3.5262,3.3711,3.3952,3.4055,3.4018,3.3853,0.0,0.0,0.0,0.0,0.0,0.0,3.2473,3.2086,3.1557,2.9553,2.797,2.7539,2.5524,2.4331,2.4618,2.4598,2.4456,2.4146,2.3781,2.3293,2.2475,2.0986,1.9267,1.7638,1.5851,1.4375,1.3403,1.3403,1.3403,1.3403,1.3403,1.3403,1.3403,1.3403,1.3403,1.3403,1.2229,1.0893,0.9054,0.7212,0.5373,0.3698,0.3027,0.2692,0.2692,0.2692,0.2187,0.1178,5.2698,5.2698,5.2698,5.2698,5.2698,5.2698,5.2698,5.2698,5.2698,5.2698,5.2397,5.2094,5.1819,5.0132,4.8382,4.6854,4.5395,4.4509,4.4699,4.5022,4.5794,4.6791,4.7671,4.7903,4.7466,4.7903,4.8218,4.8387,4.8154,4.7944,4.7568,4.7568,4.6994,4.5974,4.563,4.5472,4.5385,4.5648,4.4792,4.313,4.2385,4.0578,3.82,3.6614,3.5021,3.3817,3.3817,3.3817,3.3817,3.4214,3.5821,3.7132,3.5549,3.5782,3.6689,3.6034,3.5199,3.4907,3.6958,3.5489,3.386,3.5451,3.3945,3.2419,3.3593,3.3817,3.3817,3.3817,3.34,0.0,0.0,0.0,3.191,3.1976,0.0,3.1044,3.0098,2.8335,2.7201,2.7346,2.4891,2.3527,2.4181,2.415,2.401,2.401,2.3655,2.3369,2.3454,2.2009,2.0502,1.9267,1.7147,1.5358,1.4052,1.3562,1.3403,1.3403,1.3403,1.3403,1.3403,1.3403,1.3403,1.3231,1.1558,0.9721,0.7885,0.6041,0.4367,0.2692,0.2692,0.2692,0.2692,0.2692,0.2187,0.1178,5.2698,5.2698,5.2698,5.2698,5.2698,5.2698,5.2698,5.2698,5.2698,5.2698,5.1604,5.0514,4.9776,4.7169,4.4888,4.3194,4.1672,4.11,4.1623,4.2947,4.383,4.383,4.6583,4.7466,4.6032,4.7363,4.8415,4.9005,4.8486,4.8157,4.8165,4.8192,4.8188,4.8053,4.7117,4.7082,4.7457,4.596,4.3979,4.167,4.019,3.7319,3.4075,3.5412,3.5021,3.3817,3.3817,3.3817,3.3937,3.5412,3.5957,3.6209,3.7534,3.5995,3.4046,3.5394,3.356,3.1617,3.4967,3.4576,3.3513,3.5374,3.4746,3.3678,3.3817,3.3817,3.3817,3.3817,3.326,3.2701,3.2701,3.214,3.1799,3.2535,3.071,0.0,0.0,2.7172,2.4891,2.5198,2.3883,2.3005,2.3451,2.3254,2.3265,2.3265,2.3218,2.3176,2.3442,2.1681,2.0985,2.105,1.7801,1.6008,1.5843,1.4217,1.3403,1.3403,1.3403,1.3403,1.3403,1.3403,1.3403,1.3231,1.1558,0.9721,0.7885,0.6041,0.4367,0.2692,0.2692,0.2692,0.2692,0.2692,0.2187,0.1178,5.2698,5.2698,5.2698,5.2698,5.2698,5.2698,5.2698,5.2698,5.2397,5.1512,5.0455,4.9407,4.8226,4.6261,4.4487,4.2871,4.1825,4.1305,4.1509,4.2836,4.372,4.372,4.6964,4.8048,4.6491,4.8332,4.9454,4.9651,4.9442,4.9431,4.9337,4.9036,4.8807,4.8779,4.7367,4.6527,4.6105,4.5525,4.3482,4.0559,3.8026,3.6324,3.5158,3.4746,3.4214,3.3817,3.3817,3.3817,3.3817,3.4352,3.5158,3.5821,3.5412,3.4533,3.3513,3.282,3.0983,2.9567,3.0385,2.925,2.8567,3.172,3.1316,3.0626,3.3224,3.3817,3.3817,3.3817,3.34,3.2999,3.2719,3.2263,3.1928,3.1902,3.0414,2.9329,0.0,2.6779,2.4314,2.3438,2.3005,2.3005,2.3005,2.3229,2.3279,2.2992,2.3088,2.312,2.2923,2.2602,2.1862,2.0974,1.874,1.7025,1.6008,1.4217,1.3403,1.3403,1.3403,1.3403,1.3403,1.3403,1.3403,1.3231,1.0221,0.8553,0.7718,0.487,0.3195,0.2692,0.2692,0.2692,0.2692,0.2692,0.2525,0.2021,5.2698,5.2698,5.2698,5.2698,5.2698,5.2698,5.2698,5.2306,5.1697,5.0798,4.9852,4.8595,4.7086,4.5527,4.3919,4.2426,4.1371,4.1033,4.1776,4.2687,4.3325,4.3526,4.6107,4.7001,4.5519,4.792,4.9245,4.9467,5.0057,5.0178,4.9996,4.9774,4.9405,4.8726,4.7886,4.6704,4.5281,4.5281,4.2981,3.9125,3.6344,3.5139,3.5021,3.4214,3.4075,3.449,3.3937,3.3817,3.3817,3.3817,3.4352,3.5021,3.4075,3.3049,3.1843,3.061,2.8613,2.6896,2.7316,2.6314,2.5876,2.9028,2.8884,2.8884,3.207,3.2788,3.2788,3.2788,3.2666,3.2123,3.1101,3.1101,3.0977,3.0107,2.9091,2.7939,0.0,2.5038,2.3438,2.2408,2.2558,2.2707,2.2856,2.3005,2.3005,2.3005,2.3017,2.2851,2.2949,2.2967,2.2555,2.1693,1.9394,1.7736,1.6726,1.4518,1.3403,1.3403,1.3403,1.3403,1.3403,1.3403,1.3065,1.2229,0.9221,0.7714,0.6878,0.3866,0.2692,0.2692,0.2692,0.2524,0.2188,0.2525,0.2357,0.1516,5.2698,5.2698,5.2698,5.2698,5.2698,5.2698,5.2698,5.1604,5.0704,5.0609,4.9397,4.7853,4.6134,4.4702,4.3093,4.1533,4.0106,4.0223,4.2195,4.2336,4.2579,4.309,4.4518,4.4518,4.3044,4.6143,4.7913,4.8588,5.0212,5.0682,5.0123,5.0572,4.9897,4.8289,4.8726,4.7652,4.5281,4.5281,4.2454,3.7801,3.5021,3.3817,3.3955,3.3817,3.4609,3.5685,3.4352,3.3817,3.3817,3.3817,3.3817,3.3817,3.3817,3.1649,2.9202,2.9202,2.6474,2.3735,2.5625,2.5611,2.5437,2.7446,2.7863,2.831,3.0326,3.0768,3.0768,3.0768,3.0785,3.0091,2.7909,2.8804,2.9107,2.7201,2.691,2.5744,2.2694,2.2259,2.2259,2.2259,2.2259,2.2408,2.2856,2.2558,2.2707,2.329,2.2707,2.2668,2.3215,2.2937,2.2754,2.3007,1.9768,1.8135,1.8154,1.4944,1.3397,1.3403,1.3403,1.3403,1.3403,1.3403,1.2395,1.0554,0.872,0.7045,0.5203,0.3363,0.2692,0.2692,0.2692,0.2188,0.1514,0.219,0.1516,-0.0,5.2698,5.2698,5.2698,5.2698,5.2698,5.2698,5.2698,5.1604,5.0294,4.93,4.6881,4.4702,4.328,4.1509,4.055,4.0504,4.0075,4.0306,4.1154,4.2209,4.24,4.1509,4.4308,4.5213,4.3698,4.7106,4.9045,4.9206,5.074,5.1537,5.1348,5.0572,5.001,4.9442,4.8003,4.6585,4.5281,4.4546,4.1843,3.7801,3.5021,3.449,3.5275,3.4214,3.4609,3.5685,3.4352,3.3817,3.3817,3.3817,3.3817,3.3817,3.3817,3.1649,2.9059,2.8454,2.6022,2.3438,2.329,2.3141,2.3413,2.5437,2.5876,2.6299,2.831,2.8741,2.8741,2.8741,2.8613,2.8341,2.8053,2.866,2.8947,2.749,2.6196,2.4449,2.2558,2.2259,2.2259,2.2259,2.2558,2.2707,2.2408,2.2856,2.3154,2.3005,2.3154,2.303,2.2955,2.2655,2.2011,2.1022,1.8912,1.7372,1.6394,1.4342,1.3288,1.3403,1.3403,1.3403,1.3403,1.3403,1.2395,1.0554,0.872,0.7045,0.5203,0.3363,0.2692,0.2692,0.2692,0.2525,0.219,0.1179,0.0337,-0.0,5.2698,5.2698,5.2698,5.2698,5.2427,5.2124,5.1911,5.1203,5.0103,4.8439,4.6323,4.4332,4.2899,4.142,4.0545,4.0364,4.0387,4.0959,4.2033,4.23,4.2418,4.2508,4.3747,4.4014,4.3203,4.5949,4.7639,4.8363,5.0014,5.0962,5.1348,5.046,4.9897,4.9556,4.8029,4.661,4.5159,4.2477,4.0018,3.7801,3.5021,3.4214,0.0,3.4075,3.4352,3.4883,3.4075,3.3817,3.3817,3.3817,3.3817,3.3659,3.2945,3.1084,2.8916,2.7605,2.5451,2.3302,2.2707,2.2408,2.2558,2.3561,2.3857,2.4435,2.6299,2.6721,2.6721,2.6721,2.6736,2.6459,2.5744,2.6634,2.7215,2.6342,2.4743,2.329,2.2408,2.2259,2.2259,2.2259,2.2558,2.2558,2.2259,2.3005,2.329,2.3154,2.3154,2.3154,2.2856,2.2558,2.1557,2.0005,1.8414,1.6877,1.5512,1.3908,1.3214,1.3302,1.337,1.3403,1.3397,1.2561,1.1225,0.9388,0.7714,0.5873,0.4201,0.3195,0.2692,0.2692,0.2188,0.1851,0.1348,0.0337,-0.0,-0.0,5.2944,5.2975,5.2975,5.2975,5.2306,5.1533,5.0655,5.0375,4.9571,4.7912,4.6518,4.5063,4.3676,4.2635,4.1677,4.0915,4.0915,4.1714,4.3626,4.2497,4.2459,4.4326,4.3051,4.2339,4.2339,4.3879,4.5523,4.7052,4.8594,4.9928,5.1017,5.0348,4.9783,4.9186,4.8405,4.6942,4.4497,3.9996,3.7934,3.7534,3.4883,3.3817,3.3817,3.3817,3.3817,3.3817,3.3817,3.3817,3.3817,3.3817,3.3678,3.3242,3.1789,3.0217,2.8485,2.6619,2.4743,2.3302,2.2856,2.2558,2.2259,2.2259,2.2259,2.2694,2.4288,2.4716,2.4716,2.4716,2.5011,2.4583,2.2396,2.3277,2.4301,2.4301,2.298,2.1948,2.1648,2.1798,2.196,2.196,2.1948,0.0,2.2259,2.3005,2.3302,2.3302,2.3005,2.2856,2.2856,2.2259,2.1187,1.951,1.8019,1.6432,1.4907,1.3778,1.3132,1.3173,1.3308,1.3383,1.3403,1.1558,0.9721,0.7885,0.6208,0.4367,0.2692,0.2692,0.2692,0.2692,0.1851,0.0842,-0.0,-0.0,-0.0,-0.0,5.4268,5.4391,5.4391,5.4391,5.3705,5.2435,5.0195,4.861,4.7768,4.8212,4.5155,4.2899,4.2923,4.1824,4.1107,4.1397,4.1443,4.1775,4.2511,4.2328,4.2351,4.2696,4.2466,4.2339,4.2339,4.3879,4.5523,4.7052,4.8594,5.0126,5.1677,5.1017,5.046,4.9783,4.8326,4.5643,4.2178,3.9344,3.74,3.6073,3.4471,3.3817,3.3817,3.3817,3.3817,3.3817,3.3817,3.3817,3.3817,3.3817,3.2945,3.1789,3.1209,2.9059,2.6634,2.5597,2.4153,2.2856,2.2558,2.2408,2.2259,2.2259,2.2259,2.2408,2.2694,2.2843,2.2843,2.2843,2.2843,2.2384,2.1026,1.9951,1.993,2.2162,2.1291,1.9811,1.8441,1.9359,2.0274,2.0274,2.0564,2.1176,2.2259,2.2707,2.3005,2.3005,2.2856,2.2856,2.2856,2.1187,1.951,1.7834,1.6195,1.4601,1.3197,1.2937,1.2929,1.3173,1.32,1.3275,1.3403,1.1558,0.9721,0.7885,0.6208,0.4367,0.2692,0.2692,0.2692,0.2692,0.2525,0.1515,-0.0,-0.0,-0.0,-0.0,5.4668,5.473,5.4543,5.4135,5.3435,5.2417,5.1052,4.9138,4.7537,4.6875,4.5157,4.3717,4.3552,4.2386,4.1696,4.1948,4.1971,4.2063,4.2316,4.2339,4.2339,4.2339,4.2339,4.2339,4.2339,4.3051,4.4695,4.7052,4.7782,4.9448,5.1787,5.1238,5.0795,5.032,4.7144,4.4229,4.1542,3.8312,3.6614,3.5821,3.4352,3.3817,3.3817,3.3817,3.3817,3.3817,3.3817,3.3817,3.3817,3.3817,3.2806,3.135,3.0058,2.8197,2.605,2.4449,2.3438,2.2856,2.2408,2.2259,2.2259,2.2259,2.2259,2.2259,2.2259,2.2259,2.2259,2.2259,2.2259,2.1798,2.0414,2.0113,2.0102,1.9779,1.979,1.9208,1.7683,1.8138,1.8592,1.8592,1.8744,1.9348,2.0876,2.1187,2.1637,2.2558,2.2707,2.2707,2.2558,2.0876,1.9046,1.7379,1.5701,1.4222,1.261,1.2691,1.28,1.2942,1.3098,1.3214,1.3281,1.0527,0.8887,0.7881,0.5206,0.353,0.2692,0.2692,0.2356,0.202,0.2527,0.1516,-0.0,-0.0,-0.0,-0.0,5.4847,5.4877,5.4657,5.3759,5.2941,5.2282,5.1843,5.005,4.8139,4.6357,4.5639,4.5042,4.4328,4.3044,4.2339,4.2339,4.2339,4.2339,4.2339,4.2339,4.2339,4.2339,4.2339,4.2339,4.2339,4.2339,4.3755,4.6577,4.6959,4.8558,5.1516,5.1183,5.0628,4.9761,4.5399,4.2464,4.0622,3.7246,3.5685,3.5412,3.4214,3.3853,3.3945,3.3945,3.4,3.4055,3.3982,3.3945,3.3927,3.3835,3.2508,3.0785,2.9043,2.7186,2.5332,2.329,2.2707,2.2707,2.2408,2.2259,2.2259,2.2259,2.2259,2.2259,2.2259,2.2259,2.2259,2.2259,2.196,2.1337,1.9962,2.0274,1.9973,1.7834,1.8138,1.829,1.7074,1.7227,1.7227,1.6922,1.7531,1.829,1.9208,1.9962,2.0725,2.1648,2.2408,2.2408,2.1798,2.0124,1.8592,1.6922,1.525,1.3722,1.2501,1.2623,1.2698,1.2732,1.3003,1.2976,1.252,0.9335,0.7718,0.7212,0.4034,0.2692,0.2692,0.2692,0.2188,0.1346,0.1852,0.1179,-0.0,-0.0,-0.0,-0.0,5.5417,5.5439,5.514,5.4331,5.3477,5.253,5.1425,5.0463,4.9481,4.8744,4.6382,4.4646,4.4326,4.3028,4.2339,4.2339,4.2339,4.2339,4.2339,4.2339,4.2339,4.2339,4.2339,4.2339,4.2339,4.2339,4.3177,4.4939,4.6364,4.8277,5.0601,5.135,4.9932,4.6637,4.334,4.032,3.7698,3.6459,3.5158,3.3955,3.3817,3.4018,3.4348,3.4348,3.4587,3.4862,3.4477,3.4348,3.4293,3.3927,3.1789,2.9202,2.831,2.6022,2.3438,2.2558,2.2408,2.2408,2.2259,2.2259,2.2259,2.2259,2.2259,2.2259,2.2259,2.2259,2.2259,2.2259,2.1037,1.9973,1.9811,1.7531,1.6007,1.7227,1.6312,1.5242,1.5097,1.6465,1.677,1.5242,1.7834,1.9046,1.7683,2.0274,2.1499,2.0124,2.1487,2.1648,2.0113,1.8441,1.6922,1.5242,1.3568,1.2656,1.2501,1.2515,1.2589,1.2732,1.2901,1.223,1.071,0.8838,0.7212,0.5538,0.3532,0.2692,0.2692,0.2692,0.2188,0.1178,0.0505,0.0168,-0.0,-0.0,-0.0,-0.0,5.4756,5.4815,5.4509,5.3652,5.3232,5.2701,5.1731,5.1293,5.0517,4.9133,4.6891,4.4988,4.4422,4.3326,4.2593,4.2339,4.2339,4.2339,4.2339,4.2339,4.2339,4.2339,4.2339,4.2339,4.2339,4.2339,4.3051,4.4695,4.6364,4.7677,4.8758,4.8965,4.7,4.3121,4.1017,3.9017,3.7213,3.5902,3.5097,3.455,3.455,3.4642,3.477,3.477,3.488,3.5009,3.4844,3.477,3.4715,3.4312,3.1979,2.9059,2.831,2.5876,2.329,2.2558,2.2259,2.2259,2.2259,2.2259,2.2259,2.2259,2.2259,2.2259,2.2259,2.2259,2.2259,2.2259,2.1798,2.0725,1.8744,1.8138,1.7074,1.479,1.4637,1.4637,1.3568,1.403,1.4184,1.3568,1.4637,1.5548,1.5854,1.7986,1.951,1.9811,2.0425,2.0575,1.9811,1.7379,1.5548,1.4944,1.3267,1.2501,1.2501,1.2501,1.2528,1.2596,1.284,1.2012,1.0276,0.8645,0.6376,0.3698,0.3029,0.2692,0.2692,0.2692,0.2188,0.1178,0.0337,-0.0,-0.0,-0.0,-0.0,-0.0,5.3993,5.386,5.3652,5.2808,5.2594,5.2516,5.1896,5.1787,5.121,4.9729,4.7717,4.596,4.4546,4.3553,4.2822,4.2466,4.2593,4.2466,4.2339,4.2339,4.2466,4.2339,4.2339,4.2339,4.2339,4.2339,4.2799,4.4003,4.5643,4.6661,4.723,4.6844,4.4433,4.045,3.9,3.7648,3.654,3.5439,3.5027,3.5027,3.5027,3.51,3.521,3.521,3.5284,3.5357,3.5247,3.521,3.5137,3.4733,3.2558,2.976,2.8485,2.5876,2.329,2.2558,2.2259,2.2259,2.2259,2.2259,2.2259,2.2259,2.2259,2.2259,2.2259,2.2259,2.2259,2.2259,2.2259,2.1349,1.7986,1.829,1.7834,1.3876,1.3722,1.403,1.3267,1.3267,1.3267,1.3267,1.403,1.4637,1.4944,1.677,1.8138,1.829,1.829,1.8592,1.9057,1.6465,1.4637,1.4176,1.3112,1.2501,1.2501,1.2501,1.2501,1.2508,1.2292,1.1296,0.9396,0.7304,0.5038,0.2692,0.2692,0.2692,0.2692,0.2692,0.2188,0.1178,0.0337,-0.0,-0.0,-0.0,-0.0,-0.0,5.3232,5.302,5.2701,5.2004,5.1787,5.1787,5.1787,5.1787,5.1568,5.1017,4.9247,4.7272,4.5013,4.3927,4.32,4.2822,4.3075,4.2949,4.2339,4.257,4.2696,4.2339,4.2339,4.2339,4.2339,4.2339,4.2339,4.2339,4.4003,4.5353,4.6402,4.5421,4.304,3.9458,3.7808,3.6379,3.5027,3.5027,3.5027,3.5027,3.5027,3.5265,3.5614,3.5614,3.5852,3.6146,3.576,3.5614,3.5559,3.5155,3.3696,3.154,2.8851,2.5876,2.329,2.2558,2.2259,2.2259,2.2259,2.2259,2.2259,2.2259,2.2259,2.2259,2.2259,2.2259,2.2259,2.2259,2.2259,2.1349,1.7986,1.7379,1.6922,1.5089,1.3568,1.3112,1.4637,1.4944,1.4944,1.4944,1.7683,1.8441,1.5242,1.7834,1.8441,1.525,1.4944,1.5701,1.7379,1.5854,1.4176,1.2656,1.2501,1.2501,1.2501,1.2501,1.2501,1.2501,1.0919,0.9292,0.7459,0.4323,0.2692,0.2692,0.2692,0.2692,0.2692,0.2692,0.2188,0.1178,0.0337,-0.0,-0.0,-0.0,-0.0,-0.0,5.2193,5.2193,5.2085,5.1896,5.1787,5.1787,5.1787,5.1787,5.11,4.9247,4.8442,4.7154,4.4693,4.395,4.3451,4.2822,4.2949,4.2822,4.2339,4.2466,4.2466,4.2339,4.2339,4.2339,4.2339,4.2339,4.25,4.2844,4.4404,4.5068,4.4795,4.2571,4.033,3.8286,3.6799,3.5996,3.5834,3.5834,3.5834,3.5834,3.5834,3.5907,3.6017,3.6017,3.6109,3.6182,3.6054,3.6017,3.5962,3.5559,3.4284,3.2414,2.9743,2.7071,2.4596,2.2843,2.2259,2.2259,2.2259,2.2259,2.2259,2.2259,2.2259,2.2259,2.2259,2.2259,2.2259,2.2259,2.2259,2.1648,1.951,1.8138,1.6922,1.5242,1.3568,1.2656,1.3267,1.3267,1.3267,1.3267,1.4176,1.4483,1.3414,1.525,1.6007,1.4944,1.4944,1.5089,1.5701,1.4184,1.2958,1.2501,1.2501,1.2501,1.2501,1.2501,1.2501,1.2501,1.0919,0.8691,0.5915,0.3673,0.2692,0.2692,0.2692,0.2692,0.2692,0.2692,0.2188,0.1178,0.0337,-0.0,-0.0,-0.0,-0.0,-0.0,5.1787,5.1787,5.1787,5.1787,5.1787,5.1787,5.1787,5.1787,5.11,4.9019,4.8442,4.7349,4.5576,4.4736,4.3915,4.3098,4.3262,4.3252,4.2614,4.2926,4.3019,4.289,4.289,4.289,4.289,4.289,4.3051,4.3349,4.3984,4.3755,4.2549,4.0339,3.8666,3.7257,3.6274,3.5981,3.6201,3.6201,3.6201,3.6201,3.6201,3.6201,3.6201,3.6201,3.6201,3.6201,3.6201,3.6201,3.6164,3.5925,3.5136,3.3544,3.0239,2.8071,2.6178,2.3315,2.2408,2.2259,2.2259,2.2259,2.2259,2.2259,2.2259,2.2259,2.2259,2.2259,2.2259,2.2259,2.2259,2.1798,2.0124,1.8441,1.6922,1.5242,1.3568,1.2501,1.2501,1.2501,1.2656,1.3267,1.3414,1.3414,1.3414,1.433,1.4637,1.4022,1.403,1.403,1.403,1.3112,1.2501,1.2501,1.2501,1.2501,1.2501,1.2501,1.2501,1.2501,1.0329,0.7432,0.4272,0.3174,0.2692,0.2692,0.2692,0.2692,0.2692,0.2692,0.2188,0.1178,0.0337,-0.0,-0.0,-0.0,-0.0,-0.0,5.1787,5.1787,5.1787,5.1787,5.1787,5.1787,5.1787,5.1787,5.132,4.9983,4.8842,4.791,4.7029,4.5917,4.472,4.3593,4.4144,4.43,4.3272,4.384,4.4225,4.3808,4.3808,4.3808,4.3808,4.3808,4.3831,4.3854,4.2859,4.1688,4.0137,3.9022,3.7786,3.6349,3.6201,3.6201,3.6201,3.6201,3.6201,3.6201,3.6201,3.6201,3.6201,3.6201,3.6201,3.6201,3.6201,3.6201,3.6201,3.6201,3.5815,3.4827,3.0495,2.8816,2.7777,2.3961,2.2558,2.2259,2.2259,2.2259,2.2259,2.2259,2.2259,2.2259,2.2259,2.2259,2.2259,2.2259,2.2259,2.1798,2.0124,1.8441,1.6922,1.5242,1.3568,1.2501,1.2501,1.2501,1.3112,1.4483,1.479,1.479,1.479,1.479,1.4184,1.2656,1.2501,1.2501,1.2501,1.2501,1.2501,1.2501,1.2501,1.2501,1.2501,1.2501,1.2347,1.2192,0.9128,0.5838,0.2604,0.2665,0.2692,0.2692,0.2692,0.2692,0.2692,0.2692,0.2188,0.1346,0.0337,-0.0,-0.0,-0.0,-0.0,-0.0,0.0,5.1787,5.1787,5.1787,5.1787,5.1787,5.1787,5.1787,5.1155,4.9372,4.8865,4.8,4.6406,4.5845,4.5438,4.4911,4.5029,4.4842,4.417,4.4286,4.4225,4.3808,4.3808,4.3808,4.3808,4.3808,4.4015,4.4428,4.3392,4.2783,4.2344,3.9737,3.837,3.7932,3.6793,3.6201,3.6201,3.6201,3.6201,3.6201,3.6201,3.6201,3.6201,3.6201,3.6201,3.6201,3.6201,3.6201,3.6201,3.6201,3.5384,3.3661,3.0575,2.8537,2.6594,2.3429,2.2408,2.2259,2.2259,2.2259,2.2259,2.2259,2.2259,2.2259,2.2259,2.2259,2.2259,2.2259,2.2259,2.1798,2.0124,1.8441,1.6922,1.5242,1.3568,1.2501,1.2501,1.2501,1.2656,1.2958,1.3112,1.3112,1.3112,1.3112,1.2958,1.2501,1.2501,1.2501,1.2501,1.2501,1.2501,1.2501,1.2501,1.2501,1.2501,1.2501,1.125,0.8608,0.8012,0.5838,0.2604,0.2665,0.2692,0.2692,0.2692,0.2692,0.2692,0.2692,0.2525,0.219,0.0674,-0.0,-0.0,-0.0,-0.0,-0.0,5.1787,5.1787,5.1787,5.1787,5.2012,5.2208,5.2208,5.2461,5.2043,5.0479,4.968,4.8711,4.7326,4.6657,4.6261,4.6371,4.6049,4.5515,4.4705,4.4914,4.492,4.452,4.452,4.452,4.452,4.452,4.4658,4.4956,4.2966,4.2095,4.1954,3.8932,3.7511,3.7364,3.6645,3.6201,3.6201,3.6201,3.6201,3.6201,3.6201,3.6201,3.6201,3.6201,3.6201,3.6201,3.6201,3.6201,3.6201,3.6201,3.4971,3.2995,3.0292,2.8132,2.5937,2.3154,2.2259,2.2259,2.2259,2.2259,2.2259,2.2259,2.2259,2.2259,2.2259,2.2259,2.2259,2.2259,2.2259,2.1798,2.0124,1.8441,1.6922,1.5242,1.3568,1.2501,1.2501,1.2501,1.2501,1.2501,1.2501,1.2501,1.2501,1.2501,1.2501,1.2501,1.2501,1.2501,1.2501,1.2501,1.2501,1.2501,1.2501,1.2501,1.2501,1.1721,1.0008,0.7517,0.6734,0.5032,0.2604,0.2665,0.2692,0.2692,0.2692,0.2692,0.2692,0.2694,0.2695,0.2527,0.0674,-0.0,-0.0,-0.0,-0.0,-0.0,5.204,5.2068,5.2068,5.2068,5.2517,5.2854,5.2854,5.3304,5.3215,5.2089,5.0764,4.9645,4.8863,4.758,4.7016,4.7473,4.6825,4.6035,4.5372,4.5768,4.5754,4.537,4.537,4.537,4.537,4.537,4.537,4.537,4.2376,4.08,4.08,3.7639,3.6201,3.6201,3.6201,3.6201,3.6201,3.6201,3.6201,3.6201,3.6201,3.6201,3.6201,3.6201,3.6201,3.6201,3.6201,3.6201,3.6201,3.6201,3.4654,3.2357,2.9993,2.7682,2.5331,2.3005,2.2259,2.2259,2.2259,2.2259,2.2259,2.2259,2.2259,2.2259,2.2259,2.2259,2.2259,2.2259,2.2109,2.1337,1.9811,1.8138,1.6617,1.5089,1.3568,1.2656,1.2811,1.2656,1.2501,1.2501,1.2501,1.2501,1.2501,1.2501,1.2501,1.2501,1.2501,1.2501,1.2501,1.2501,1.2501,1.2501,1.2501,1.2501,1.2501,1.0785,0.9236,0.7537,0.5944,0.4228,0.2611,0.2667,0.2692,0.2692,0.2692,0.2692,0.2524,0.2695,0.2527,0.219,0.0674,-0.0,-0.0,-0.0,-0.0,-0.0,5.3276,5.3388,5.3388,5.3388,5.3445,5.3529,5.3529,5.3613,5.3382,5.2543,5.1255,5.024,4.9442,4.8118,4.7425,4.7497,4.716,4.6713,4.6154,4.6224,4.6025,4.5506,4.537,4.537,4.537,4.537,4.537,4.537,4.2376,4.08,4.08,3.7639,3.6201,3.6201,3.6201,3.6201,3.6201,3.6201,3.6201,3.6201,3.6201,3.6201,3.6201,3.6201,3.6201,3.6201,3.6201,3.6201,3.6201,3.6201,3.3885,3.0835,2.9544,2.6791,2.3844,2.2717,2.2259,2.2259,2.2259,2.2259,2.2259,2.2259,2.2259,2.2259,2.2259,2.2259,2.2259,2.2259,2.1187,1.9661,1.8138,1.6465,1.525,1.4944,1.3568,1.2958,1.433,1.3421,1.2501,1.2501,1.2501,1.2501,1.2501,1.2501,1.2501,1.2501,1.2501,1.2501,1.2501,1.2501,1.2501,1.2501,1.2501,1.2501,1.2501,1.0785,0.9115,0.7623,0.5966,0.4245,0.2641,0.2676,0.2692,0.2692,0.2692,0.2188,0.1514,0.2357,0.1853,0.0337,0.0168,-0.0,-0.0,-0.0,-0.0,-0.0,5.3613,5.3669,5.3669,5.3669,5.395,5.4147,5.4147,5.4456,5.4506,5.4173,5.2352,5.0955,5.0587,4.8632,4.7232,4.7232,4.6831,4.6563,4.616,4.616,4.589,4.5347,4.537,4.537,4.537,4.537,4.4937,4.4228,4.1933,4.0371,3.951,3.7217,3.6201,3.6201,3.6201,3.6201,3.6201,3.6201,3.6201,3.6201,3.6201,3.6201,3.6201,3.6201,3.6201,3.6201,3.6201,3.6201,3.6052,3.4954,3.2657,2.9961,2.8242,2.5725,2.3279,2.2736,2.2367,2.2259,2.2259,2.2259,2.2259,2.2259,2.2259,2.2259,2.2259,2.2259,2.2259,2.2259,2.1037,1.9359,1.7683,1.6007,1.4637,1.3722,1.2958,1.2811,1.3568,1.2958,1.2501,1.2501,1.2501,1.2501,1.2501,1.2501,1.2501,1.2501,1.2501,1.2501,1.2501,1.2501,1.2501,1.2501,1.2501,1.203,1.1095,0.9537,0.7872,0.6214,0.4521,0.327,0.2647,0.2679,0.2692,0.2692,0.2692,0.2524,0.2021,0.1515,0.0674,-0.0,-0.0,-0.0,-0.0,-0.0,-0.0,-0.0,5.4063,5.4091,5.4091,5.4091,5.4484,5.4793,5.4793,5.5187,5.5379,5.5116,5.2998,5.1367,5.1116,4.8608,4.6965,4.6965,4.6563,4.6136,4.589,4.589,4.5619,4.5347,4.537,4.537,4.537,4.5074,4.4228,4.3097,4.1226,3.9654,3.8516,3.6922,3.6201,3.6201,3.6201,3.6201,3.6201,3.6201,3.6201,3.6201,3.6201,3.6201,3.6201,3.6201,3.6201,3.6201,3.5754,3.5605,3.5288,3.3264,3.1115,2.9064,2.7059,2.4933,2.2995,2.273,2.2464,2.2259,2.2259,2.2259,2.2259,2.2259,2.2259,2.2259,2.2259,2.2259,2.2259,2.2259,2.0725,1.8895,1.7683,1.5701,1.403,1.3267,1.2811,1.2656,1.2958,1.2811,1.2501,1.2501,1.2501,1.2501,1.2501,1.2501,1.2501,1.2501,1.2501,1.2501,1.2501,1.2501,1.2347,1.1876,1.2347,1.1721,1.0008,0.8315,0.6645,0.5125,0.3408,0.2628,0.2658,0.2682,0.2692,0.2692,0.2692,0.2694,0.2527,0.0674,-0.0,-0.0,-0.0,-0.0,-0.0,-0.0,-0.0,-0.0,5.5271,5.5383,5.5383,5.5383,5.5412,5.544,5.544,5.5468,5.4998,5.3752,5.2385,5.1016,4.9746,4.8109,4.6965,4.6965,4.6294,4.589,4.589,4.5619,4.5506,4.537,4.537,4.537,4.537,4.3952,4.3236,4.3097,4.0085,3.8641,3.8516,3.6922,3.6201,3.6201,3.6201,3.6201,3.6201,3.6201,3.6201,3.6201,3.6201,3.6201,3.6201,3.6201,3.6201,3.6052,3.4521,3.3919,3.36,3.159,2.9434,2.7692,2.6763,2.4933,2.2995,2.273,2.2464,2.2259,2.2259,2.2259,2.2259,2.2259,2.2259,2.2259,2.2259,2.2259,2.2259,2.2259,1.9811,1.7531,1.7379,1.479,1.3112,1.4483,1.3414,1.2958,1.4483,1.3421,1.2501,1.2501,1.2501,1.2501,1.2501,1.2501,1.2501,1.2501,1.2501,1.2501,1.2501,1.2501,1.1721,1.0164,1.1721,1.1721,1.0008,0.8378,0.6723,0.5026,0.3449,0.266,0.269,0.2691,0.2692,0.2692,0.2695,0.2697,0.2527,0.0674,-0.0,-0.0,-0.0,-0.0,-0.0,-0.0,-0.0,-0.0,5.544,5.5496,5.5496,5.5496,5.5496,5.5496,5.5496,5.5496,5.4998,5.3631,5.2112,5.0739,4.9361,4.7449,4.6294,4.6294,4.589,4.5619,4.5619,4.5483,4.537,4.537,4.537,4.537,4.537,4.48,4.3653,4.1672,4.0514,3.8932,3.707,3.6497,3.6201,3.6201,3.6201,3.6201,3.6201,3.6201,3.6201,3.6201,3.6201,3.6201,3.6201,3.6201,3.6201,3.6052,3.4371,3.36,3.2961,2.9743,2.8047,2.6936,2.5281,2.4009,2.2959,2.2536,2.2343,2.2259,2.2259,2.2259,2.2259,2.2259,2.2259,2.2259,2.2259,2.2259,2.2259,2.2259,1.9661,1.7379,1.7379,1.479,1.2656,1.3267,1.2958,1.2656,1.3267,1.2958,1.2501,1.2501,1.2501,1.2501,1.2501,1.2501,1.2501,1.2501,1.2501,1.2501,1.2501,1.2501,1.1721,1.0008,1.063,0.9692,0.6885,0.6336,0.5134,0.3576,0.2961,0.2662,0.2692,0.2692,0.2356,0.185,0.2527,0.2022,0.101,0.0337,-0.0,-0.0,-0.0,-0.0,-0.0,-0.0,-0.0,-0.0,5.5496,5.5496,5.5496,5.5496,5.5496,5.5496,5.5496,5.5496,5.488,5.312,5.1865,5.0486,4.8608,4.6917,4.6025,4.589,4.5619,4.537,4.537,4.537,4.537,4.537,4.537,4.537,4.537,4.4937,4.3375,4.08,4.0371,3.8787,3.6201,3.6201,3.6201,3.6201,3.6201,3.6201,3.6201,3.6201,3.6201,3.6201,3.6201,3.6201,3.6201,3.6201,3.6201,3.5903,3.36,3.2657,3.1727,2.7891,2.6346,2.5872,2.4308,2.3478,2.2935,2.2416,2.2259,2.2259,2.2259,2.2259,2.2259,2.2259,2.2259,2.2259,2.2259,2.2259,2.2259,2.2259,1.9661,1.7379,1.7379,1.479,1.2501,1.2501,1.2501,1.2501,1.2501,1.2501,1.2501,1.2501,1.2501,1.2501,1.2501,1.2501,1.2501,1.2501,1.2501,1.2501,1.2501,1.203,1.0958,0.9276,0.8807,0.7095,0.428,0.4793,0.4197,0.2616,0.2646,0.2672,0.2692,0.2692,0.2188,0.1346,0.1684,0.1179,-0.0,-0.0,-0.0,-0.0,-0.0,-0.0,-0.0,-0.0,-0.0,-0.0,5.5496,5.5496,5.5496,5.5496,5.5496,5.5496,5.5496,5.5496,5.4497,5.1891,5.1492,5.0384,4.7364,4.6697,4.6271,4.589,4.5619,4.537,4.537,4.537,4.537,4.537,4.537,4.537,4.537,4.3952,4.2376,4.08,3.9221,3.7786,3.6201,3.6201,3.6201,3.6201,3.6201,3.6201,3.6201,3.6201,3.6201,3.6201,3.6201,3.6201,3.6201,3.6201,3.6201,3.5736,3.2048,3.0654,3.0053,2.5885,2.4492,2.4332,2.4,2.3478,2.2947,2.2416,2.2259,2.2259,2.2259,2.2259,2.2259,2.2259,2.2259,2.2259,2.2259,2.2259,2.2259,2.2259,1.9661,1.7379,1.7379,1.479,1.2501,1.2501,1.2501,1.2501,1.2501,1.2501,1.2501,1.2501,1.2501,1.2501,1.2501,1.2501,1.2501,1.2501,1.2501,1.2501,1.2501,1.094,0.9276,0.764,0.5896,0.4335,0.2601,0.4223,0.4248,0.2647,0.2677,0.2692,0.2692,0.2692,0.2188,0.1346,0.0337,-0.0,-0.0,-0.0,-0.0,-0.0,-0.0,-0.0,-0.0,-0.0,-0.0,-0.0,5.5496,5.5496,5.5496,5.5496,5.5496,5.5496,5.5496,5.5496,5.4497,5.1492,5.0965,4.9568,4.654,4.589,4.5619,4.5619,4.5483,4.537,4.537,4.537,4.537,4.537,4.537,4.537,4.537,4.4937,4.3375,4.08,4.0371,3.8787,3.6201,3.6201,3.6201,3.6201,3.6201,3.6201,3.6201,3.6201,3.6201,3.6201,3.6201,3.6201,3.6201,3.6201,3.5438,3.4203,3.159,2.9743,2.8061,2.5422,2.4332,2.3976,2.3623,2.3333,2.2971,2.2633,2.2404,2.2259,2.2259,2.2259,2.2259,2.2259,2.2259,2.2259,2.2259,2.2259,2.2259,2.2259,1.9661,1.7379,1.7379,1.479,1.2501,1.2501,1.2501,1.2501,1.2501,1.2501,1.2501,1.2501,1.2501,1.2501,1.2501,1.2501,1.2501,1.2501,1.2501,1.203,1.0785,1.0247,0.8725,0.5896,0.5305,0.4225,0.2632,0.3126,0.3131,0.2647,0.2677,0.2692,0.2692,0.2694,0.2527,0.2189,0.0674,-0.0,-0.0,-0.0,-0.0,-0.0,-0.0,-0.0,-0.0,-0.0,-0.0,-0.0,5.5496,5.5496,5.5496,5.5496,5.5496,5.5496,5.5496,5.4998,5.3872,5.1492,5.046,4.9078,4.6405,4.589,4.5754,4.5347,4.537,4.537,4.537,4.537,4.537,4.537,4.537,4.537,4.537,4.48,4.3236,4.08,4.0228,3.8641,3.6201,3.6201,3.6201,3.6201,3.6201,3.6201,3.6201,3.6201,3.6201,3.6201,3.6201,3.6201,3.6201,3.6201,3.5139,3.3449,3.1284,2.9279,2.7291,2.4958,2.4,2.3804,2.3538,2.3261,2.2995,2.273,2.2464,2.2259,2.2259,2.2259,2.2259,2.2259,2.2259,2.2259,2.2259,2.2259,2.2109,2.1487,1.9208,1.7227,1.6465,1.433,1.2501,1.2501,1.2501,1.2501,1.2501,1.2501,1.2501,1.2501,1.2501,1.2501,1.2501,1.2501,1.2501,1.2501,1.2556,1.2122,1.1179,0.9871,0.8193,0.6301,0.4885,0.3619,0.2664,0.2665,0.2665,0.2665,0.2684,0.2692,0.2692,0.2357,0.2357,0.2527,0.0842,-0.0,-0.0,-0.0,-0.0,-0.0,-0.0,-0.0,-0.0,-0.0,-0.0,-0.0,5.5496,5.5496,5.5496,5.5496,5.5496,5.5496,5.5496,5.4497,5.312,5.1616,5.0384,4.8868,4.654,4.6405,4.616,4.5506,4.537,4.537,4.537,4.537,4.537,4.537,4.537,4.537,4.537,4.3952,4.2376,4.08,3.9221,3.7639,3.6201,3.6201,3.6201,3.6201,3.6201,3.6201,3.6201,3.6201,3.6201,3.6201,3.6201,3.6201,3.6201,3.6201,3.5139,3.3146,3.0823,2.8827,2.6977,2.4627,2.384,2.3804,2.3562,2.3297,2.3031,2.2766,2.25,2.2295,2.2271,2.2259,2.2259,2.2259,2.2259,2.2259,2.2259,2.2259,2.1798,2.0124,1.8592,1.6922,1.525,1.3568,1.2501,1.2501,1.2501,1.2501,1.2501,1.2501,1.2501,1.2501,1.2501,1.2501,1.2501,1.2515,1.2528,1.2542,1.2671,1.2594,1.2588,0.9512,0.7665,0.7581,0.4298,0.2664,0.2692,0.2692,0.2692,0.2692,0.2692,0.2692,0.2692,0.1682,0.1683,0.2358,0.0674,-0.0,-0.0,-0.0,-0.0,-0.0,-0.0,-0.0,-0.0,-0.0,-0.0,-0.0,5.5496,5.5496,5.5496,5.5496,5.5496,5.5496,5.5496,5.5261,5.4112,5.1492,5.0865,4.9464,4.6405,4.6025,4.589,4.5483,4.537,4.537,4.537,4.537,4.537,4.537,4.537,4.537,4.537,4.3952,4.2376,4.08,3.9221,3.7639,3.6201,3.6201,3.6201,3.6201,3.6201,3.6201,3.6201,3.6201,3.6201,3.6201,3.6201,3.6201,3.6201,3.6201,3.4203,3.1284,3.0346,2.7891,2.4958,2.416,2.384,2.384,2.378,2.3575,2.3309,2.3043,2.2778,2.2524,2.2319,2.2259,2.2259,2.2259,2.2259,2.2259,2.2259,2.2259,2.1798,2.0124,1.8592,1.6922,1.525,1.3568,1.2501,1.2501,1.2501,1.2501,1.2501,1.2501,1.2501,1.2501,1.2501,1.2501,1.2501,1.261,1.2732,1.2854,1.2895,1.2422,1.1124,0.8973,0.7237,0.5943,0.3834,0.2686,0.2692,0.2692,0.2692,0.2692,0.2692,0.2692,0.2692,0.101,0.0337,0.0505,0.0168,-0.0,-0.0,-0.0,-0.0,-0.0,-0.0,-0.0,-0.0,-0.0,-0.0,-0.0,5.5496,5.5496,5.5496,5.5496,5.5496,5.5496,5.5496,5.4998,5.3752,5.1492,5.0739,4.9207,4.6405,4.616,4.589,4.5483,4.537,4.537,4.537,4.537,4.537,4.537,4.537,4.537,4.537,4.3214,4.1672,4.08,3.8516,3.6922,3.6201,3.6201,3.6201,3.6201,3.6201,3.6201,3.6201,3.6201,3.6201,3.6201,3.6201,3.6201,3.6201,3.6052,3.3734,3.0669,2.9898,2.7264,2.4172,2.384,2.384,2.384,2.384,2.3671,2.343,2.3285,2.3056,2.2778,2.2512,2.2452,2.2416,2.2295,2.2259,2.2259,2.2259,2.2259,2.1648,1.9208,1.7986,1.6617,1.4184,1.3112,1.2501,1.2501,1.2501,1.2501,1.2501,1.2501,1.2528,1.2603,1.261,1.2637,1.2712,1.2793,1.2874,1.2956,1.3024,1.2734,1.1751,0.9245,0.7481,0.6656,0.4021,0.2692,0.2692,0.2692,0.2692,0.2692,0.2692,0.2692,0.2692,0.1178,0.0337,-0.0,-0.0,-0.0,-0.0,-0.0,-0.0,-0.0,-0.0,-0.0,-0.0,-0.0,-0.0,-0.0,5.5496,5.5496,5.5496,5.5496,5.5496,5.5496,5.5496,5.4497,5.3241,5.1616,5.0511,4.8843,4.654,4.6271,4.6025,4.5483,4.537,4.537,4.537,4.537,4.537,4.537,4.537,4.537,4.537,4.2376,4.08,4.08,3.7639,3.6201,3.6201,3.6201,3.6201,3.6201,3.6201,3.6201,3.6201,3.6201,3.6201,3.6201,3.6201,3.6052,3.5587,3.5288,3.2977,2.9898,2.9279,2.6806,2.384,2.384,2.384,2.384,2.384,2.3695,2.3514,2.3466,2.3297,2.3056,2.279,2.2718,2.2657,2.2392,2.2331,2.2319,2.2271,2.2259,2.1349,1.8138,1.7379,1.6465,1.3112,1.2501,1.2501,1.2501,1.2522,1.2542,1.2542,1.2562,1.263,1.2752,1.2766,1.2827,1.2983,1.2996,1.301,1.3037,1.3146,1.3214,1.3214,0.9838,0.8052,0.8052,0.4537,0.2692,0.2692,0.2692,0.2692,0.2692,0.2692,0.2692,0.2692,0.1851,0.101,-0.0,-0.0,-0.0,-0.0,-0.0,-0.0,-0.0,-0.0,-0.0,-0.0,-0.0,-0.0,-0.0,5.5496,5.5496,5.5496,5.5496,5.5496,5.5496,5.5496,5.5379,5.4231,5.1492,5.0865,4.9593,4.6271,4.5754,4.5483,4.5347,4.537,4.537,4.537,4.537,4.537,4.537,4.537,4.537,4.537,4.2376,4.08,4.08,3.7639,3.6201,3.6201,3.6201,3.6201,3.6201,3.6201,3.6201,3.6201,3.6201,3.6201,3.6201,3.6201,3.5121,3.3566,3.3415,3.0945,2.7421,2.7264,2.5714,2.384,2.384,2.384,2.384,2.384,2.3816,2.3744,2.3514,2.343,2.3333,2.3068,2.2995,2.2923,2.2669,2.2597,2.2536,2.2307,2.2259,2.1349,1.8138,1.7379,1.6465,1.3112,1.2501,1.2501,1.2501,1.261,1.2698,1.2698,1.2813,1.2908,1.2929,1.2929,1.2983,1.3132,1.3146,1.32,1.3336,1.3356,1.337,1.337,0.9878,0.8052,0.8052,0.4537,0.2692,0.2692,0.2692,0.2692,0.2692,0.2692,0.2694,0.2695,0.2527,0.1515,-0.0,-0.0,-0.0,-0.0,-0.0,-0.0,-0.0,-0.0,-0.0,-0.0,-0.0,-0.0,-0.0,5.5496,5.5496,5.5496,5.5496,5.5496,5.5496,5.5496,5.5144,5.3992,5.1367,5.0713,4.9336,4.6271,4.5619,4.537,4.537,4.537,4.537,4.537,4.537,4.537,4.537,4.537,4.537,4.537,4.2376,4.08,4.08,3.7639,3.6201,3.6201,3.6201,3.6201,3.6201,3.6201,3.6201,3.6201,3.6201,3.6201,3.6201,3.6201,3.4954,3.3112,3.2826,3.0346,2.6792,2.5555,2.4627,2.384,2.384,2.384,2.384,2.384,2.384,2.3816,2.3707,2.3671,2.3611,2.3345,2.3273,2.32,2.2935,2.2874,2.2838,2.2718,2.2693,2.1719,1.8201,1.7558,1.6516,1.3362,1.2601,1.2443,1.2443,1.2179,1.2058,1.2058,1.2115,1.234,1.2747,1.299,1.3234,1.3295,1.3302,1.3329,1.3397,1.3403,1.3403,1.3403,1.0726,0.8887,0.8052,0.5206,0.3532,0.2692,0.2692,0.2692,0.2692,0.2188,0.1851,0.1852,0.2527,0.219,0.1516,0.0505,-0.0,-0.0,-0.0,-0.0,-0.0,-0.0,-0.0,-0.0,-0.0,-0.0,-0.0]},{"header":{"parameterUnit":"m.s-1","parameterCategory":1,"la1":30.6,"la2":28.766,"lo1":-90.7593,"lo2":-88.6598,"dy":0.0162,"dx":0.0183,"nx":116,"ny":114,"refTime":"2024-02-06T18:00:00:Z","depth":0,"parameterNumber":3,"parameterNumberName":"V-component_of_WINDS"},"data":[0.0,0.0,0.0,0.0,0.0,0.0,0.0,0.0,0.0,0.0,0.0,0.0,0.0,0.0,0.0,0.0,0.0,0.0,0.0,0.0,0.0,0.0,0.0,0.0,0.0,0.0,0.0,0.0,0.0,0.0,0.0,0.0,0.0,0.0,0.0,0.0,0.0,0.0,0.0,0.0,0.0,0.0,0.0,0.0,0.0,0.0,0.0,0.0,0.0,0.0,0.0,0.0,0.0,0.0,0.0,0.0,0.0,0.0,0.0,0.0,0.0,0.0,0.0,0.0,0.0,0.0,0.0,0.0,0.0,0.0,0.0,0.0,0.0,0.0,0.0,0.0,0.0,0.0,0.0,0.0,0.0,0.0,0.0,0.0,0.0,0.0,0.0,0.0,0.0,0.0,0.0,0.0,0.0,0.0,0.0,0.0,0.0,0.0,0.0,0.0,0.0,0.0,0.0,0.0,0.0,0.0,0.0,0.0,0.0,0.0,0.0,0.0,0.0,0.0,0.0,0.0,0.0,0.0,0.0,0.0,0.0,0.0,0.0,0.0,0.0,0.0,0.0,0.0,0.0,0.0,0.0,0.0,0.0,0.0,0.0,0.0,0.0,0.0,0.0,0.0,0.0,0.0,0.0,0.0,0.0,0.0,0.0,0.0,0.0,0.0,0.0,0.0,0.0,0.0,0.0,0.0,0.0,0.0,0.0,0.0,0.0,0.0,0.0,0.0,0.0,0.0,0.0,0.0,0.0,0.0,0.0,0.0,0.0,0.0,0.0,0.0,0.0,0.0,0.0,0.0,0.0,0.0,0.0,0.0,0.0,0.0,0.0,0.0,0.0,0.0,0.0,0.0,0.0,0.0,0.0,0.0,0.0,0.0,0.0,0.0,0.0,0.0,0.0,0.0,0.0,0.0,0.0,0.0,0.0,0.0,0.0,0.0,0.0,0.0,0.0,0.0,0.0,0.0,0.0,0.0,0.0,0.0,0.0,0.0,0.0,0.0,0.0,0.0,0.0,0.0,0.0,0.0,0.0,0.0,0.0,0.0,0.0,0.0,0.0,0.0,0.0,0.0,0.0,0.0,0.0,0.0,0.0,0.0,0.0,0.0,0.0,0.0,0.0,0.0,0.0,0.0,0.0,0.0,0.0,0.0,0.0,0.0,0.0,0.0,0.0,0.0,0.0,0.0,0.0,0.0,0.0,0.0,0.0,0.0,0.0,0.0,0.0,0.0,0.0,0.0,0.0,0.0,0.0,0.0,0.0,0.0,0.0,0.0,0.0,0.0,0.0,0.0,0.0,0.0,0.0,0.0,0.0,0.0,0.0,0.0,0.0,0.0,0.0,0.0,0.0,0.0,0.0,0.0,0.0,0.0,0.0,0.0,0.0,0.0,0.0,0.0,0.0,0.0,0.0,0.0,0.0,0.0,0.0,0.0,0.0,0.0,0.0,0.0,0.0,0.0,0.0,0.0,0.0,0.0,0.0,0.0,0.0,0.0,0.0,0.0,0.0,0.0,0.0,0.0,0.0,0.0,0.0,0.0,0.0,0.0,0.0,0.0,0.0,0.0,0.0,0.0,0.0,0.0,0.0,0.0,0.0,0.0,0.0,0.0,0.0,0.0,0.0,0.0,0.0,0.0,0.0,0.0,0.0,0.0,0.0,0.0,0.0,0.0,0.0,0.0,0.0,0.0,0.0,0.0,0.0,0.0,0.0,0.0,0.0,0.0,0.0,0.0,0.0,0.0,0.0,0.0,0.0,0.0,0.0,0.0,0.0,0.0,0.0,0.0,0.0,0.0,0.0,0.0,0.0,0.0,0.0,0.0,0.0,0.0,0.0,0.0,0.0,0.0,0.0,0.0,0.0,0.0,0.0,0.0,0.0,0.0,0.0,0.0,0.0,0.0,0.0,0.0,0.0,0.0,0.0,0.0,0.0,0.0,0.0,0.0,0.0,0.0,0.0,0.0,0.0,0.0,0.0,0.0,0.0,0.0,0.0,0.0,0.0,0.0,0.0,0.0,0.0,0.0,0.0,0.0,0.0,0.0,0.0,0.0,0.0,0.0,0.0,0.0,0.0,0.0,0.0,0.0,0.0,0.0,0.0,0.0,0.0,0.0,0.0,0.0,0.0,0.0,0.0,0.0,0.0,0.0,0.0,0.0,0.0,0.0,0.0,0.0,0.0,0.0,0.0,0.0,0.0,0.0,0.0,0.0,0.0,0.0,0.0,0.0,0.0,0.0,0.0,0.0,0.0,0.0,0.0,0.0,0.0,0.0,0.0,0.0,0.0,0.0,0.0,0.0,0.0,0.0,0.0,0.0,0.0,0.0,0.0,0.0,0.0,0.0,0.0,0.0,0.0,0.0,0.0,0.0,0.0,0.0,0.0,0.0,0.0,0.0,0.0,0.0,0.0,0.0,0.0,0.0,0.0,0.0,0.0,0.0,0.0,0.0,0.0,0.0,0.0,0.0,0.0,0.0,0.0,0.0,0.0,0.0,0.0,0.0,0.0,0.0,0.0,0.0,0.0,0.0,0.0,0.0,0.0,0.0,0.0,0.0,0.0,0.0,0.0,0.0,0.0,0.0,0.0,0.0,0.0,0.0,0.0,0.0,0.0,0.0,0.0,0.0,0.0,0.0,0.0,0.0,0.0,0.0,0.0,0.0,0.0,0.0,0.0,0.0,0.0,0.0,0.0,0.0,0.0,0.0,0.0,0.0,0.0,0.0,0.0,0.0,0.0,0.0,0.0,0.0,0.0,0.0,0.0,0.0,0.0,0.0,0.0,0.0,0.0,0.0,0.0,0.0,0.0,0.0,0.0,0.0,0.0,0.0,0.0,0.0,0.0,0.0,0.0,0.0,0.0,0.0,0.0,0.0,0.0,0.0,0.0,0.0,0.0,0.0,0.0,0.0,0.0,0.0,0.0,0.0,0.0,0.0,0.0,0.0,0.0,0.0,0.0,0.0,0.0,0.0,0.0,0.0,0.0,0.0,0.0,0.0,0.0,0.0,0.0,0.0,0.0,0.0,0.0,0.0,0.0,0.0,0.0,0.0,0.0,0.0,0.0,0.0,0.0,0.0,0.0,0.0,0.0,0.0,0.0,0.0,0.0,0.0,0.0,0.0,0.0,0.0,0.0,0.0,0.0,0.0,0.0,0.0,0.0,0.0,0.0,0.0,0.0,0.0,0.0,0.0,0.0,0.0,0.0,0.0,0.0,0.0,0.0,0.0,0.0,0.0,0.0,0.0,0.0,0.0,0.0,0.0,0.0,0.0,0.0,0.0,0.0,0.0,0.0,0.0,0.0,0.0,0.0,0.0,0.0,0.0,0.0,0.0,0.0,0.0,0.0,0.0,0.0,0.0,0.0,0.0,0.0,0.0,0.0,0.0,0.0,0.0,0.0,0.0,0.0,0.0,0.0,0.0,0.0,0.0,0.0,0.0,0.0,0.0,0.0,0.0,0.0,0.0,0.0,0.0,0.0,0.0,0.0,0.0,0.0,0.0,0.0,0.0,0.0,0.0,0.0,0.0,0.0,0.0,0.0,0.0,0.0,0.0,0.0,0.0,0.0,0.0,0.0,0.0,0.0,0.0,0.0,0.0,0.0,0.0,0.0,0.0,0.0,0.0,0.0,0.0,0.0,0.0,0.0,0.0,0.0,0.0,0.0,0.0,0.0,0.0,0.0,0.0,0.0,0.0,0.0,0.0,0.0,0.0,0.0,0.0,0.0,0.0,0.0,0.0,0.0,0.0,0.0,0.0,0.0,0.0,0.0,0.0,0.0,0.0,0.0,0.0,0.0,0.0,0.0,0.0,0.0,0.0,0.0,0.0,0.0,0.0,0.0,0.0,0.0,0.0,0.0,0.0,0.0,0.0,0.0,0.0,0.0,0.0,0.0,0.0,0.0,0.0,0.0,0.0,0.0,0.0,0.0,0.0,0.0,0.0,0.0,0.0,0.0,0.0,0.0,0.0,0.0,0.0,0.0,0.0,0.0,0.0,0.0,0.0,0.0,0.0,0.0,0.0,0.0,0.0,0.0,0.0,0.0,0.0,0.0,0.0,0.0,0.0,0.0,0.0,0.0,0.0,0.0,0.0,0.0,0.0,0.0,0.0,0.0,0.0,0.0,0.0,0.0,0.0,0.0,0.0,0.0,0.0,0.0,0.0,0.0,0.0,0.0,0.0,0.0,0.0,0.0,0.0,0.0,0.0,0.0,0.0,0.0,0.0,0.0,0.0,0.0,0.0,0.0,0.0,0.0,0.0,0.0,0.0,0.0,0.0,0.0,0.0,0.0,0.0,0.0,0.0,0.0,0.0,0.0,0.0,0.0,0.0,0.0,0.0,0.0,0.0,0.0,0.0,0.0,0.0,0.0,0.0,0.0,0.0,0.0,0.0,0.0,0.0,0.0,0.0,0.0,0.0,0.0,0.0,0.0,0.0,0.0,0.0,0.0,0.0,0.0,0.0,0.0,0.0,0.0,0.0,0.0,0.0,0.0,0.0,0.0,0.0,0.0,0.0,0.0,0.0,0.0,0.0,0.0,0.0,0.0,0.0,0.0,0.0,0.0,0.0,0.0,0.0,0.0,0.0,0.0,0.0,0.0,0.0,0.0,0.0,0.0,0.0,0.0,0.0,0.0,0.0,0.0,0.0,0.0,0.0,0.0,0.0,0.0,0.0,0.0,0.0,0.0,0.0,0.0,0.0,0.0,0.0,0.0,0.0,0.0,0.0,0.0,0.0,0.0,0.0,0.0,0.0,0.0,0.0,0.0,0.0,0.0,0.0,0.0,0.0,0.0,0.0,0.0,0.0,0.0,0.0,0.0,0.0,0.0,0.0,0.0,0.0,0.0,0.0,0.0,0.0,0.0,0.0,0.0,0.0,0.0,0.0,0.0,0.0,0.0,0.0,0.0,0.0,0.0,0.0,0.0,0.0,0.0,0.0,0.0,0.0,0.0,0.0,0.0,0.0,0.0,0.0,0.0,0.0,0.0,0.0,0.0,0.0,0.0,0.0,0.0,0.0,0.0,0.0,0.0,0.0,0.0,0.0,0.0,0.0,0.0,0.0,0.0,0.0,0.0,0.0,0.0,0.0,0.0,0.0,0.0,0.0,0.0,0.0,0.0,0.0,0.0,0.0,0.0,0.0,0.0,0.0,0.0,0.0,0.0,0.0,0.0,0.0,0.0,0.0,0.0,0.0,0.0,0.0,0.0,0.0,0.0,0.0,0.0,0.0,0.0,0.0,0.0,0.0,0.0,0.0,0.0,0.0,0.0,0.0,0.0,0.0,0.0,0.0,0.0,0.0,0.0,0.0,0.0,0.0,0.0,0.0,0.0,0.0,0.0,0.0,0.0,0.0,0.0,0.0,0.0,0.0,0.0,0.0,0.0,0.0,0.0,0.0,0.0,0.0,0.0,0.0,0.0,0.0,0.0,0.0,0.0,0.0,0.0,0.0,0.0,0.0,0.0,0.0,0.0,0.0,0.0,0.0,0.0,0.0,0.0,0.0,0.0,0.0,0.0,0.0,0.0,0.0,0.0,0.0,0.0,0.0,0.0,0.0,0.0,0.0,0.0,0.0,0.0,0.0,0.0,0.0,0.0,0.0,0.0,0.0,0.0,0.0,0.0,0.0,0.0,0.0,0.0,0.0,0.0,0.0,0.0,0.0,0.0,0.0,0.0,0.0,0.0,0.0,0.0,0.0,0.0,0.0,0.0,0.0,0.0,0.0,0.0,0.0,0.0,0.0,0.0,0.0,0.0,0.0,0.0,0.0,0.0,0.0,0.0,0.0,0.0,0.0,0.0,0.0,0.0,0.0,0.0,0.0,0.0,0.0,0.0,0.0,0.0,0.0,0.0,0.0,0.0,0.0,0.0,0.0,0.0,0.0,0.0,0.0,0.0,0.0,0.0,0.0,0.0,0.0,0.0,0.0,0.0,0.0,0.0,0.0,0.0,0.0,0.0,0.0,0.0,0.0,0.0,0.0,0.0,0.0,0.0,0.0,0.0,0.0,0.0,0.0,0.0,0.0,0.0,0.0,0.0,0.0,0.0,0.0,0.0,0.0,0.0,0.0,0.0,0.0,0.0,0.0,0.0,0.0,-5.6773,-5.7606,0.0,0.0,0.0,0.0,0.0,0.0,0.0,0.0,0.0,0.0,0.0,0.0,0.0,0.0,0.0,0.0,0.0,0.0,0.0,0.0,0.0,0.0,0.0,0.0,0.0,0.0,0.0,0.0,0.0,0.0,0.0,0.0,0.0,0.0,-3.8015,-3.8291,-3.8417,-3.8417,-3.8693,-3.8818,-3.8818,-4.0331,-4.1298,-4.1937,0.0,0.0,0.0,0.0,0.0,0.0,0.0,0.0,0.0,0.0,0.0,0.0,0.0,0.0,0.0,0.0,0.0,0.0,0.0,0.0,0.0,0.0,0.0,0.0,0.0,0.0,0.0,0.0,0.0,0.0,0.0,0.0,0.0,0.0,0.0,0.0,0.0,0.0,0.0,0.0,0.0,0.0,0.0,0.0,0.0,0.0,0.0,0.0,0.0,0.0,0.0,0.0,0.0,0.0,0.0,0.0,0.0,0.0,0.0,0.0,0.0,0.0,0.0,0.0,0.0,0.0,0.0,0.0,0.0,0.0,-5.6721,-5.718,0.0,0.0,0.0,0.0,0.0,0.0,0.0,0.0,0.0,0.0,0.0,0.0,0.0,0.0,0.0,0.0,0.0,0.0,0.0,0.0,0.0,0.0,0.0,-3.9697,-3.9697,-3.9697,-3.9697,-3.9496,0.0,0.0,0.0,0.0,-3.8291,-3.8291,-3.8291,-3.8768,-3.9019,-3.9019,-3.9471,-3.9697,-3.9697,-4.0743,-4.1119,-4.1019,-4.3473,0.0,0.0,0.0,0.0,0.0,0.0,0.0,0.0,0.0,0.0,0.0,0.0,0.0,0.0,0.0,0.0,0.0,0.0,0.0,0.0,0.0,0.0,0.0,0.0,0.0,0.0,0.0,0.0,0.0,0.0,0.0,0.0,0.0,0.0,0.0,0.0,0.0,0.0,0.0,0.0,0.0,0.0,0.0,0.0,0.0,0.0,0.0,0.0,0.0,0.0,0.0,0.0,0.0,0.0,0.0,0.0,0.0,0.0,0.0,0.0,0.0,0.0,0.0,-5.5161,-5.5462,-5.6162,-5.6668,-5.6886,-5.6815,-5.71,-5.6956,-5.6685,-5.7932,0.0,0.0,0.0,0.0,0.0,0.0,0.0,0.0,0.0,0.0,0.0,0.0,0.0,0.0,0.0,0.0,0.0,0.0,0.0,-3.9697,-3.9697,-3.9697,-3.9697,-3.9697,-3.9697,-3.9672,-3.9597,-3.9597,-3.9546,-3.9471,-3.9471,-3.9471,-3.9471,-3.9546,-3.9597,-3.9597,-3.9672,-3.9697,-3.9697,-4.0743,-4.0743,-3.9981,-4.2128,-4.2944,-4.2849,0.0,0.0,0.0,0.0,0.0,0.0,0.0,0.0,0.0,0.0,0.0,0.0,0.0,0.0,0.0,0.0,0.0,0.0,0.0,0.0,0.0,0.0,0.0,0.0,0.0,0.0,0.0,0.0,0.0,0.0,0.0,0.0,0.0,0.0,0.0,0.0,0.0,0.0,0.0,0.0,0.0,-4.912,-4.9058,0.0,0.0,0.0,0.0,0.0,0.0,0.0,0.0,0.0,0.0,0.0,0.0,0.0,-5.5841,-5.5686,-5.6309,-5.6656,-5.656,-5.656,-5.6848,-5.7429,-5.755,-5.7907,-5.8422,-5.8952,0.0,-5.7266,-5.796,0.0,0.0,0.0,0.0,0.0,0.0,0.0,0.0,0.0,0.0,0.0,0.0,0.0,0.0,0.0,0.0,0.0,0.0,0.0,0.0,0.0,-3.9697,-3.9697,-3.9697,-3.9697,-3.9697,-3.9697,-3.9697,-3.9697,-3.9697,-3.9697,-3.9697,-3.9697,-3.9697,-3.9697,-3.9697,-3.9697,-3.9697,-3.9697,-4.0185,-4.0083,-3.9697,-4.0668,-4.1345,-4.1914,-4.2501,0.0,0.0,0.0,0.0,0.0,0.0,0.0,0.0,0.0,0.0,0.0,0.0,0.0,0.0,0.0,0.0,0.0,0.0,0.0,0.0,0.0,0.0,0.0,0.0,0.0,0.0,0.0,0.0,0.0,0.0,0.0,0.0,0.0,0.0,0.0,0.0,0.0,0.0,0.0,-4.9171,-4.9309,-4.8984,-4.9501,-5.0058,0.0,0.0,0.0,0.0,0.0,0.0,0.0,0.0,0.0,-5.4703,-5.585,-5.6253,-5.5722,-5.6498,-5.6836,-5.6805,-5.7126,-5.7471,-5.7745,-5.8459,-5.8932,-5.9311,-5.9903,-5.9798,-5.9281,-5.9587,-6.0124,-6.0789,0.0,0.0,0.0,0.0,-6.1991,-6.2017,0.0,0.0,0.0,0.0,0.0,0.0,0.0,0.0,0.0,0.0,0.0,0.0,-3.9697,-3.9697,-3.9697,-3.9697,-3.9697,-3.9697,-3.9697,-3.9697,-3.98,-4.0083,-4.0083,-4.0083,-4.0083,-3.9775,-3.9697,-3.9697,-3.9697,-3.9697,-3.9697,-3.9697,-3.9697,-3.9697,-3.9697,-4.0083,-4.0844,-4.1617,-4.2598,-4.3559,0.0,0.0,0.0,0.0,0.0,0.0,0.0,0.0,0.0,0.0,0.0,0.0,0.0,0.0,0.0,0.0,0.0,0.0,0.0,0.0,0.0,0.0,0.0,0.0,0.0,0.0,0.0,0.0,0.0,0.0,0.0,0.0,0.0,0.0,0.0,0.0,0.0,-4.9747,-5.0034,-4.9512,-5.0034,-5.0676,0.0,0.0,0.0,0.0,0.0,0.0,-5.5407,-5.5721,-5.579,-5.5617,-5.6575,-5.678,-5.62,-5.6951,-5.7357,-5.7357,-5.8002,-5.8405,-5.8613,-5.9744,-6.0332,-6.0601,-6.1066,-6.1338,-6.1431,-6.1122,-6.1416,-6.2132,-6.2231,-6.271,-6.332,-6.332,-6.332,-6.332,0.0,0.0,0.0,0.0,0.0,0.0,0.0,0.0,0.0,0.0,0.0,-3.9697,-3.9697,-3.9697,-3.9697,-3.9697,-3.9697,-3.9697,-3.9697,-3.9697,-4.0185,-4.1119,-4.1119,-4.1119,-4.1119,-4.016,-3.9697,-3.9697,-3.9697,-3.9697,-3.9697,-3.9697,-3.9697,-3.9697,-3.9697,-3.9697,-3.98,-3.9775,-4.0465,-4.1471,-4.3094,0.0,0.0,0.0,0.0,0.0,0.0,0.0,0.0,0.0,0.0,0.0,0.0,0.0,0.0,0.0,0.0,0.0,0.0,0.0,0.0,0.0,0.0,0.0,0.0,0.0,0.0,0.0,0.0,0.0,0.0,0.0,0.0,0.0,0.0,0.0,0.0,0.0,0.0,-5.0886,-5.1476,0.0,0.0,0.0,0.0,-5.4212,-5.432,-5.4689,-5.5547,-5.6336,-5.6404,-5.5617,-5.7089,-5.784,-5.7773,-5.853,-5.8909,-5.8909,-5.9574,-6.0238,-6.0948,-6.1642,-6.2369,-6.3036,-6.3036,-6.3131,-6.316,-6.1885,-6.1656,-6.2132,-6.2459,-6.2853,-6.332,-6.332,-6.332,-6.332,0.0,0.0,0.0,0.0,0.0,0.0,0.0,0.0,-3.9697,-3.9697,-3.9697,-3.9697,-3.9697,-3.9697,-3.9697,-3.9697,-3.9697,-3.9697,-3.9697,-3.9697,-3.9878,-4.0262,-4.0262,-4.0262,-4.0262,-3.9878,-3.9697,-3.9697,-3.9697,-3.9697,-3.9697,-3.9697,-3.9697,-3.9697,-3.9697,-3.9697,-3.9697,-3.9697,-4.0262,-4.1246,-4.1828,-4.2955,0.0,0.0,0.0,0.0,0.0,0.0,0.0,0.0,0.0,0.0,0.0,0.0,0.0,0.0,0.0,0.0,0.0,0.0,0.0,0.0,0.0,0.0,0.0,0.0,0.0,0.0,0.0,0.0,0.0,0.0,0.0,0.0,0.0,0.0,0.0,0.0,0.0,-5.1654,-5.1852,0.0,-5.2717,-5.2758,-5.3145,-5.4202,-5.4672,-5.5324,-5.6196,-5.7036,-5.7532,-5.7741,-5.8324,-5.8633,-5.8633,-5.8875,-5.9012,-5.9012,-6.0121,-6.0855,-6.1113,-6.2287,-6.3002,-6.3336,-6.3336,-6.3382,-6.3482,-6.3285,-6.3426,-6.3792,-6.3892,-6.4382,-6.4974,-6.4974,-6.4974,-6.4974,0.0,0.0,0.0,0.0,0.0,0.0,0.0,-3.9697,-3.9697,-3.9697,-3.9697,-3.9697,-3.9697,-3.9697,-3.9697,-3.9697,-3.9697,-3.9697,-3.9697,-3.9981,-4.016,-4.016,-4.016,-4.016,-4.016,-3.9878,-3.9697,-3.9697,-3.9697,-3.9697,-3.9697,-3.9697,-3.9697,-3.9697,-3.9697,-3.9697,-3.9697,-4.0083,-4.0364,-4.0743,-4.1219,-4.2208,-4.3341,0.0,0.0,0.0,0.0,0.0,0.0,0.0,0.0,0.0,0.0,0.0,0.0,0.0,0.0,0.0,0.0,0.0,0.0,0.0,0.0,0.0,0.0,0.0,0.0,0.0,0.0,0.0,0.0,0.0,0.0,0.0,0.0,0.0,0.0,-5.2586,-5.2712,-5.2712,-5.2712,-5.3013,-5.3873,-5.3839,-5.4259,-5.5312,-5.5895,-5.647,-5.7372,-5.7887,-5.8422,-5.9012,-5.9012,-5.9012,-5.9012,-5.9249,-5.9415,-5.9415,-6.082,-6.1512,-6.1623,-6.2732,-6.3336,-6.3465,-6.3465,-6.3511,-6.3602,-6.3915,-6.4291,-6.4734,-6.4837,-6.5299,-6.5897,-6.5897,-6.5897,-6.5897,0.0,0.0,0.0,0.0,0.0,0.0,-3.9697,-3.9697,-3.9697,-3.9697,-3.9697,-3.9697,-3.9697,-3.9697,-3.9697,-3.9697,-3.9697,-3.9697,-3.9697,-4.0642,-4.1119,-4.1119,-4.1119,-4.1119,-4.1119,-4.016,-3.9697,-3.9697,-3.9697,-3.9697,-3.9722,-3.9722,-3.9722,-3.9747,-3.9747,-3.9747,-3.9851,-4.0769,-4.0668,-3.9903,-4.1345,-4.1716,-4.1617,0.0,0.0,0.0,0.0,0.0,0.0,0.0,0.0,0.0,0.0,0.0,0.0,0.0,0.0,0.0,0.0,0.0,0.0,0.0,0.0,0.0,0.0,0.0,0.0,0.0,0.0,0.0,0.0,0.0,0.0,0.0,0.0,0.0,-5.3218,-5.3692,-5.4103,-5.4103,-5.4103,-5.4497,-5.5263,-5.5345,-5.6034,-5.7701,-5.7848,-5.8137,-5.8944,-5.9012,-5.9012,-5.9012,-5.9012,-5.9012,-5.9012,-5.9774,-6.0184,-6.0184,-6.1659,-6.2391,-6.2544,-6.311,-6.3465,-6.3602,-6.3602,-6.3602,-6.3602,-6.3602,-6.405,-6.4734,-6.5105,-6.5513,-6.5897,-6.5897,-6.5897,-6.5897,0.0,0.0,0.0,0.0,0.0,0.0,-3.9697,-3.9697,-3.9697,-3.9697,-3.9697,-3.9697,-3.9697,-3.9697,-3.9697,-3.9697,-3.9697,-3.9697,-3.9697,-3.9981,-4.0083,-4.0083,-4.0083,-4.0083,-4.0083,-3.9878,-3.9697,-3.9697,-3.9697,-3.9898,-4.03,-4.03,-4.0501,-4.0877,-4.167,-4.167,-4.0852,-4.1647,-4.1771,-4.144,-4.1402,-4.2181,-4.3436,0.0,0.0,0.0,0.0,0.0,0.0,0.0,0.0,0.0,0.0,0.0,0.0,0.0,0.0,0.0,0.0,0.0,0.0,0.0,0.0,0.0,0.0,0.0,0.0,0.0,0.0,0.0,0.0,0.0,0.0,0.0,-5.3976,-5.404,-5.385,-5.3976,-5.4103,-5.4103,-5.4633,-5.5293,-5.6139,-5.6741,-5.7219,-5.7686,-5.8294,-5.8462,-5.8137,-5.8702,-5.9012,-5.9012,-5.9149,-5.9251,-5.9251,-6.0001,-6.0406,-6.0406,-6.177,-6.2442,-6.2544,-6.3205,-6.3557,-6.3602,-6.3602,-6.3602,-6.3602,-6.3602,-6.405,-6.4699,-6.4803,-6.5299,-6.5897,-6.5897,-6.5897,-6.5897,0.0,0.0,0.0,0.0,0.0,0.0,-3.9697,-3.9697,-3.9697,-3.9697,-3.9697,-3.9697,-3.9697,-3.9697,-3.9697,-3.9697,-3.9697,-3.9697,-3.9697,-3.9697,-3.9878,-4.0262,-3.9878,-3.9697,-3.9697,-3.9697,-3.9798,-4.0049,-4.0049,-4.0325,-4.0852,-4.0852,-4.1028,-4.1329,-4.2527,-4.2631,-4.2106,-4.3397,-4.3841,-4.3814,-4.3463,-4.3421,-4.3654,-4.3273,-4.4059,-4.5293,-4.5776,-4.5685,-4.5504,-4.5776,0.0,0.0,0.0,0.0,0.0,0.0,0.0,0.0,0.0,0.0,0.0,0.0,0.0,0.0,0.0,0.0,0.0,0.0,0.0,0.0,0.0,0.0,0.0,0.0,-5.4545,-5.464,-5.4925,-5.4703,-5.4545,-5.4545,-5.5557,-5.6416,-5.6922,-5.7719,-5.8236,-5.8234,-5.8676,-5.8795,-5.8351,-5.8702,-5.9012,-5.9012,-5.9183,-5.9319,-5.9319,-6.0406,-6.095,-6.101,-6.2339,-6.2929,-6.2977,-6.3382,-6.3602,-6.3602,-6.3602,-6.3602,-6.3602,-6.3602,-6.405,-6.4699,0.0,0.0,0.0,0.0,-6.5897,-6.5897,0.0,0.0,0.0,0.0,0.0,0.0,-3.9772,-3.9747,-3.9722,-3.9772,-3.9747,-3.9697,-3.9697,-3.9697,-3.9697,-3.9697,-3.9697,-3.9697,-3.9697,-3.9697,-4.0083,-4.1019,-4.016,-3.9697,-3.9697,-3.9747,-4.0023,-4.0526,-4.0576,-4.0902,-4.143,-4.1537,-4.167,-4.172,-4.3023,-4.3517,-4.3517,-4.5465,-4.6349,-4.6251,-4.607,-4.5011,-4.3369,-4.3725,-4.4171,-4.4705,-4.5595,-4.5895,-4.5805,-4.5895,0.0,0.0,0.0,0.0,0.0,0.0,0.0,0.0,0.0,0.0,0.0,0.0,0.0,0.0,0.0,0.0,0.0,0.0,0.0,0.0,0.0,0.0,0.0,0.0,-5.5241,-5.5462,-5.6094,-5.5651,-5.5209,-5.5201,-5.6573,-5.756,-5.7707,-5.8522,-5.9098,-5.9116,-5.915,-5.9116,-5.9012,-5.9012,0.0,0.0,0.0,-5.9319,-5.9386,-6.0855,-6.1659,-6.1659,-6.2977,-6.3602,-6.3602,-6.3602,-6.3602,-6.3602,-6.3602,-6.3602,-6.3602,-6.3602,-6.405,-6.4699,-6.4803,-6.5268,-6.5897,-6.5897,-6.5897,-6.5897,0.0,0.0,0.0,0.0,0.0,0.0,-4.03,-3.9973,-3.9848,-4.03,-3.9973,-3.9697,-3.9697,-3.9697,-3.9697,-3.9697,-3.9697,-3.9697,-3.9697,-3.9697,-3.98,-3.9981,-3.98,-3.9697,-3.9697,-4.0124,-4.04,-4.0526,-4.0953,-4.1455,-4.2007,-4.2905,-4.3566,-4.4141,-4.6098,-4.6511,-4.5732,-4.6595,-4.7024,-4.6771,-4.5548,-4.5707,-4.6661,-4.5486,-4.5572,-4.6287,-4.5978,-4.5595,-4.5321,-4.5776,-4.5504,-4.523,-4.5685,-4.5805,0.0,0.0,0.0,0.0,0.0,0.0,0.0,0.0,0.0,0.0,0.0,0.0,0.0,0.0,0.0,0.0,0.0,0.0,0.0,-5.5873,-5.5967,-5.6031,-5.6157,-5.6062,-5.601,-5.6176,-5.7005,-5.7885,-5.8597,-5.9477,-5.9976,-5.9978,-5.9978,-5.9668,-5.9047,-5.9012,-5.9081,-5.9251,-5.9453,-5.9586,-5.9683,-6.1127,-6.1842,-6.1897,-6.3014,0.0,-6.3602,-6.3602,-6.3602,-6.3602,-6.3602,-6.3602,-6.3602,-6.3602,-6.405,-6.4769,-6.5388,-6.5781,-6.5897,-6.5897,-6.5897,-6.5897,0.0,0.0,0.0,0.0,0.0,0.0,-4.0877,-4.045,-4.0199,-4.0475,-4.0049,-3.9697,-3.9697,-3.9697,-3.9697,-3.9697,-3.9697,-3.9697,-3.9697,-3.9697,-3.9697,-3.9697,-3.9697,-3.9697,-3.9697,-4.0249,-4.0651,-4.0927,-4.148,-4.2032,-4.267,-4.3713,-4.4382,-4.4778,-4.6971,-4.7717,-4.7252,-4.8084,-4.8395,-4.8338,-4.7532,-4.7812,-4.8528,-4.6565,-4.6415,-4.7259,-4.694,-4.6639,-4.6454,-4.6732,-4.6454,-4.6146,-4.6639,-4.6639,-4.6547,0.0,0.0,0.0,0.0,0.0,0.0,0.0,0.0,0.0,0.0,0.0,0.0,0.0,0.0,-5.3885,-5.5348,0.0,-5.5873,-5.6599,-5.641,-5.6315,-5.6663,-5.679,-5.6841,-5.688,-5.7642,-5.8386,-5.8856,-5.9727,-6.0047,-5.9633,-5.9599,-5.9426,-5.9047,-5.9081,-5.9183,-5.9319,-5.9586,-5.9879,-6.0254,-6.1358,-6.2059,-6.2287,-6.3564,-6.4196,-6.4233,-6.4642,-6.4865,-6.4865,-6.4865,-6.4865,-6.4911,-6.5282,-6.5613,-6.6021,-6.6835,-6.6898,-6.6513,-6.6513,-6.6782,-6.7167,0.0,0.0,0.0,0.0,0.0,0.0,0.0,-4.0877,-4.0551,-4.0651,-4.0099,-3.9697,-3.9697,-3.9878,-4.0083,-4.0262,-4.0083,-3.9981,-3.9981,-3.98,-3.9697,-3.9697,-3.9697,-3.9747,-3.9848,-4.04,-4.0953,-4.1505,-4.2057,-4.2534,-4.2986,-4.4344,-4.4993,-4.5101,-4.7383,-4.8324,-4.8424,-4.9277,-4.9669,-4.9669,-4.9669,-4.9669,-4.9455,-4.7612,-4.7348,-4.7956,-4.7811,-4.7782,-4.7782,-4.7782,-4.747,-4.7186,-4.7688,-4.747,-4.7281,-4.7688,-4.7782,0.0,0.0,0.0,0.0,0.0,0.0,0.0,0.0,-5.0869,-5.2241,-5.2849,-5.4111,-5.538,-5.6252,-5.6283,-5.641,-5.7105,-5.6631,-5.6467,-5.7185,-5.7226,-5.7307,-5.7641,-5.8375,-5.8819,-5.8942,-5.9558,-5.9702,-5.9047,-5.9012,-5.9012,-5.9081,-5.9251,-5.9388,-5.9594,-6.0023,-6.0572,-6.1234,-6.2109,-6.2761,-6.3172,-6.4446,-6.5051,-6.5088,-6.5794,-6.6091,-6.6091,-6.6091,-6.6091,-6.6138,-6.6896,-6.72,-6.7273,-6.8071,-6.809,-6.759,-6.7398,-6.7782,-6.8398,0.0,0.0,0.0,0.0,0.0,0.0,0.0,0.0,-4.0701,-4.1178,-4.035,-3.9697,-3.9697,-4.0465,-4.1419,-4.2404,-4.1617,-4.1019,-4.1019,-4.016,-3.9697,-3.9697,-3.9697,-3.9923,-4.0425,-4.0978,-4.1505,-4.2057,-4.261,-4.2911,-4.3098,-4.5182,-4.611,-4.6215,-4.8524,-4.9473,-4.9571,-4.9669,-4.9669,-4.9669,-4.9669,-4.9669,-4.9669,-4.9397,-4.8992,-4.8537,-4.7985,-4.7782,-4.7782,-4.7782,-4.7782,-4.7688,-4.7782,-4.7782,-4.7688,-4.7782,-4.7782,-4.7782,-4.7782,-4.8188,-4.8577,-4.8722,-4.9622,-5.0154,0.0,-5.0917,-5.274,-5.3061,-5.414,-5.553,-5.6888,-5.6599,-5.641,-5.7105,-5.6631,-5.6455,-5.7238,-5.688,-5.7086,-5.858,-5.8841,-5.8909,-5.8978,-5.9082,-5.9116,-5.9012,-5.9012,-5.9081,-5.9251,-5.9319,-5.9765,-6.0796,-6.1341,-6.2159,-6.3092,-6.4276,-6.4897,-6.4949,-6.5631,-6.5942,-6.5979,-6.6054,-6.6091,-6.6091,-6.6091,-6.6091,-6.6138,-6.6896,-6.72,-6.7273,-6.8071,-6.8821,-6.9321,-6.8552,-6.8321,-6.8398,0.0,0.0,0.0,0.0,0.0,0.0,0.0,0.0,-4.0601,-4.0827,-4.0174,-3.9697,-3.9697,-4.0541,-4.1617,-4.2695,-4.1815,-4.1219,-4.1219,-4.0262,-3.9697,-3.9697,-3.9697,-3.9948,-4.0501,-4.1053,-4.1605,-4.2158,-4.271,-4.3295,-4.4042,-4.5608,-4.6632,-4.7383,-4.8951,-4.9669,-4.9669,-4.9669,-4.9669,-4.9669,-4.9669,-4.9669,-4.9669,-4.9669,-4.9524,-4.9233,-4.8972,-4.8885,0.0,-4.8885,-4.8885,-4.8885,-4.8885,-4.8885,-4.8885,-4.8885,-4.8885,-4.8885,-4.8499,-4.8862,-4.9379,-4.9366,-5.0112,-5.0701,-5.0599,-5.2052,-5.3592,-5.408,-5.5008,-5.6019,-5.6983,-5.6663,-5.6283,-5.6568,-5.6031,-5.5875,-5.6699,-5.6988,-5.7595,-5.8747,-5.9706,-5.997,-5.9047,-5.9426,-5.9702,-5.9702,-6.0116,-6.0427,-6.0635,-6.0773,-6.1083,-6.1666,-6.2379,-6.3106,-6.3847,-6.4748,-6.5396,-6.573,-6.6442,-6.6797,-6.6834,-6.728,-6.7503,-6.7503,-6.7503,-6.7503,-6.755,-6.8077,-6.8449,-6.8716,-6.9305,-6.9846,-7.0283,-6.9475,-6.9436,-6.986,0.0,0.0,0.0,0.0,0.0,0.0,0.0,0.0,0.0,0.0,-4.0413,-4.0364,-4.0945,-4.1617,-4.2474,-4.3559,-4.2668,-4.1887,-4.1617,-4.0642,-3.9981,-3.9697,-3.9697,-3.9948,-4.0501,-4.1053,-4.1713,-4.2678,-4.3237,-4.4042,-4.5208,-4.6242,-4.7177,-4.8021,-4.9149,-4.9669,-4.9669,-4.9669,-4.9669,-4.9669,-4.9669,-4.9669,-4.9669,-4.9669,-4.9669,-4.9669,-4.9669,-4.9669,-4.9669,-4.9669,-4.9669,-4.9669,-4.9669,-4.9669,-4.9669,-4.9669,-4.9814,-4.989,-4.9666,-4.994,-5.0284,-5.0284,-5.0771,-5.1436,-5.2078,-5.3217,-5.4405,-5.5053,-5.5689,-5.6347,-5.6852,-5.6378,-5.5904,-5.5904,-5.5462,-5.5375,-5.6279,-5.7314,-5.8286,-5.9126,-6.0408,-6.0875,-5.9737,-6.0151,-6.0496,-6.0496,-6.1084,-6.143,-6.1641,-6.1883,-6.2193,-6.2573,-6.3322,-6.404,-6.4867,-6.555,-6.616,-6.676,-6.7354,-6.7651,-6.7651,-6.8246,-6.8506,-6.8506,-6.8506,-6.8506,-6.8554,-6.9047,-6.9428,-6.974,-7.0271,-7.0622,-7.0821,-7.0244,-7.0398,-7.0898,0.0,0.0,0.0,0.0,0.0,0.0,0.0,0.0,0.0,0.0,0.0,-4.1887,-4.3937,-4.4219,-4.462,-4.5685,-4.4805,-4.3843,-4.2792,-4.1716,-4.0743,-3.9697,-3.9697,-3.9948,-4.0501,-4.1053,-4.2118,-4.3781,-4.4382,-4.5182,-4.6215,-4.7383,-4.792,-4.8021,-4.9149,-4.9669,-4.9669,-4.9669,-4.9669,-4.9669,-4.9669,-4.9669,-4.9669,-4.9669,-4.9669,-4.9669,-4.9669,-4.9669,-4.9669,-4.9669,-4.9669,-4.9669,-4.9669,-4.9669,-4.9669,-4.9669,-5.0133,-5.0772,-5.1381,-5.1585,-5.1585,-5.1585,-5.2078,-5.2748,-5.3532,-5.4329,-5.5079,-5.5811,-5.6088,-5.6189,-5.622,-5.5651,-5.5146,-5.5146,-5.5146,-5.5375,-5.6279,-5.774,-5.9052,-5.9827,-6.075,-6.1289,-6.122,-6.1254,-6.1254,-6.1254,-6.1501,-6.1641,-6.1883,-6.2123,-6.2608,-6.3547,-6.4102,-6.5115,-6.6496,-6.7195,-6.7804,-6.8431,-6.8468,-6.8468,-6.8468,-6.8506,-6.8506,-6.8506,-6.8506,-6.8506,-6.8554,-6.9385,-6.9702,-6.9777,-7.0563,-7.0898,-7.0898,-7.086,-7.0898,-7.0898,0.0,0.0,0.0,0.0,0.0,0.0,0.0,0.0,0.0,0.0,0.0,0.0,0.0,0.0,0.0,0.0,-4.4897,-4.4125,-4.3843,-4.2181,-4.1019,-4.0743,-4.0083,-3.9948,-4.0501,-4.1053,-4.1821,-4.2761,-4.4084,-4.5289,-4.6319,-4.7485,-4.8424,-4.9149,-4.9571,-4.9669,-4.9669,-4.9669,-4.9669,-4.9669,-4.9669,-4.9669,-4.9669,-4.9669,-4.9669,-4.9669,0.0,-4.9669,-4.9669,-4.9669,-4.9669,-4.9669,-4.9669,-4.9669,-4.9756,-5.022,-5.0801,-5.1352,-5.1556,-5.1933,-5.2252,-5.2252,-5.2397,-5.2778,-5.3562,-5.3999,-5.4409,-5.5163,-5.5775,-5.6189,-5.6189,-5.5999,-5.5841,-5.5841,-5.5841,-5.6161,-5.6925,-5.8462,-5.9818,-6.068,-6.1947,-6.2841,-6.2841,-6.2358,-6.2154,-6.2228,-6.2818,-6.3238,-6.3555,-6.3659,-6.3868,-6.432,-6.4983,-6.5689,-6.6605,-6.7268,-6.7878,-6.8506,-6.8506,-6.8506,-6.8506,-6.8506,-6.8506,-6.8506,-6.8506,-6.8506,-6.8554,-6.9047,-6.9468,-6.974,-7.0304,-7.069,-7.0898,-7.0898,-7.0898,-7.0898,0.0,0.0,0.0,0.0,0.0,0.0,0.0,0.0,0.0,0.0,0.0,0.0,0.0,0.0,0.0,0.0,0.0,-4.4712,-4.4312,-4.3054,-4.2181,-4.1815,-4.1145,-4.0924,-4.1286,-4.206,-4.2813,-4.3599,-4.4705,-4.6032,-4.7485,-4.7819,-4.8653,-4.9669,-4.9669,-4.9669,-4.9669,-4.9669,-4.9669,-4.9669,-4.9669,-4.9669,-4.9669,-4.9669,-4.9669,0.0,-4.9669,-4.9669,-4.9669,-4.9669,-4.9669,-4.9727,-4.9959,-5.0191,-5.0511,-5.1149,-5.1643,-5.1991,-5.2223,-5.2601,-5.2862,-5.263,-5.2572,-5.2719,-5.3266,-5.3458,-5.38,-5.4823,-5.543,-5.5873,-5.6125,-5.6189,-5.6189,-5.6189,-5.6378,-5.6715,-5.7268,-5.9016,-6.047,-6.0952,-6.2548,-6.36,-6.36,-6.3259,-6.3021,-6.313,-6.3724,-6.4145,-6.4393,-6.4463,-6.4568,-6.4706,-6.5374,-6.5976,-6.6605,-6.7268,-6.7878,-6.8506,-6.8506,-6.8506,-6.8506,-6.8506,-6.8506,-6.8506,-6.8506,-6.8506,-6.8554,-6.8952,-6.9344,-6.974,-7.0133,-7.0754,-7.136,-7.136,-7.1552,-7.1745,0.0,0.0,0.0,0.0,0.0,0.0,0.0,0.0,0.0,0.0,0.0,0.0,0.0,0.0,0.0,0.0,0.0,0.0,-4.4406,-4.4312,-4.3843,-4.2889,-4.2792,-4.2792,-4.2792,-4.3932,-4.5001,-4.6083,-4.6181,-4.7402,-4.9513,-4.8496,-4.8624,-4.9669,-4.9669,-4.9669,-4.9669,-4.9669,-4.9669,-4.9669,-4.9669,-4.9669,-4.9669,-4.9669,-4.9669,-4.9669,-4.9669,-4.9669,-4.9669,-4.9669,-4.9698,-4.9843,-5.0511,-5.1149,-5.1788,-5.2397,-5.2601,-5.2746,-5.3326,-5.3471,-5.3326,-5.2688,-5.2587,-5.2617,-5.2744,-5.2893,-5.3375,-5.4761,-5.5207,-5.543,-5.6125,-5.6252,-5.6283,-5.6283,-5.6852,-5.7263,-5.7354,-5.9426,-6.092,-6.1003,-6.2513,-6.36,-6.36,-6.382,-6.3927,-6.3927,-6.4217,-6.4393,-6.4393,-6.4568,-6.4706,-6.4706,-6.5308,-6.5976,-6.6605,-6.7305,-6.793,-6.8506,-6.8506,-6.8506,-6.8506,-6.8506,-6.8543,-6.858,-6.858,-6.858,-6.8666,-6.9065,-6.9457,-6.9853,-7.0286,-7.1176,-7.2283,-7.2283,-7.2783,-7.3283,0.0,0.0,0.0,0.0,0.0,0.0,0.0,0.0,0.0,0.0,0.0,0.0,0.0,0.0,0.0,0.0,0.0,0.0,-4.5504,-4.4712,-4.4219,-4.3937,-4.3177,-4.2792,-4.2792,-4.3525,-4.4004,-4.43,-4.5536,-4.6671,-4.7744,-4.8264,-4.8913,-4.9669,-4.9669,-4.9669,-4.9669,-4.9669,-4.9669,-4.9669,-4.9669,-4.9669,-4.9669,-4.9669,-4.9669,-4.9669,-4.9669,-4.9669,-4.9669,-4.9669,-5.0017,-5.054,-5.1178,-5.1817,-5.2368,-5.2514,-5.2891,-5.321,-5.2891,-5.2804,-5.2659,-5.202,-5.19,-5.218,-5.2743,-5.3314,-5.3956,-5.4894,-5.5915,-5.6726,-5.6915,-5.739,-5.7737,-5.7737,-5.7895,-5.8264,-5.892,-6.0063,-6.1168,-6.185,-6.2931,-6.3673,-6.382,-6.3999,-6.418,-6.4287,-6.4323,-6.4463,-6.4637,-6.4637,-6.4706,-6.4706,-6.4911,-6.5468,-6.6605,-6.7684,-6.8358,-6.8506,-6.8506,-6.8506,-6.8506,-6.8506,-6.884,-6.9397,-6.9397,-6.9732,-7.0289,-7.0779,-7.1191,-7.1598,-7.2005,-7.2563,-7.3168,-7.3168,-7.3322,-7.3437,0.0,0.0,0.0,0.0,0.0,0.0,0.0,0.0,0.0,0.0,0.0,0.0,0.0,0.0,0.0,0.0,0.0,0.0,0.0,-4.5293,-4.4989,-4.4989,-4.4434,-4.4153,-4.4153,-4.4741,-4.4953,-4.4953,-4.5761,-4.653,-4.7413,-4.7481,-4.8143,-4.9262,-4.9262,-4.9407,-4.9669,-4.9669,-4.9669,0.0,0.0,-4.9669,-4.9669,-4.9669,-4.9669,-4.9669,-4.9669,-4.9872,-5.0191,-5.0743,-5.1207,-5.1556,-5.1933,-5.2484,-5.2978,-5.2978,-5.3036,-5.3007,-5.2659,-5.2368,-5.1991,-5.1381,-5.1513,-5.1929,-5.2347,-5.3254,-5.4262,-5.5336,-5.6392,-5.7326,-5.7611,-5.799,-5.8274,-5.8274,-5.8274,-5.861,-5.9531,-6.0332,-6.125,-6.2201,-6.3083,-6.3673,-6.3747,-6.4349,-6.4739,-6.4776,-6.4603,-6.4568,-6.4706,-6.4706,-6.4882,-6.5233,-6.5738,-6.687,-6.8458,-6.9207,-6.9583,-6.9583,-6.9583,-6.9583,-6.9583,-6.9583,-6.9806,-7.0252,-7.0252,-7.0512,-7.092,-7.1179,-7.1561,-7.1999,-7.2358,-7.3021,-7.3768,-7.3957,-7.4284,-7.4591,0.0,0.0,0.0,0.0,0.0,0.0,0.0,0.0,0.0,0.0,0.0,0.0,0.0,0.0,0.0,0.0,0.0,0.0,0.0,0.0,-4.5895,-4.5895,-4.5895,-4.5895,-4.5895,-4.6417,-4.6708,-4.6708,-4.6234,-4.6643,-4.7666,-4.6633,-4.707,-4.8595,-4.8595,-4.8943,-4.9553,-4.9553,-4.9582,-4.9669,-4.9669,-4.9669,-4.9669,0.0,-4.9669,-4.9698,-4.9785,-5.0278,-5.1091,-5.2194,-5.2572,-5.2572,-5.2659,-5.3065,-5.35,-5.3413,-5.3007,-5.2543,-5.2368,-5.1904,-5.1352,-5.0714,-5.1287,-5.1995,-5.1935,-5.319,-5.4787,-5.5969,-5.6806,-5.7548,-5.8148,-5.8274,-5.8274,-5.8274,-5.8274,-5.861,-5.9531,-6.0332,-6.1283,-6.2302,-6.3254,-6.3772,-6.395,-6.4867,-6.5468,-6.5541,-6.5198,-6.5022,-6.5022,-6.5022,-6.5407,-6.6145,-6.7393,-6.895,-7.0731,-7.087,-7.092,-7.092,-7.092,-7.092,-7.092,-7.092,-7.0958,-7.1069,-7.1069,-7.1143,-7.1255,-7.1255,-7.1563,-7.204,-7.2384,-7.3269,-7.438,-7.4743,-7.5361,-7.6015,0.0,0.0,0.0,0.0,0.0,0.0,0.0,0.0,0.0,0.0,-4.511,-4.5685,0.0,0.0,0.0,0.0,0.0,0.0,0.0,0.0,0.0,-4.5895,-4.5895,-4.5895,-4.5895,-4.5982,-4.604,-4.604,-4.5974,-4.6292,-4.6998,-4.6784,-4.7131,-4.7956,-4.7956,-4.8304,-4.8885,-4.8885,-4.9175,-4.9669,-4.9669,-4.9669,-4.9669,-4.9669,0.0,0.0,-5.0307,-5.1265,-5.2281,-5.2484,-5.2572,-5.2659,-5.3181,-5.3442,-5.3413,-5.2891,-5.2659,-5.2339,-5.1294,-5.0917,-5.0685,-5.0017,-5.1261,-5.2695,-5.2695,-5.4792,-5.6735,-5.6987,-5.7582,-5.8116,-5.8243,-5.8274,-5.8274,-5.8274,-5.8274,-5.861,-5.9531,-6.0332,-6.1483,-6.3012,-6.4008,-6.4922,-6.5877,-6.616,-6.6415,-6.667,-6.6601,-6.6602,-6.6602,-6.6602,-6.6918,-6.7705,-6.8958,-6.976,-7.0165,-7.0628,-7.092,-7.092,-7.092,-7.092,-7.092,-7.092,-7.1292,-7.1961,-7.1961,-7.2332,-7.2964,-7.2964,-7.3447,-7.4207,-7.421,-7.4824,-7.5656,-7.5755,-7.5861,-7.6015,0.0,0.0,0.0,0.0,0.0,0.0,0.0,-4.2861,-4.3748,-4.4219,-4.5201,-4.5895,-4.5895,-4.5895,-4.5895,0.0,0.0,0.0,0.0,0.0,0.0,-4.5895,-4.5895,-4.5895,-4.5895,-4.5895,-4.5895,-4.5895,0.0,-4.604,-4.633,-4.633,-4.6679,-4.7288,-4.7288,-4.7637,-4.8217,-4.8217,-4.8595,-4.9175,-4.9175,-4.9378,-4.9669,-4.9669,0.0,0.0,-5.1323,-5.2049,-5.263,-5.2949,-5.3065,-5.3123,-5.3413,-5.35,-5.3384,-5.2746,-5.2339,-5.1875,-5.0917,-5.0423,-5.0162,-5.0191,-5.1535,-5.3064,-5.3763,-5.5658,-5.7326,-5.7674,-5.8022,-5.8274,-5.8274,-5.8274,-5.8274,-5.8274,-5.8274,-5.861,-5.9531,-6.0693,-6.1983,-6.3214,-6.4633,-6.5689,-6.6294,-6.6899,-6.7291,-6.7476,-6.7934,-6.7866,-6.7058,-6.7693,-6.8421,-6.9209,-7.0529,-7.1416,-7.178,-7.2081,-7.2184,-7.2184,-7.2184,-7.2184,-7.2184,-7.2184,-7.2444,-7.2815,-7.2815,-7.3038,-7.3372,-7.3372,-7.38,-7.4331,-7.4585,-7.5094,-7.5654,-7.5917,-7.6015,-7.5976,0.0,0.0,0.0,0.0,0.0,0.0,0.0,-4.3843,-4.462,-4.462,-4.5384,-4.5895,-4.5895,-4.5895,-4.5895,0.0,0.0,0.0,0.0,0.0,0.0,0.0,0.0,0.0,-4.5895,0.0,0.0,-4.5895,-4.5895,0.0,0.0,0.0,0.0,0.0,-4.6621,-4.6969,-4.7579,-4.7579,-4.7956,0.0,0.0,-4.903,-4.9494,0.0,0.0,0.0,0.0,-5.2659,-5.2862,-5.3355,-5.35,-5.35,-5.3355,-5.3326,-5.3152,-5.2397,-5.1817,-5.1265,-5.0627,-5.0075,-4.9843,-5.0511,-5.1795,-5.3209,-5.4613,-5.606,-5.7396,-5.8148,-5.8274,-5.8274,-5.8274,-5.8274,-5.8274,-5.8274,-5.8401,-5.8832,-5.9725,-6.1304,-6.2766,-6.3755,-6.5362,-6.6491,-6.6705,-6.7561,-6.8134,-6.8208,-6.8951,-6.8887,-6.7764,-6.8987,-7.0001,-7.0629,-7.1903,-7.2871,-7.3372,-7.3372,-7.3372,-7.3372,-7.3372,-7.3372,-7.3372,-7.3372,-7.3372,-7.3372,-7.3372,-7.3372,-7.3372,-7.3372,-7.3703,-7.4192,-7.4582,-7.5019,-7.5485,-7.5848,-7.6015,-7.6015,0.0,0.0,0.0,0.0,0.0,0.0,0.0,-4.4527,-4.5776,-4.5776,-4.5895,-4.5895,-4.5895,-4.5895,-4.5895,0.0,0.0,0.0,0.0,0.0,0.0,0.0,0.0,0.0,0.0,0.0,0.0,-4.5895,-4.5895,0.0,0.0,0.0,0.0,0.0,0.0,-4.633,-4.6911,-4.6911,0.0,0.0,0.0,0.0,0.0,0.0,0.0,0.0,0.0,-5.2949,-5.3442,-5.35,-5.35,-5.3413,-5.2833,-5.2659,-5.2426,-5.1207,-5.0801,-5.0627,-4.9959,-4.9727,-4.9843,-5.0511,-5.1758,-5.3136,-5.4607,-5.605,-5.7307,-5.815,-5.8274,-5.8274,-5.8274,-5.8274,-5.8274,-5.8274,-5.8812,-5.9532,-6.0469,-6.2026,-6.3581,-6.5241,-6.6337,-6.7307,-6.835,-6.8566,-6.8752,-6.927,-6.934,-6.9562,-7.0056,-7.0793,-7.1526,-7.216,-7.2926,-7.332,-7.3372,-7.3372,-7.3372,-7.3372,-7.3372,-7.3372,-7.3372,-7.3372,-7.3372,-7.3372,-7.3372,-7.3372,-7.3372,-7.3372,-7.3859,-7.4664,-7.4705,-7.5241,-7.5947,-7.5976,-7.6015,-7.6015,0.0,0.0,0.0,0.0,0.0,0.0,-4.4434,-4.5384,-4.5895,-4.5895,-4.5895,-4.5895,-4.5895,-4.5895,-4.5895,-4.5895,0.0,0.0,0.0,0.0,0.0,0.0,0.0,0.0,0.0,0.0,-4.5895,-4.5895,-4.5895,0.0,0.0,0.0,0.0,0.0,0.0,-4.6011,-4.6272,-4.6272,0.0,0.0,0.0,0.0,0.0,0.0,0.0,0.0,0.0,0.0,-5.35,-5.35,-5.35,-5.3384,-5.2775,-5.231,-5.1817,-5.0946,-5.0685,-5.054,-4.9843,-4.9959,-5.0423,-5.1091,-5.2306,-5.3724,-5.5145,-5.6291,-5.7275,-5.8182,-5.8274,-5.8274,-5.8274,-5.8274,-5.8367,-5.8642,-5.9306,-6.0088,-6.1153,-6.3093,-6.4808,-6.5725,-6.7281,-6.8392,-6.867,-6.8967,-6.9192,-6.9376,-6.9376,-6.9885,-7.0937,-7.1259,-7.1696,-7.2386,-7.3071,-7.3372,-7.3372,-7.3372,-7.3372,-7.3372,-7.3372,-7.3372,-7.3372,-7.3372,-7.3372,-7.3372,-7.3372,-7.3372,-7.3372,-7.3372,-7.3906,-7.4705,-7.4705,-7.5241,-7.6015,-7.6015,-7.6015,-7.6015,0.0,0.0,0.0,0.0,0.0,-4.3273,-4.4712,-4.5504,-4.5895,-4.5895,-4.5895,-4.5895,-4.5895,-4.5895,-4.5895,-4.5895,-4.5895,0.0,0.0,0.0,0.0,0.0,0.0,0.0,0.0,0.0,-4.5895,-4.5895,-4.5895,-4.5895,0.0,0.0,-4.5895,-4.5895,0.0,0.0,0.0,0.0,0.0,0.0,0.0,0.0,0.0,0.0,0.0,0.0,0.0,0.0,0.0,0.0,0.0,-5.3384,-5.2775,-5.2136,-5.1497,-5.0859,-5.054,-5.0278,-4.9814,-5.0162,-5.083,-5.1468,-5.2485,-5.3841,-5.5569,-5.6311,-5.6988,-5.8089,-5.8274,-5.8274,-5.8274,-5.8274,-5.8367,-5.8733,-5.9681,-6.0773,-6.1829,-6.4,-6.5816,-6.646,-6.7973,-6.8967,-6.8816,-6.9192,-6.9376,-6.9376,-6.9376,-7.0026,-7.1323,-7.1386,-7.1818,-7.2705,-7.3124,-7.3372,-7.3372,-7.3372,-7.3372,-7.3372,-7.3372,-7.3372,-7.3372,-7.3372,-7.3372,-7.3372,-7.3372,-7.3372,-7.3372,-7.3372,-7.3906,-7.4705,-7.4705,-7.5241,-7.6015,-7.6015,-7.6015,-7.6015,0.0,0.0,0.0,0.0,0.0,0.0,-4.2792,-4.462,-4.5895,-4.5895,-4.5895,-4.5895,-4.5895,-4.5895,-4.5895,-4.5895,-4.5895,0.0,0.0,0.0,0.0,0.0,0.0,0.0,0.0,0.0,-4.5895,-4.5895,-4.5895,-4.5895,-4.5895,-4.5895,-4.5895,-4.5895,0.0,0.0,0.0,0.0,0.0,0.0,0.0,0.0,0.0,0.0,0.0,0.0,0.0,0.0,0.0,0.0,0.0,0.0,0.0,-5.2136,-5.1497,-5.0859,-5.022,-4.9698,-4.9669,-5.0162,-5.083,-5.1468,-5.2107,-5.3231,-5.537,-5.5918,-5.6409,-5.7965,-5.8274,-5.8274,-5.8274,-5.8274,-5.8274,-5.8274,-5.9879,-6.1391,-6.232,-6.4681,-6.6677,-6.7684,-6.8319,-6.8781,-6.9078,-6.9302,-6.9376,-6.9376,-6.9376,-7.0026,-7.1323,-7.1386,-7.1998,-7.332,-7.3372,-7.3372,-7.3372,-7.3372,-7.3372,-7.3372,-7.3372,-7.3372,-7.3372,-7.3372,-7.3372,-7.3372,-7.3372,-7.3372,-7.3372,-7.3372,-7.3906,-7.4705,-7.4705,-7.5241,-7.6015,-7.6015,-7.6015,-7.6015,0.0,0.0,0.0,0.0,0.0,0.0,0.0,-4.5018,-4.5895,-4.5895,-4.5895,-4.5895,-4.5895,-4.5895,-4.5895,-4.5895,-4.5895,0.0,0.0,0.0,0.0,0.0,0.0,0.0,0.0,0.0,-4.5895,-4.5895,-4.5895,-4.5895,-4.5895,-4.5895,-4.5895,-4.5895,-4.5895,-4.5895,0.0,0.0,0.0,0.0,0.0,0.0,-5.1352,0.0,0.0,0.0,0.0,0.0,0.0,0.0,0.0,0.0,0.0,0.0,0.0,-5.1381,-5.054,-4.9669,-4.9669,-5.0481,-5.1381,-5.1556,-5.2426,-5.3552,-5.4756,-5.5521,-5.6213,-5.7275,-5.7871,-5.8274,-5.8274,-5.8274,-5.855,-5.9152,-6.0612,-6.197,-6.3053,-6.5261,-6.6995,-6.7209,-6.8128,-6.8781,-6.9078,-6.9302,-6.9376,-6.9376,-6.9376,-7.0026,-7.1323,-7.1386,-7.1998,-7.3372,-7.3372,-7.3372,-7.3372,-7.3372,-7.3372,-7.3372,-7.3372,-7.3372,-7.3372,-7.3372,-7.3372,-7.3372,-7.3372,-7.3372,-7.3424,-7.3703,-7.4147,-7.4745,-7.4981,-7.5485,-7.6015,-7.6015,-7.6015,-7.6015,0.0,0.0,0.0,0.0,0.0,0.0,0.0,-4.462,-4.5384,-4.5895,-4.5895,-4.5895,-4.5895,-4.5895,-4.5895,-4.5895,-4.5895,0.0,0.0,0.0,0.0,0.0,0.0,0.0,-4.5895,-4.5895,-4.5895,-4.5895,-4.5895,-4.5895,-4.5895,-4.5895,-4.5895,-4.5895,-4.5895,-4.5895,0.0,0.0,0.0,0.0,0.0,0.0,-5.1614,0.0,0.0,0.0,0.0,0.0,0.0,0.0,0.0,0.0,0.0,0.0,0.0,0.0,-5.0888,-4.9988,-4.9756,-5.0627,-5.1614,-5.1614,-5.2572,-5.3815,-5.4887,-5.5521,-5.6213,-5.7275,-5.7965,-5.8274,-5.8274,-5.8274,-5.855,-5.9331,-6.0612,-6.2061,-6.3226,-6.5379,-6.6962,-6.7582,-6.8362,-6.8892,-6.9078,-6.9302,-6.9376,-6.9376,-6.9376,-7.0026,-7.1323,-7.1386,-7.1998,-7.3372,-7.3372,-7.3372,-7.3372,-7.3372,-7.3372,-7.3372,-7.3372,-7.3372,-7.3372,-7.3372,-7.3372,-7.3372,-7.3372,-7.3372,0.0,-7.3859,-7.4243,-7.4745,-7.5129,-7.5584,-7.6015,-7.6015,-7.6015,-7.6015,0.0,0.0,0.0,0.0,0.0,0.0,0.0,-4.3531,-4.462,-4.5685,-4.5776,-4.5805,-4.5895,-4.5895,-4.5895,-4.5895,0.0,0.0,0.0,0.0,0.0,0.0,0.0,0.0,-4.5895,-4.5895,-4.5895,-4.5895,-4.5895,-4.5895,-4.5895,-4.5895,-4.5895,-4.5895,-4.5895,-4.5895,0.0,0.0,0.0,0.0,-4.7869,-4.9407,0.0,0.0,0.0,0.0,0.0,0.0,0.0,0.0,0.0,0.0,0.0,0.0,0.0,0.0,0.0,0.0,0.0,-5.0627,-5.1614,-5.1614,-5.2572,-5.3919,-5.5421,-5.5819,0.0,-5.7871,-5.8274,-5.8274,-5.8274,-5.8274,-5.8459,-5.9004,-6.0156,-6.1574,-6.3,-6.5006,-6.6928,-6.8517,-6.8892,-6.9078,-6.9078,-6.9302,-6.9376,-6.9376,-6.9376,-7.0026,-7.1323,-7.1386,-7.1998,-7.3372,-7.3372,-7.3372,-7.3372,-7.3372,-7.3372,-7.3372,-7.3372,-7.3372,-7.3372,-7.3372,-7.3372,-7.3372,-7.3372,-7.3372,-7.3424,-7.3906,-7.4287,-7.4745,-7.5203,-7.5622,-7.6015,-7.6015,-7.6015,-7.6015,0.0,0.0,0.0,0.0,0.0,0.0,0.0,0.0,0.0,0.0,-4.4712,-4.4989,-4.5776,-4.5895,-4.5895,0.0,0.0,0.0,0.0,0.0,0.0,0.0,0.0,0.0,-4.5895,-4.5895,-4.5895,-4.5895,-4.5895,-4.5895,-4.5895,-4.5895,-4.5895,-4.5895,-4.5895,-4.5895,0.0,0.0,0.0,0.0,-4.8856,-5.022,0.0,0.0,0.0,0.0,-5.35,-5.35,0.0,0.0,0.0,0.0,0.0,0.0,0.0,0.0,-5.1178,-5.054,-4.9843,0.0,-5.1614,-5.1614,-5.2572,-5.371,0.0,-5.5421,-5.6213,-5.718,-5.7871,-5.8274,-5.8274,-5.8274,-5.855,-5.9363,-6.0431,-6.1607,-6.3,-6.5176,-6.7044,-6.8284,-6.8628,-6.8892,-6.9078,-6.9302,-6.9376,-6.9376,-6.9376,-7.0026,-7.1323,-7.1386,-7.1998,-7.3372,-7.3372,-7.3372,-7.3372,-7.3372,-7.3372,-7.3372,-7.3372,-7.3372,-7.3372,-7.3372,-7.3372,-7.3372,-7.3372,-7.3372,-7.3476,-7.4237,-7.4623,-7.4786,-7.5556,-7.5917,-7.6015,-7.6015,-7.6015,-7.6015,0.0,0.0,0.0,0.0,0.0,0.0,0.0,0.0,0.0,0.0,0.0,-4.5293,-4.5895,-4.5895,0.0,0.0,0.0,0.0,0.0,0.0,0.0,0.0,0.0,-4.5895,-4.5895,-4.5895,-4.5895,-4.5895,-4.5895,-4.5895,-4.5895,-4.5895,-4.5895,-4.5895,-4.5895,-4.5895,0.0,0.0,0.0,-4.7898,-4.9204,0.0,0.0,0.0,0.0,0.0,-5.35,-5.35,0.0,-5.35,-5.35,-5.35,0.0,0.0,0.0,0.0,-5.1381,-5.0888,-4.993,-5.0423,-5.1265,-5.1556,-5.2368,-5.3464,-5.4929,-5.562,-5.6213,-5.7401,-5.7965,-5.8274,-5.8274,-5.8274,-5.8645,-5.9659,-6.0348,-6.1616,-6.3947,-6.5749,-6.7209,-6.8319,-6.874,-6.8892,-6.8892,-6.9227,-6.9376,-6.9376,-6.9376,-7.0026,-7.1323,-7.1386,-7.1998,-7.3372,-7.3372,-7.3372,-7.3372,-7.3372,-7.3372,-7.3372,-7.3372,-7.3372,-7.3372,-7.3372,-7.3372,-7.3372,-7.3372,-7.349,-7.3752,-7.4412,-7.4825,-7.5018,-7.5756,-7.6015,-7.6015,-7.6015,-7.6015,-7.6015,0.0,0.0,0.0,0.0,0.0,0.0,0.0,0.0,0.0,0.0,0.0,0.0,0.0,0.0,0.0,0.0,0.0,0.0,0.0,0.0,0.0,0.0,-4.5895,-4.5895,-4.5895,-4.5895,-4.5895,-4.5895,-4.5895,-4.5895,-4.5895,-4.5895,-4.5895,-4.5895,-4.5895,-4.5924,0.0,-4.6708,-4.7346,-4.8043,-4.9465,0.0,0.0,0.0,0.0,0.0,0.0,0.0,0.0,-5.35,-5.35,-5.35,-5.35,0.0,0.0,0.0,0.0,0.0,-5.0046,-5.0261,-5.1,-5.1641,-5.2282,-5.3334,-5.5569,-5.6115,-5.6506,-5.7965,-5.8274,-5.8274,-5.8274,-5.8274,-5.868,-5.9777,-6.0544,-6.2156,-6.5326,-6.6559,-6.7535,-6.8319,-6.8816,-6.8967,-6.8781,-6.9192,-6.9376,-6.9376,-6.9522,-7.0061,-7.1323,-7.1511,-7.2116,-7.3372,-7.3372,-7.3372,-7.3372,-7.3372,-7.3372,-7.3372,-7.3372,-7.3372,-7.3372,-7.3372,-7.3372,-7.3372,-7.3372,-7.3604,-7.4056,-7.454,-7.4904,-7.5344,-7.5818,-7.6015,-7.6015,-7.6015,-7.6015,-7.6015,0.0,0.0,0.0,0.0,0.0,0.0,0.0,0.0,0.0,0.0,0.0,0.0,0.0,0.0,0.0,0.0,0.0,0.0,0.0,0.0,0.0,-4.5895,-4.5895,-4.5895,-4.5895,-4.5895,-4.5895,-4.5895,-4.5895,-4.5895,-4.5895,-4.5895,-4.5895,-4.5895,-4.5895,-4.6185,-4.6737,-4.7375,-4.8014,-4.874,-5.0598,0.0,0.0,0.0,0.0,0.0,0.0,0.0,0.0,-5.35,-5.35,-5.35,-5.35,0.0,0.0,0.0,0.0,0.0,-5.0046,-5.0593,-5.1824,-5.2506,-5.3089,-5.4242,-5.6449,-5.6892,-5.718,-5.8089,-5.8274,-5.8274,-5.8274,-5.8274,-5.868,-5.9777,-6.2386,-6.4767,-6.6289,-6.7291,-6.8083,-6.8628,-6.8705,-6.8857,-6.9302,-6.9376,-6.9376,-6.9376,-6.9956,-7.0575,-7.1386,-7.1938,-7.2556,-7.3372,-7.3372,-7.3372,-7.3372,-7.3372,-7.3372,-7.3372,-7.3372,-7.3372,-7.3372,-7.3372,-7.3372,-7.3372,-7.3372,-7.3604,-7.4056,-7.454,-7.4904,-7.5344,-7.5818,-7.6015,-7.6015,-7.6015,-7.6015,-7.6044,0.0,0.0,0.0,0.0,0.0,0.0,0.0,0.0,0.0,0.0,0.0,0.0,0.0,0.0,0.0,0.0,0.0,0.0,0.0,0.0,-4.5895,-4.5895,-4.5895,-4.5895,-4.5895,-4.5895,-4.5895,-4.5895,-4.5895,-4.5895,-4.5895,-4.5895,-4.5895,-4.5895,-4.5895,-4.6243,-4.6882,-4.7521,-4.8362,-4.9378,0.0,0.0,0.0,0.0,0.0,0.0,0.0,0.0,0.0,0.0,-5.35,-5.35,-5.35,0.0,0.0,0.0,0.0,0.0,-4.993,-5.069,-5.2085,-5.3158,-5.3916,-5.4873,-5.6642,-5.7084,-5.7275,-5.8182,-5.8274,-5.8274,-5.8274,-5.859,-5.9439,-6.1202,-6.3121,-6.4895,-6.6609,-6.7209,-6.7776,-6.8628,-6.8816,-6.8967,-6.9227,-6.9302,-6.9376,-6.9376,-7.0026,-7.0709,-7.1386,-7.1998,-7.2705,-7.3372,-7.3372,-7.3372,-7.3372,-7.3372,-7.3372,-7.3372,-7.3372,-7.3372,-7.3372,-7.3372,-7.3372,-7.3424,-7.3604,-7.3963,-7.4417,-7.4827,-7.5274,-7.5686,-7.5917,-7.6015,-7.6015,-7.6015,-7.6005,-7.6062,0.0,0.0,0.0,0.0,0.0,0.0,0.0,0.0,0.0,0.0,0.0,0.0,0.0,0.0,0.0,0.0,0.0,0.0,0.0,0.0,-4.5895,-4.5895,-4.5895,-4.5895,-4.5895,-4.5895,-4.5895,-4.5895,-4.5895,-4.5895,-4.5895,-4.5895,-4.5895,-4.5895,-4.604,-4.6446,-4.7085,-4.7724,-4.874,-5.0017,0.0,0.0,0.0,0.0,0.0,0.0,0.0,0.0,0.0,0.0,0.0,0.0,0.0,0.0,0.0,-5.1817,-5.1178,-5.0569,-5.0046,-5.0925,-5.242,-5.3849,-5.4683,-5.5551,-5.7024,-5.7401,-5.759,-5.8182,-5.8274,-5.8274,-5.8274,-5.897,-6.0295,-6.2474,-6.3594,-6.4844,-6.6677,-6.7093,-6.7616,-6.8551,-6.8892,-6.9078,-6.9078,-6.9302,-6.9376,-6.9376,-7.02,-7.0872,-7.1386,-7.2175,-7.2871,-7.3372,-7.3372,-7.3372,-7.3372,-7.3372,-7.3372,-7.3372,-7.3372,-7.3372,-7.3372,-7.3372,-7.3476,-7.354,-7.3906,-7.4331,-7.4827,-7.5165,-7.5551,-7.6015,-7.6015,-7.6015,-7.6015,-7.6015,-7.6034,-7.609,0.0,0.0,0.0,0.0,0.0,0.0,0.0,0.0,0.0,0.0,0.0,0.0,0.0,0.0,0.0,0.0,0.0,0.0,0.0,0.0,-4.5895,-4.5895,-4.5895,-4.5895,-4.5895,-4.5895,-4.5895,-4.5895,-4.5895,-4.5895,-4.5895,-4.5895,-4.5895,-4.5895,-4.6505,-4.7114,-4.7753,-4.8391,-4.9407,-5.0656,-5.1352,0.0,0.0,0.0,0.0,0.0,0.0,0.0,0.0,0.0,0.0,0.0,0.0,0.0,-5.2455,-5.1817,-5.1178,-5.0656,-5.0627,-5.163,-5.3039,-5.4449,-5.5402,-5.6404,-5.79,-5.8182,-5.8274,-5.8274,-5.8274,-5.8274,-5.8274,-5.9349,-6.0836,-6.2571,-6.4203,-6.5559,-6.6593,-6.7488,-6.8083,-6.8397,-6.8628,-6.8816,-6.9078,-6.9302,-6.9376,-6.9376,-7.0575,-7.1323,-7.1386,-7.265,-7.3372,-7.3372,-7.3372,-7.3372,-7.3372,-7.3372,-7.3372,-7.3372,-7.3372,-7.3372,-7.3372,-7.3372,-7.3604,-7.3963,-7.4009,-7.4502,-7.5274,-7.531,-7.5551,-7.6015,-7.6015,-7.6015,-7.6015,-7.6015,-7.6034,-7.6118,0.0,0.0,0.0,0.0,0.0,0.0,0.0,0.0,0.0,0.0,0.0,0.0,0.0,0.0,0.0,0.0,0.0,0.0,0.0,-4.5895,-4.5895,-4.5895,-4.5895,-4.5895,-4.5895,-4.5895,-4.5895,-4.5895,-4.5895,-4.5895,-4.5895,-4.5895,-4.6098,-4.6475,-4.6737,-4.7404,-4.842,-4.9059,-5.0075,-5.1323,-5.1962,-5.2601,0.0,0.0,0.0,0.0,0.0,0.0,0.0,0.0,-5.35,-5.35,-5.35,-5.2804,-5.1933,-5.1701,-5.0888,-5.0231,-5.1199,-5.2442,-5.3844,-5.5279,-5.656,-5.765,-5.8211,-5.8274,-5.8274,-5.8274,-5.8274,-5.8527,-5.938,-5.9949,-6.1216,-6.389,-6.486,-6.5821,-6.7407,-6.7845,-6.8162,-6.8397,-6.8551,-6.8781,-6.9078,-6.9302,-6.956,-7.0026,-7.0872,-7.1573,-7.1998,-7.2871,-7.3372,-7.3372,-7.3372,-7.3372,-7.3372,-7.3372,-7.3372,-7.3372,-7.3372,-7.354,-7.3763,-7.3763,-7.4009,-7.4417,-7.4708,-7.5018,-7.5344,-7.5584,-7.5818,-7.6015,-7.6015,-7.6015,-7.6015,-7.6015,-7.6034,-7.609,0.0,0.0,0.0,0.0,0.0,0.0,0.0,0.0,0.0,0.0,0.0,0.0,0.0,0.0,0.0,0.0,0.0,0.0,-4.5895,-4.5895,-4.5895,-4.5895,-4.5895,-4.5895,-4.5895,-4.5895,-4.5895,-4.5895,-4.5895,-4.5895,-4.5895,-4.6098,-4.6417,-4.6853,-4.7259,-4.8014,-4.9059,-4.9756,-5.0743,-5.1962,-5.2397,-5.2949,0.0,0.0,0.0,0.0,0.0,0.0,0.0,0.0,-5.35,-5.3471,-5.3297,-5.2484,-5.1585,-5.1654,-5.1052,-5.0661,-5.2055,-5.3386,-5.4657,-5.6091,-5.7215,-5.7965,-5.8274,-5.8274,-5.8274,-5.8274,-5.8432,-5.8938,-6.0076,-6.0487,-6.1567,-6.4374,-6.5114,-6.5821,-6.7407,-6.7925,-6.8162,-6.8319,-6.8551,-6.8781,-6.8967,-6.9227,-6.9705,-7.0339,-7.1002,-7.1696,-7.2386,-7.3017,-7.3372,-7.3372,-7.3372,-7.3372,-7.3372,-7.3372,-7.3476,-7.3591,-7.3591,-7.3714,-7.4009,-7.4154,-7.446,-7.4904,-7.5203,-7.5379,-7.5551,-7.5887,-7.6015,-7.6015,-7.6015,-7.6015,-7.6015,-7.6015,-7.6034,-7.6118,0.0,0.0,0.0,0.0,0.0,0.0,0.0,0.0,0.0,0.0,0.0,0.0,0.0,0.0,0.0,0.0,0.0,0.0,-4.5895,-4.5895,-4.5895,-4.5895,-4.5895,-4.5895,-4.5895,-4.5895,-4.5895,-4.5895,-4.5895,-4.5895,-4.5895,-4.6534,-4.6853,-4.6911,-4.8159,-4.9088,-4.9727,-5.0394,-5.141,-5.2572,-5.2572,-5.2949,-5.35,0.0,0.0,0.0,0.0,0.0,0.0,0.0,-5.35,-5.3384,-5.2746,-5.2107,-5.1569,-5.1787,-5.1743,-5.2055,-5.3512,-5.437,-5.5232,-5.6707,-5.7084,-5.7275,-5.8089,-5.8274,-5.8274,-5.8274,-5.8812,-5.9507,-6.017,-6.0897,-6.1981,-6.3609,-6.4695,-6.5646,-6.6593,-6.7488,-6.8083,-6.8083,-6.8474,-6.8705,-6.8705,-6.9118,-6.9705,-7.0371,-7.1002,-7.1696,-7.2386,-7.3071,-7.3372,-7.3372,-7.3372,-7.3372,-7.3372,-7.3372,-7.3604,-7.4009,-7.3972,-7.4009,-7.4056,-7.446,-7.4942,-7.531,-7.531,-7.5551,-7.6015,-7.6015,-7.6015,-7.6015,-7.6015,-7.6015,-7.6015,-7.6015,-7.6062,-7.6198,0.0,0.0,0.0,0.0,0.0,0.0,0.0,0.0,0.0,0.0,0.0,0.0,0.0,0.0,0.0,0.0,0.0,0.0,-4.5895,-4.5895,-4.5895,-4.5895,-4.5895,-4.5895,-4.5895,-4.5895,-4.5895,-4.5895,-4.5895,-4.6127,-4.6563,-4.6737,-4.7317,-4.8188,-4.8566,-4.9349,-5.0423,-5.1062,-5.1817,-5.2601,-5.3065,-5.3355,-5.35,0.0,0.0,0.0,0.0,0.0,0.0,0.0,0.0,0.0,-5.2107,-5.1468,-5.1116,-5.1668,-5.1743,-5.2247,-5.4204,-5.5224,-5.6091,-5.759,-5.7965,-5.7996,-5.8274,-5.8274,-5.8274,-5.8274,-5.8812,-5.9507,-6.017,-6.1407,-6.2927,-6.4655,-6.5646,-6.6593,-6.7569,-6.7925,-6.8083,-6.8083,-6.8474,-6.8705,-6.8705,-6.9562,-7.0371,-7.1067,-7.1696,-7.2386,-7.3071,-7.332,-7.3372,-7.3372,-7.3372,-7.3372,-7.3372,-7.3372,-7.3604,-7.4009,-7.4331,-7.4626,-7.4943,-7.5055,-7.5383,-7.5787,-7.5787,-7.5887,-7.6015,-7.6015,-7.6015,-7.6015,-7.6015,-7.6015,-7.6015,-7.6015,-7.6062,-7.6198,0.0,0.0,0.0,0.0,0.0,0.0,0.0,0.0,0.0,0.0,-4.0945,-4.1424,0.0,0.0,0.0,0.0,0.0,0.0,0.0,-4.6437,-4.665,-4.665,-4.665,-4.665,-4.665,-4.665,-4.665,-4.665,-4.6388,-4.6446,-4.6853,-4.7346,-4.7985,-4.874,-4.9262,-5.0075,-5.1091,-5.173,-5.2368,-5.2978,-5.3355,-5.35,-5.35,0.0,0.0,0.0,0.0,0.0,0.0,0.0,0.0,0.0,-5.1439,-5.0975,-5.0854,-5.1609,-5.1951,-5.2665,-5.4853,-5.5937,-5.6746,-5.7963,-5.8274,-5.8274,-5.8274,-5.8274,-5.8274,-5.8274,-5.9033,-5.9823,-6.0234,-6.1915,-6.3714,-6.5048,-6.6081,-6.7044,-6.8004,-6.8083,-6.8083,-6.8241,-6.8474,-6.8857,-6.927,-6.9955,-7.0775,-7.1757,-7.2175,-7.2705,-7.3372,-7.3372,-7.3372,-7.3372,-7.3372,-7.3372,-7.3372,-7.3372,-7.3703,-7.4287,-7.4544,-7.5019,-7.5551,-7.5551,-7.5718,-7.6015,-7.6015,-7.6015,-7.6015,-7.6015,-7.6015,-7.6015,-7.6015,-7.6015,-7.6015,-7.6015,-7.6062,-7.6145,0.0,0.0,-4.0425,-3.9923,0.0,0.0,0.0,0.0,0.0,0.0,-4.0619,-4.1105,0.0,0.0,0.0,0.0,0.0,0.0,0.0,-4.7252,-4.7782,-4.7782,-4.7782,-4.7782,-4.7782,-4.7782,-4.7782,-4.7782,-4.7201,-4.694,-4.7027,-4.8188,-4.8798,-4.8943,-5.0162,-5.1062,-5.173,-5.231,-5.2949,-5.35,-5.35,-5.35,-5.35,-5.3442,0.0,0.0,0.0,0.0,0.0,0.0,0.0,0.0,-5.0772,-5.0627,-5.0854,-5.1639,-5.2405,-5.3451,-5.5563,-5.6652,-5.737,-5.8089,-5.8274,-5.8274,-5.8274,-5.8274,-5.8274,-5.8274,-5.9349,-6.0297,-6.0392,-6.2362,-6.4328,-6.5293,-6.6167,-6.7127,-6.8004,-6.8083,-6.8162,-6.8319,-6.8628,-6.9122,-7.0025,-7.0371,-7.1067,-7.2328,-7.2443,-7.2761,-7.3372,-7.3372,-7.3372,-7.3372,-7.3372,-7.3372,-7.3372,-7.3424,-7.3859,-7.4705,-7.4745,-7.5167,-7.6015,-7.6015,-7.6015,-7.6015,-7.6015,-7.6015,-7.6015,-7.6015,-7.6015,-7.6015,-7.6015,-7.6015,-7.6015,-7.6015,-7.6034,-7.6118,0.0,0.0,-4.1128,-4.1003,0.0,0.0,0.0,0.0,0.0,0.0,0.0,0.0,0.0,0.0,0.0,0.0,0.0,0.0,0.0,-4.7688,-4.7782,-4.7782,-4.7782,-4.7782,-4.7782,-4.7782,-4.7782,-4.7782,-4.7637,-4.784,-4.8333,-4.8595,-4.9262,-5.0278,-5.054,-5.1294,-5.2368,-5.2514,-5.2949,-5.35,-5.35,-5.35,-5.3471,-5.2949,-5.2775,0.0,0.0,0.0,0.0,0.0,0.0,0.0,-5.0104,-5.0249,-5.0953,-5.2252,-5.3542,-5.48,-5.6496,-5.743,-5.8058,-5.8274,-5.8274,-5.8274,-5.8274,-5.8274,-5.8274,-5.8274,-5.9349,-6.0582,-6.1299,-6.344,-6.5293,-6.6253,-6.7209,-6.7845,-6.8083,-6.8083,-6.8083,-6.8162,-6.9013,-6.9636,-6.9849,-7.1159,-7.2057,-7.2386,-7.2871,-7.3268,-7.3372,-7.3372,-7.3372,-7.3372,-7.3372,-7.3372,-7.3372,-7.3714,-7.4147,-7.4705,-7.5018,-7.5451,-7.6015,-7.6015,-7.6015,-7.6015,-7.6015,-7.6015,-7.6015,-7.6015,-7.6015,-7.6015,-7.6015,-7.6015,-7.6015,-7.6015,-7.6034,-7.6118,0.0,0.0,0.0,0.0,0.0,0.0,0.0,0.0,0.0,0.0,0.0,0.0,0.0,0.0,0.0,0.0,-4.4282,-4.5321,-4.6939,-4.7559,-4.8172,-4.8682,-4.8682,-4.8682,-4.8682,-4.8682,-4.8682,-4.8682,-4.8682,-4.8711,-4.874,-4.903,-4.9698,-5.0685,-5.1004,-5.1672,-5.2601,-5.2891,-5.321,-5.3471,-5.3181,-5.3065,-5.3007,-5.2339,-5.2107,-5.202,-5.1381,0.0,0.0,0.0,0.0,0.0,0.0,0.0,-5.0971,-5.2349,-5.3495,-5.4684,-5.618,-5.712,-5.7778,-5.8182,-5.8274,-5.8274,-5.8274,-5.8274,-5.8274,-5.8274,-5.9349,-6.0582,-6.1574,-6.3711,-6.5646,-6.6508,-6.7488,-6.8083,-6.8083,-6.8083,-6.8319,-6.8863,-6.9419,-7.0094,-7.093,-7.1878,-7.25,-7.2871,-7.3178,-7.3372,-7.3372,-7.3372,-7.3372,-7.3372,-7.3372,-7.349,-7.3703,-7.3869,-7.4331,-7.4981,-7.5203,-7.5551,-7.6015,-7.6015,-7.6015,-7.6015,-7.6015,-7.6015,-7.6015,-7.6015,-7.6015,-7.6015,-7.6015,-7.6015,-7.6015,-7.6015,-7.6005,-7.6101,0.0,0.0,0.0,0.0,0.0,0.0,0.0,0.0,0.0,0.0,0.0,0.0,0.0,0.0,-4.2595,0.0,0.0,0.0,-4.6215,-4.7383,-4.8524,-4.9669,-4.9669,-4.9669,-4.9669,-4.9669,-4.9669,-4.9669,-4.9669,-4.9407,-4.8914,-4.9553,-5.0191,-5.0859,-5.1497,-5.2136,-5.2775,-5.3297,-5.3442,-5.3297,-5.2775,-5.2514,-5.2339,-5.1701,-5.1439,-5.1381,-5.0743,-5.0569,-5.0598,-5.0046,0.0,0.0,0.0,0.0,-5.1308,-5.2661,-5.355,-5.4461,-5.5963,-5.6796,-5.7495,-5.8182,-5.8274,-5.8274,-5.8274,-5.8274,-5.8274,-5.8274,-5.9441,-6.0706,-6.1815,-6.388,-6.5688,-6.6761,-6.7569,-6.8083,-6.8083,-6.8083,-6.844,-6.9347,-6.9778,-7.057,-7.1961,-7.2386,-7.2816,-7.3372,-7.3372,-7.3372,-7.3372,-7.3372,-7.3372,-7.3372,-7.3372,-7.3553,-7.4009,-7.4064,-7.4544,-7.531,-7.5379,-7.5622,-7.6015,-7.6015,-7.6015,-7.6015,-7.6015,-7.6015,-7.6015,-7.6015,-7.6015,-7.6015,-7.6015,-7.6015,-7.6015,-7.6015,-7.6005,-7.6101,0.0,0.0,0.0,0.0,0.0,0.0,0.0,0.0,0.0,0.0,-4.276,-4.2785,0.0,-4.2861,-4.333,-4.4344,-4.4561,-4.5208,-4.6215,0.0,0.0,-4.9669,-4.9669,-4.9669,-4.9669,-4.9669,-4.9669,-4.9669,-4.9669,-4.964,-4.9553,-5.022,-5.0888,-5.1527,-5.2165,-5.2804,-5.3384,-5.3471,-5.321,-5.2688,-5.2601,-5.2223,-5.1672,-5.1033,-5.0801,-5.0714,-5.0046,-5.0191,-5.0656,-5.0569,-5.0917,0.0,0.0,0.0,-5.2647,-5.4141,-5.5115,-5.5993,-5.7559,-5.8089,-5.8182,-5.8274,-5.8274,-5.8274,-5.8274,-5.8274,-5.8274,-5.8274,-5.9489,-6.1069,-6.2748,-6.4404,-6.605,-6.7628,-6.8004,-6.8083,-6.8083,-6.8083,-6.8162,-6.8319,-6.9708,-7.08,-7.0995,-7.2406,-7.332,-7.3372,-7.3372,-7.3372,-7.3372,-7.3372,-7.3372,-7.3372,-7.3372,-7.3553,-7.4009,-7.4374,-7.4827,-7.531,-7.5686,-7.5947,-7.6015,-7.6015,-7.6015,-7.6015,-7.6015,-7.6015,-7.6015,-7.6015,-7.6015,-7.6015,-7.6015,-7.6015,-7.6015,-7.6015,-7.6106,-7.6248,0.0,0.0,0.0,0.0,0.0,0.0,0.0,0.0,0.0,0.0,0.0,-4.2986,-4.2986,-4.2986,-4.3184,-4.3713,-4.3713,-4.4453,-4.6215,-4.7993,-4.9149,-4.9669,-4.9669,-4.9669,-4.9669,-4.9669,-4.9669,-4.9669,-4.9669,-4.9669,-4.9698,-5.0365,-5.1004,-5.1643,-5.2281,-5.2717,-5.2978,-5.2978,-5.263,-5.1991,-5.1643,-5.1352,-5.1033,-5.0365,-5.0336,-5.0627,-5.0336,-5.0656,-5.1207,-5.1207,-5.1381,-5.1672,-5.2049,0.0,0.0,0.0,-5.5675,-5.6796,-5.7965,-5.8274,-5.8274,-5.8274,-5.8274,-5.8274,-5.8274,-5.8274,-5.8459,-5.894,-5.9934,-6.1238,-6.2908,-6.4506,-6.6113,-6.7822,-6.8083,-6.8083,-6.8083,-6.8083,-6.8284,-6.8752,-6.9953,-7.0959,-7.15,-7.2669,-7.3372,-7.3372,-7.3372,-7.3372,-7.3372,-7.3372,-7.3372,-7.3372,-7.3604,-7.3954,-7.4374,-7.4827,-7.5239,-7.5686,-7.5917,-7.6015,-7.6015,-7.6015,-7.6015,-7.6015,-7.6015,-7.6015,-7.6015,-7.6015,-7.6015,-7.6015,-7.6015,-7.6015,-7.6005,-7.6133,-7.6224,-7.6343,0.0,0.0,0.0,0.0,0.0,0.0,0.0,0.0,0.0,0.0,0.0,-4.2986,-4.2986,0.0,0.0,0.0,-4.2986,-4.3823,-4.582,-4.7689,-4.8951,-4.9248,-4.9571,-4.9669,-4.9669,-4.9669,-4.9669,-4.9669,-4.9669,-4.9669,-4.9698,-5.0365,-5.0917,-5.141,-5.2049,-5.2426,-5.2572,-5.2397,-5.1962,-5.1323,-5.1058,-5.0865,-5.0661,-5.0329,-5.0543,-5.1013,-5.0993,-5.1362,-5.1917,-5.1918,-5.1962,-5.2194,-5.2659,-5.3422,0.0,0.0,0.0,-5.759,-5.8182,-5.8274,-5.8274,-5.8274,-5.8274,-5.8274,-5.8274,-5.8427,-5.876,-5.9443,-6.0501,-6.165,-6.3033,-6.457,-6.6165,-6.7591,-6.798,-6.8083,-6.8083,-6.8083,-6.844,-6.9203,-7.0229,-7.1123,-7.1961,-7.2871,-7.3372,-7.3372,-7.3372,-7.3372,-7.3372,-7.3372,-7.3372,-7.3372,-7.3811,-7.4199,-7.4705,-7.5203,-7.5654,-7.6015,-7.6015,-7.6015,-7.6015,-7.6015,-7.6015,-7.6015,-7.6015,-7.6015,-7.6015,-7.6015,-7.6015,-7.6015,-7.6015,-7.6034,-7.6079,-7.6248,-7.635,-7.6457,0.0,0.0,0.0,0.0,0.0,0.0,0.0,0.0,0.0,0.0,0.0,-4.2986,-4.2986,-4.2986,-4.2986,-4.2986,-4.2986,-4.3517,-4.467,-4.582,-4.6971,-4.8021,-4.9149,0.0,-4.9669,-4.9669,-4.9669,-4.9669,-4.9669,-4.9669,-4.9698,-5.0365,-5.0685,-5.0743,-5.1381,-5.1991,-5.2543,-5.1933,-5.1294,-5.0813,-5.1444,-5.135,-5.0852,-5.1542,-5.1819,-5.1848,-5.1786,-5.2121,-5.2645,-5.2617,-5.292,-5.3413,-5.3442,-5.3964,-5.4857,0.0,0.0,0.0,-5.8274,-5.8274,-5.8274,-5.8274,-5.8274,-5.8274,-5.8274,-5.894,-5.9531,-5.9587,-6.1003,-6.2516,-6.326,-6.4742,-6.6109,-6.6911,-6.7635,-6.8083,-6.8083,-6.8083,-6.8362,-6.9161,-7.0127,-7.1059,-7.1818,-7.2816,-7.3372,-7.3372,-7.3372,-7.3372,-7.3372,-7.3372,-7.3372,-7.3372,-7.3811,-7.4199,-7.4705,-7.5556,-7.5985,-7.6015,-7.6015,-7.6015,-7.6015,-7.6015,-7.6015,-7.6015,-7.6015,-7.6015,-7.6015,-7.6015,-7.6015,-7.6015,-7.6015,-7.6106,-7.6297,-7.632,-7.6517,-7.6777,0.0,0.0,0.0,0.0,0.0,0.0,0.0,0.0,0.0,0.0,0.0,0.0,0.0,-4.2986,-4.2986,-4.2986,-4.4344,-4.5289,-4.5714,-4.7485,-4.8624,-4.905,-4.9473,-4.9669,-4.9669,-4.9669,-4.9669,-4.9669,-4.9669,-4.9669,-4.9669,-4.993,-5.0278,-5.0714,-5.1323,-5.1527,-5.1323,-5.112,-5.0627,-5.0115,-5.0892,-5.103,-5.0887,-5.1604,-5.2427,-5.3186,-5.3175,-5.3473,-5.3929,-5.3993,-5.4097,-5.4304,-5.4304,-5.519,-5.6409,-5.718,-5.7871,-5.8274,-5.8274,-5.8274,-5.8274,-5.8274,-5.8274,-5.8427,-5.903,-5.9355,-5.9935,-6.1086,-6.185,-6.2503,-6.3349,-6.4862,-6.6117,-6.6876,-6.7601,-6.8083,-6.8083,-6.8083,-6.8362,-6.9087,-7.0127,-7.1059,-7.1818,-7.2816,-7.3372,-7.3372,-7.3372,-7.3372,-7.3372,-7.3372,-7.3372,-7.3372,-7.4056,-7.4825,-7.5523,-7.5818,-7.6015,-7.6015,-7.6015,-7.6015,-7.6015,-7.6015,-7.6015,-7.6015,-7.6015,-7.6015,-7.6015,-7.6015,-7.6015,-7.6015,-7.6015,-7.6133,-7.6305,-7.6457,-7.6621,-7.6832,0.0,0.0,0.0,0.0,0.0,0.0,0.0,0.0,0.0,-4.2986,0.0,0.0,0.0,0.0,-4.2986,-4.2986,-4.4344,-4.5395,-4.5714,-4.7485,-4.8724,-4.9149,-4.9473,-4.9669,-4.9669,-4.9669,-4.9669,-4.9669,-4.9669,-4.9669,-4.9669,-4.9669,-4.9901,-5.0365,-5.0772,-5.0859,-5.0656,-5.0423,-5.0075,-4.9766,-5.0793,-5.113,-5.1244,-5.2245,-5.3099,-5.3914,-5.4157,-5.4503,-5.489,-5.534,-5.55,-5.55,-5.55,-5.625,-5.7275,-5.8089,-5.8274,-5.8274,-5.8274,-5.8274,-5.8274,-5.8274,-5.8464,-5.8804,-5.9476,-6.0044,-6.0745,-6.2076,-6.2513,-6.2931,-6.3491,-6.4634,-6.5738,-6.6497,-6.7256,-6.7807,-6.8049,-6.8083,-6.844,-6.9419,-7.0264,-7.1187,-7.2153,-7.2963,-7.3372,-7.3372,-7.3372,-7.3372,-7.3372,-7.3372,-7.354,-7.3848,-7.454,-7.5239,-7.5976,-7.6015,-7.6015,-7.6015,-7.6015,-7.6015,-7.6015,-7.6015,-7.6015,-7.6015,-7.6015,-7.6015,-7.6015,-7.6015,-7.6015,-7.6015,-7.6052,-7.6224,-7.6436,-7.6605,-7.6755,-7.6917,0.0,0.0,0.0,0.0,0.0,0.0,0.0,0.0,-4.2986,-4.2986,0.0,0.0,0.0,0.0,0.0,-4.2986,-4.3073,-4.3628,-4.467,-4.582,-4.6867,-4.8021,-4.9149,-4.9669,-4.9669,-4.9669,-4.9669,-4.9669,-4.9669,-4.9669,-4.9669,-4.9669,-4.9669,-4.9669,-4.9669,-5.0046,-5.0598,-4.9959,-4.9669,-4.9863,-5.1263,-5.187,-5.2025,-5.35,-5.4022,-5.4036,-5.4673,-5.4947,-5.5201,-5.665,-5.7215,-5.7215,-5.7215,-5.715,-5.7275,-5.8089,-5.8274,-5.8274,0.0,0.0,0.0,-5.8274,-5.878,-5.9376,-5.9605,-6.0922,-6.2066,-6.2336,-6.3007,-6.36,-6.36,-6.4186,-6.491,-6.5704,-6.6497,-6.7256,-6.798,-6.8083,-6.8635,-7.0163,-7.0601,-7.1412,-7.2835,-7.3252,-7.3372,-7.3372,-7.3372,-7.3372,-7.3372,-7.3424,-7.38,-7.4664,-7.5055,-7.5518,-7.6015,-7.6015,-7.6015,-7.6015,-7.6015,-7.6015,-7.6015,-7.6015,-7.6015,-7.6015,-7.6015,-7.6015,-7.6015,-7.6015,-7.5976,-7.6005,-7.6224,-7.6436,-7.6605,-7.6755,-7.6917,-7.7101,0.0,0.0,0.0,0.0,0.0,-4.2425,-4.265,-4.2625,-4.2762,0.0,0.0,0.0,-4.2986,-4.2986,-4.2986,-4.2986,-4.4453,-4.5502,-4.582,-4.7689,-4.8951,-4.9248,-4.9571,-4.9669,-4.9669,-4.9669,-4.9669,-4.9669,-4.9669,-4.9669,-4.9669,-4.9669,-4.9669,-4.9669,-4.9669,-4.9785,-4.993,-4.9756,-4.9669,-4.9795,-5.1232,-5.2102,-5.2755,-5.4206,-5.5378,-5.6277,-5.6496,-5.6497,-5.655,-5.696,-5.7117,-5.7213,-5.7808,-5.7933,-5.7965,-5.8274,-5.8274,-5.8274,-5.8274,0.0,0.0,0.0,0.0,0.0,-6.0496,-6.1816,-6.3079,-6.3254,-6.3417,-6.36,-6.36,-6.3772,-6.4152,-6.491,-6.6117,-6.7049,-6.7256,-6.8246,-6.9273,-7.0163,-7.093,-7.1757,-7.2723,-7.3091,-7.3252,-7.3252,-7.3357,-7.3372,-7.3372,-7.3703,-7.4101,-7.4705,-7.5055,-7.5518,-7.6015,-7.6015,-7.6015,-7.6015,-7.6015,-7.6015,-7.6015,-7.6015,-7.6015,-7.6015,-7.6015,-7.6015,-7.6015,-7.6015,-7.6118,-7.6224,-7.6297,-7.6478,-7.6755,-7.6793,-7.6917,-7.7107,0.0,0.0,-4.1606,-4.1606,-4.1859,-4.211,-4.2312,-4.2312,-4.2425,0.0,0.0,0.0,-4.2762,-4.2874,-4.2986,-4.2986,-4.4126,-4.5289,-4.6215,-4.7587,-4.8724,-4.9669,-4.9669,-4.9669,-4.9669,-4.9669,-4.9669,-4.9669,-4.9669,-4.9669,-4.9669,-4.9669,-4.9669,-4.9669,-4.9669,-4.9669,-4.9698,-4.9988,-5.0104,-5.0202,-5.1624,-5.2678,-5.3411,-5.4821,-5.5875,-5.6778,-5.7488,-5.7463,-5.7338,-5.8812,-5.8992,-5.8754,-5.9234,-5.885,-5.8274,-5.8274,-5.8274,-5.8274,-5.8274,-5.8274,-5.843,-5.9111,0.0,0.0,-6.18,-6.2939,-6.377,-6.3658,-6.36,-6.36,-6.36,-6.36,-6.3738,-6.4152,-6.5255,-6.6152,-6.6497,-6.7771,-6.8998,-6.9768,-7.0879,-7.1938,-7.2723,-7.3037,-7.3199,-7.3305,-7.3357,-7.3372,-7.3372,-7.4001,-7.4417,-7.4705,-7.5274,-7.5718,-7.6015,-7.6015,-7.6015,-7.6015,-7.6015,-7.6015,-7.6015,-7.6015,-7.6015,-7.6015,-7.6015,-7.6015,-7.6015,-7.6079,-7.6173,-7.6305,-7.6458,-7.6615,-7.6804,-7.6897,-7.6989,-7.7101,0.0,0.0,-4.1606,-4.1606,-4.1859,-4.2086,-4.2086,-4.2086,-4.211,0.0,-4.211,-4.2199,-4.2513,-4.2762,-4.2986,-4.2986,-4.3184,-4.4126,-4.611,-4.6451,-4.7485,-4.9571,-4.9669,-4.9669,-4.9669,-4.9669,-4.9669,-4.9669,-4.9669,-4.9669,-4.9669,-4.9669,-4.9669,-4.9669,-4.9669,-4.9669,-4.9727,-5.0394,-5.0813,-5.107,-5.2432,-5.3375,-5.4062,-5.5555,-5.6146,-5.6378,-5.7993,-5.8024,-5.787,-6.1052,-6.1609,-6.092,-6.0754,-5.9762,-5.8518,-5.8367,-5.8367,-5.8427,-5.8367,-5.8274,-5.8677,-6.0283,-6.1386,0.0,-6.3175,-6.4017,-6.4393,-6.3727,-6.36,-6.36,-6.36,-6.36,-6.36,-6.36,-6.4152,-6.4841,-6.5635,-6.7078,-6.8329,-6.9091,-7.0618,-7.1925,-7.2835,-7.3091,-7.3252,-7.3357,-7.3372,-7.3424,-7.3476,-7.4237,-7.4745,-7.4786,-7.5556,-7.6015,-7.6015,-7.6015,-7.6015,-7.6015,-7.6015,-7.6015,-7.6015,-7.6015,-7.6015,-7.6015,-7.6015,-7.6015,-7.6005,-7.6248,-7.6327,-7.6372,-7.6699,-7.6816,-7.6838,-7.7036,-7.7101,-7.7107,-4.1172,-4.1402,-4.1492,-4.1287,-4.1516,-4.172,-4.172,-4.172,-4.1834,-4.211,-4.211,-4.2199,-4.2513,-4.2513,-4.2762,-4.2986,-4.4235,-4.5395,-4.6215,-4.7205,-4.8352,-4.9669,-4.9305,-4.9277,-4.9669,-4.9669,-4.9669,-4.9669,-4.9669,-4.9669,-4.9669,-4.9669,-4.9669,-4.9669,-4.9669,-4.9669,-4.9727,-5.0394,-5.1344,-5.2438,-5.3268,-5.4089,-5.4849,-5.6269,-5.7276,-5.7965,-5.8966,-5.9234,-5.9323,-6.067,-6.1086,-6.0754,-6.0075,-6.0108,-6.0108,-5.8669,-5.876,-5.9177,-5.8518,-5.8274,-5.8677,-6.0283,-6.1797,0.0,-6.337,-6.4527,-6.5275,-6.391,-6.36,-6.36,-6.36,-6.36,-6.36,-6.36,-6.3703,-6.4083,-6.4841,-6.6743,-6.8311,-6.9087,-7.0495,-7.1704,-7.2516,-7.2872,-7.3037,-7.3091,-7.3305,-7.354,-7.3906,-7.4374,-7.4865,-7.5165,-7.5686,-7.6015,-7.6015,-7.6015,-7.6015,-7.6015,-7.6015,-7.6015,-7.6015,-7.6015,-7.6015,-7.6015,-7.6015,-7.6015,-7.6005,-7.6394,-7.6555,-7.6534,-7.6741,-7.6897,-7.7043,-7.7095,-7.7117,-7.7091,-4.1172,-4.1287,-4.1402,-4.1172,-4.1287,-4.1402,-4.1402,-4.1402,-4.1516,-4.1631,-4.1745,-4.1859,-4.2061,-4.2625,-4.3073,-4.3184,-4.437,-4.5422,-4.6242,-4.6895,-4.7745,-4.8881,-4.8681,-4.8581,-4.8881,-4.8881,-4.8881,-4.8881,-4.8881,-4.9079,-4.9277,-4.9277,-4.9669,-5.025,-4.9863,-5.0038,-5.0778,-5.1058,-5.2,-5.3387,-5.4111,-5.5001,-5.6207,-5.7744,-5.8637,-5.9088,-6.045,-6.125,-6.1609,-6.1609,-6.125,-6.092,-6.092,-6.0586,-6.0108,-5.9177,-5.9266,-5.9443,-5.8518,-5.8864,-5.9788,-6.1088,-6.2629,0.0,0.0,-6.4675,-6.4979,-6.3841,-6.3673,-6.3747,-6.3747,-6.382,-6.3892,-6.3892,-6.382,-6.4031,-6.4704,-6.6312,-6.7552,-6.7945,-6.9576,-7.1027,-7.1912,-7.219,-7.2484,-7.3054,-7.3305,-7.3527,-7.3703,-7.4325,-7.4787,-7.4981,-7.5654,-7.6015,-7.6015,-7.6015,-7.6015,-7.6015,-7.6015,-7.6015,-7.6015,-7.6015,-7.6015,-7.6015,-7.6015,-7.6062,-7.6147,-7.6497,-7.6621,-7.6713,-7.6887,-7.6989,-7.7101,-7.7101,-7.7078,-7.7097,-4.1172,-4.1172,-4.1172,-4.1172,-4.1172,-4.1172,-4.1172,-4.1172,-4.1172,-4.1172,-4.1606,-4.1923,-4.2037,-4.3134,-4.3907,-4.4209,-4.4859,-4.5714,-4.666,-4.6764,-4.7205,-4.8078,-4.7976,-4.7976,-4.8078,-4.8078,-4.8078,-4.8078,-4.8179,-4.8481,-4.8909,-4.9009,-4.9629,-5.0618,-5.0233,-5.071,-5.165,-5.1929,-5.2788,-5.4062,-5.4977,-5.605,-5.7275,-5.8966,-5.9587,-5.9849,-6.1689,-6.2855,-6.3452,-6.2591,-6.177,-6.125,-6.1689,-6.1003,-6.0022,-5.9531,-5.9587,-5.9587,-5.861,-5.9356,-6.0727,-6.1844,-6.3232,-6.4347,0.0,0.0,0.0,-6.3738,-6.3747,-6.3927,-6.3927,-6.4037,-6.4285,-6.4598,-6.4245,-6.4285,-6.5057,-6.6048,-6.6753,-6.7024,-6.875,-7.0239,-7.1177,-7.1453,-7.1931,-7.2902,-7.3246,-7.3424,-7.349,-7.4281,-7.4745,-7.4787,-7.5589,-7.6015,-7.6015,-7.6015,-7.6015,-7.6015,-7.6015,-7.6015,-7.6015,-7.6015,-7.6015,-7.6015,-7.6015,-7.6106,-7.6305,-7.6536,-7.6669,-7.6816,-7.7036,-7.7101,-7.7101,-7.7101,-7.7078,-7.71,-4.1172,-4.1172,-4.1172,-4.1172,-4.1172,-4.1172,-4.1172,-4.1172,-4.1172,-4.1172,-4.2351,-4.3194,-4.3551,-4.4725,-4.5978,-4.6909,-4.7549,-4.7982,-4.811,-4.8167,-4.8122,-4.8078,-4.7699,-4.7596,-4.8078,-4.8078,-4.8078,-4.8078,-4.8581,-4.881,-4.8909,-4.9375,-4.9692,-4.9911,-5.1043,-5.1326,-5.0886,-5.2776,-5.3973,-5.4916,-5.6337,-5.6962,-5.7275,-5.8966,-5.9587,-5.9849,-6.1689,-6.2855,-6.3452,-6.2591,-6.2279,-6.185,-6.0365,-6.0837,-6.1528,-5.912,-5.9499,-6.0417,-5.8792,-5.9004,-6.0141,-6.1712,-6.2863,-6.3702,-6.4553,0.0,-6.4496,-6.3738,0.0,-6.3927,-6.3927,0.0,0.0,-6.599,-6.5085,-6.4667,-6.6136,-6.623,-6.6643,-6.7824,-6.8564,-6.9394,-7.0367,-7.1175,-7.1817,-7.2087,-7.2912,-7.354,-7.3916,-7.4417,-7.4827,-7.5239,-7.5718,-7.6015,-7.6015,-7.6015,-7.6015,-7.6015,-7.6015,-7.6015,-7.6015,-7.6015,-7.6015,-7.6015,-7.6015,-7.6106,-7.6305,-7.6536,-7.6669,-7.6816,-7.7036,-7.7101,-7.7101,-7.7101,-7.7078,-7.71,-4.1172,-4.1172,-4.1172,-4.1172,-4.1172,-4.1172,-4.1172,-4.1172,-4.1172,-4.1172,-4.172,-4.215,-4.2263,-4.3661,-4.5129,-4.6261,-4.7577,-4.8339,-4.8339,-4.8368,-4.8021,-4.7184,-4.6977,-4.6977,-4.7184,-4.7184,-4.7184,-4.7184,-4.7391,-4.7968,-4.8918,-4.9222,-5.004,-5.1549,-5.2142,-5.2694,-5.3118,-5.3644,-5.4767,-5.6269,-5.6964,-5.7744,-5.8696,-6.0501,-6.1528,-6.2009,-6.2779,-6.3268,-6.3526,-6.3193,-6.2358,-6.1528,-6.185,-6.177,-6.1332,-6.0754,-6.1086,-6.1413,-6.0194,-6.1119,-6.2413,-6.224,-6.3615,-6.4759,-6.4191,-6.4048,-6.3979,-6.3669,0.0,0.0,0.0,0.0,0.0,0.0,-6.4777,-6.4708,-6.5792,-6.5989,-6.6294,-6.6897,-6.7816,-6.871,-6.952,-7.0438,-7.1025,-7.1131,-7.2118,-7.2769,-7.2944,-7.3793,-7.4502,-7.4904,-7.5383,-7.5718,-7.6015,-7.6015,-7.6015,-7.6015,-7.6015,-7.6015,-7.6015,-7.6015,-7.6015,-7.6015,-7.6133,-7.6297,-7.6497,-7.6653,-7.6843,-7.6981,-7.705,-7.7101,-7.7101,-7.7101,-7.7078,-7.71,-4.1172,-4.1172,-4.1172,-4.1172,-4.1172,-4.1172,-4.1172,-4.1172,-4.1172,-4.1172,-4.1492,-4.181,-4.215,-4.3965,-4.5713,-4.7059,-4.8681,-4.965,-4.9426,-4.9133,-4.8468,-4.7615,-4.6846,-4.6665,-4.7053,-4.6665,-4.6564,-4.6727,-4.691,-4.7736,-4.9258,-4.9258,-5.0395,-5.2423,-5.2723,-5.3476,-5.457,-5.4401,-5.556,-5.7496,-5.7806,-5.9041,-6.0837,-6.185,-6.2855,-6.36,-6.36,-6.36,-6.36,-6.3343,-6.2358,-6.1494,-6.2513,-6.229,-6.1669,-6.2099,-6.2532,-6.265,-6.1508,-6.2727,-6.4019,-6.2659,-6.3841,-6.5022,-6.385,-6.36,-6.36,-6.36,-6.382,0.0,0.0,0.0,-6.4708,-6.5198,0.0,-6.5085,-6.6043,-6.6351,-6.6487,-6.6427,-6.7469,-6.8328,-6.8762,-6.9642,-7.0228,-7.0228,-7.1213,-7.1923,-7.2184,-7.3127,-7.3928,-7.4502,-7.5018,-7.5485,-7.5818,-7.5947,-7.6015,-7.6015,-7.6015,-7.6015,-7.6015,-7.6015,-7.6015,-7.6005,-7.6199,-7.6415,-7.6626,-7.6755,-7.6907,-7.7101,-7.7101,-7.7101,-7.7101,-7.7101,-7.7078,-7.71,-4.1172,-4.1172,-4.1172,-4.1172,-4.1172,-4.1172,-4.1172,-4.1172,-4.1172,-4.1172,-4.2351,-4.3526,-4.4427,-4.6964,-4.9202,-5.0798,-5.2154,-5.2606,-5.2093,-5.0956,-5.0199,-5.0199,-4.7819,-4.7053,-4.8296,-4.7157,-4.6754,-4.7323,-4.7855,-4.8792,-4.9876,-4.9904,-5.0558,-5.1757,-5.2558,-5.3217,-5.3876,-5.526,-5.68,-5.8419,-5.9305,-6.1198,-6.3417,-6.2591,-6.2855,-6.36,-6.36,-6.36,-6.3491,-6.2591,-6.2279,-6.2088,-6.125,-6.2032,-6.3033,-6.2242,-6.3117,-6.4112,-6.2438,-6.27,-6.3363,-6.2523,-6.3007,-6.3673,-6.36,-6.36,-6.36,-6.36,-6.3892,-6.418,-6.418,-6.4463,-6.5198,-6.6707,-6.6235,0.0,0.0,-6.7679,-6.7469,-6.7396,-6.7915,-6.8259,-6.8107,-6.8999,-6.9531,-6.9531,-7.0411,-7.1329,-7.2146,-7.2613,-7.3183,-7.4018,-7.4866,-7.531,-7.5344,-7.5787,-7.6015,-7.6015,-7.6015,-7.6015,-7.6015,-7.6015,-7.6015,-7.6005,-7.6199,-7.6415,-7.6626,-7.6755,-7.6907,-7.7101,-7.7101,-7.7101,-7.7101,-7.7101,-7.7078,-7.71,-4.1172,-4.1172,-4.1172,-4.1172,-4.1172,-4.1172,-4.1172,-4.1172,-4.1492,-4.2463,-4.3475,-4.4487,-4.5765,-4.7696,-4.9407,-5.0866,-5.1881,-5.2395,-5.2184,-5.105,-5.0294,-5.0294,-4.821,-4.7631,-4.8991,-4.8121,-4.7758,-4.7948,-4.8164,-4.8788,-4.9987,-5.0337,-5.1208,-5.2309,-5.3539,-5.4476,-5.519,-5.572,-5.7181,-5.929,-6.0854,-6.1975,-6.2779,-6.3007,-6.3343,-6.36,-6.36,-6.36,-6.36,-6.3268,-6.2779,-6.2358,-6.2591,-6.2946,-6.3363,-6.3724,-6.4594,-6.5255,-6.4791,-6.5312,-6.5699,-6.4322,-6.4564,-6.4937,-6.3823,-6.36,-6.36,-6.36,-6.382,-6.4072,-6.4215,-6.4358,-6.4743,-6.5408,-6.5597,-6.5875,0.0,-6.7121,-6.772,-6.807,-6.8259,-6.8259,-6.8259,-6.843,-6.8578,-6.8716,-6.9508,-7.0114,-7.0549,-7.1144,-7.2069,-7.3146,-7.379,-7.4485,-7.531,-7.5787,-7.6015,-7.6015,-7.6015,-7.6015,-7.6015,-7.6015,-7.6015,-7.6005,-7.635,-7.6555,-7.6643,-7.6877,-7.7043,-7.7101,-7.7101,-7.7101,-7.7101,-7.7101,-7.7146,-7.7161,-4.1172,-4.1172,-4.1172,-4.1172,-4.1172,-4.1172,-4.1172,-4.1606,-4.2238,-4.3194,-4.4106,-4.5315,-4.6881,-4.8397,-4.986,-5.1239,-5.2244,-5.2757,-5.252,-5.1783,-5.1404,-5.1643,-5.0098,-4.9745,-5.1,-4.9623,-4.9031,-4.9251,-4.8763,-4.931,-5.0654,-5.0872,-5.1609,-5.2943,-5.3652,-5.4684,-5.5918,-5.5918,-5.7559,-6.0247,-6.2009,-6.2745,-6.2855,-6.3343,-6.3417,-6.3193,-6.3491,-6.36,-6.36,-6.36,-6.3268,-6.2855,-6.3417,-6.3826,-6.4218,-6.4902,-6.5806,-6.6569,-6.6355,-6.6801,-6.6972,-6.5582,-6.5645,-6.5645,-6.4323,-6.4004,-6.4004,-6.4004,-6.4111,-6.4428,-6.4841,-6.4841,-6.4944,-6.5308,-6.5725,-6.6222,0.0,-6.7415,-6.807,-6.8457,-6.8408,-6.8358,-6.8309,-6.8259,-6.8259,-6.8259,-6.879,-6.9298,-6.9595,-7.0165,-7.0995,-7.208,-7.3015,-7.3877,-7.4673,-7.5571,-7.6015,-7.6015,-7.6015,-7.6015,-7.6015,-7.6015,-7.6034,-7.6133,-7.6477,-7.6605,-7.6684,-7.6973,-7.7101,-7.7101,-7.7101,-7.7107,-7.7117,-7.7146,-7.7151,-7.7211,-4.1172,-4.1172,-4.1172,-4.1172,-4.1172,-4.1172,-4.1172,-4.2351,-4.3305,-4.3415,-4.4673,-4.6211,-4.7982,-4.9213,-5.0679,-5.2215,-5.3465,-5.3865,-5.3285,-5.3223,-5.3529,-5.4171,-5.3054,-5.3054,-5.4357,-5.1699,-5.0711,-5.1201,-4.9776,-5.0023,-5.1677,-5.1238,-5.1896,-5.3395,-5.2943,-5.386,-5.5918,-5.5918,-5.79,-6.1086,-6.2855,-6.36,-6.3526,-6.36,-6.3083,-6.2436,-6.3268,-6.36,-6.36,-6.36,-6.36,-6.36,-6.36,-6.4532,-6.559,-6.559,-6.678,-6.7967,-6.7193,-6.7157,-6.714,-6.6259,-6.6042,-6.5894,-6.5035,-6.487,-6.487,-6.487,-6.4905,-6.5273,-6.615,-6.5851,-6.576,-6.6487,-6.6605,-6.7064,-6.8321,-6.8506,-6.8506,-6.8506,-6.8506,-6.8457,-6.8309,-6.8408,-6.8358,-6.8121,-6.8358,-6.8742,-6.9383,-6.9558,-7.0029,-7.0809,-7.251,-7.3418,-7.3494,-7.513,-7.5976,-7.6015,-7.6015,-7.6015,-7.6015,-7.6015,-7.6106,-7.6305,-7.6536,-7.6669,-7.6816,-7.7036,-7.7101,-7.7101,-7.7101,-7.7117,-7.7094,-7.7195,-7.7211,-7.7187,-4.1172,-4.1172,-4.1172,-4.1172,-4.1172,-4.1172,-4.1172,-4.2351,-4.372,-4.4781,-4.7086,-4.9213,-5.0674,-5.2184,-5.3326,-5.4241,-5.4655,-5.497,-5.5364,-5.4514,-5.4515,-5.5587,-5.399,-5.3644,-5.4935,-5.2778,-5.1683,-5.1853,-5.0519,-4.9987,-5.046,-5.1238,-5.1787,-5.2329,-5.3547,-5.4786,-5.5918,-5.6506,-5.8391,-6.1086,-6.2855,-6.3193,-6.2668,-6.3343,-6.3083,-6.2436,-6.3268,-6.36,-6.36,-6.36,-6.36,-6.36,-6.36,-6.4532,-6.5653,-6.5832,-6.6915,-6.807,-6.8121,-6.8171,-6.7996,-6.714,-6.6972,-6.6765,-6.5894,-6.5708,-6.5708,-6.5708,-6.5806,-6.5966,-6.6089,-6.5914,-6.5788,-6.6368,-6.6931,-6.763,-6.8408,-6.8506,-6.8506,-6.8506,-6.8408,-6.8358,-6.8457,-6.8309,-6.8208,-6.8259,-6.8208,-6.8333,-6.8605,-6.8705,-6.9283,-7.0405,-7.1203,-7.2358,-7.3947,-7.465,-7.5361,-7.6015,-7.6015,-7.6015,-7.6015,-7.6015,-7.6106,-7.6305,-7.6536,-7.6669,-7.6816,-7.7036,-7.7101,-7.7101,-7.7101,-7.7146,-7.7195,-7.7178,-7.7187,-7.7187,-4.1172,-4.1172,-4.1172,-4.1172,-4.1516,-4.1834,-4.2037,-4.2774,-4.3939,-4.5767,-4.8179,-5.0329,-5.181,-5.3495,-5.4794,-5.5557,-5.5588,-5.5606,-5.578,-5.5627,-5.5782,-5.6155,-5.5743,-5.5831,-5.6559,-5.476,-5.361,-5.3011,-5.1565,-5.074,-5.046,-5.1348,-5.1896,-5.2221,-5.3576,-5.4815,-5.6017,-5.7932,-5.961,-6.1086,-6.2855,-6.3343,0.0,-6.3417,-6.3268,-6.2931,-6.3417,-6.36,-6.36,-6.36,-6.36,-6.3639,-6.3967,-6.4806,-6.5716,-6.6235,-6.7176,-6.8158,-6.8358,-6.8457,-6.8408,-6.7945,-6.7841,-6.7594,-6.6765,-6.6555,-6.6555,-6.6555,-6.6591,-6.6743,-6.7064,-6.6758,-6.6523,-6.6874,-6.7523,-6.8121,-6.8457,-6.8506,-6.8506,-6.8506,-6.8408,-6.8408,-6.8506,-6.8259,-6.8121,-6.8208,-6.8208,-6.8208,-6.8309,-6.8408,-6.8893,-6.9766,-7.0567,-7.1672,-7.2979,-7.4136,-7.4938,-7.5438,-7.5822,-7.6015,-7.5976,-7.6079,-7.6248,-7.6457,-7.6605,-7.6768,-7.6956,-7.7043,-7.7101,-7.7101,-7.7117,-7.7126,-7.7215,-7.7187,-7.7187,-7.7187,-4.1365,-4.1389,-4.1389,-4.1389,-4.2168,-4.305,-4.384,-4.3984,-4.483,-4.6878,-4.9019,-5.0935,-5.2282,-5.4082,-5.5559,-5.6315,-5.6315,-5.6116,-5.5589,-5.6652,-5.7119,-5.648,-5.7653,-5.8274,-5.8274,-5.6927,-5.5469,-5.4127,-5.2799,-5.1702,-5.0795,-5.1458,-5.2004,-5.2516,-5.329,-5.4479,-5.6445,-5.9577,-6.1003,-6.125,-6.2931,-6.36,-6.36,-6.36,-6.36,-6.36,-6.36,-6.36,-6.36,-6.36,-6.3673,-6.3858,-6.4463,-6.5171,-6.5904,-6.6722,-6.7523,-6.8158,-6.8309,-6.8408,-6.8506,-6.8506,-6.8506,-6.8321,-6.7647,-6.745,-6.745,-6.745,-6.7341,-6.754,-6.842,-6.8084,-6.7684,-6.7684,-6.8185,-6.8565,-6.866,-6.8613,-6.8602,-6.8602,-6.8565,0.0,-6.8506,-6.8259,-6.8158,-6.8158,-6.8259,-6.8309,-6.8309,-6.8506,-6.8763,-6.9176,-7.0306,-7.1175,-7.1669,-7.3445,-7.4476,-7.4707,-7.5476,-7.5899,-7.6015,-7.6199,-7.6415,-7.6626,-7.6741,-7.6907,-7.7101,-7.7101,-7.7101,-7.7101,-7.7126,-7.7144,-7.7187,-7.7187,-7.7187,-7.7187,-4.2399,-4.2495,-4.2495,-4.2495,-4.3296,-4.4586,-4.6807,-4.7561,-4.8187,-4.8847,-5.1945,-5.4173,-5.4204,-5.5252,-5.632,-5.6979,-5.7042,-5.7235,-5.7713,-5.7993,-5.8024,-5.7965,-5.8182,-5.8274,-5.8274,-5.6927,-5.5469,-5.4127,-5.2799,-5.1456,-5.0123,-5.0795,-5.1348,-5.2004,-5.3203,-5.537,-5.8053,-6.001,-6.1332,-6.2167,-6.3158,-6.36,-6.36,-6.36,-6.36,-6.36,-6.36,-6.36,-6.36,-6.36,-6.3967,-6.4463,-6.4702,-6.5653,-6.6758,-6.712,-6.7736,-6.8309,-6.8408,-6.8457,-6.8506,-6.8506,-6.8506,-6.8457,-6.8321,-6.8272,-6.8272,-6.8272,-6.8272,-6.8383,-6.8772,-6.901,-6.8935,-6.8208,-6.8567,-6.9091,-6.9428,-6.9219,-6.8997,-6.8997,-6.887,-6.8726,-6.8506,-6.8358,-6.8259,-6.8259,-6.8309,-6.8309,-6.8309,-6.8763,-6.9176,-6.9587,-7.0147,-7.0974,-7.2083,-7.2447,-7.3322,-7.4707,-7.4861,-7.5284,-7.6015,-7.6199,-7.6415,-7.6626,-7.6741,-7.6907,-7.7101,-7.7101,-7.7101,-7.7101,-7.7146,-7.7172,-7.7187,-7.7187,-7.7187,-7.7187,-4.2711,-4.276,-4.2998,-4.3448,-4.4245,-4.5565,-4.7607,-4.9138,-5.0313,-5.0931,-5.2872,-5.447,-5.4752,-5.6248,-5.739,-5.7737,-5.7769,-5.7895,-5.8243,-5.8274,-5.8274,-5.8274,-5.8274,-5.8274,-5.8274,-5.7653,-5.6189,-5.4127,-5.3535,-5.2108,-5.001,-5.0572,-5.1017,-5.143,-5.3994,-5.6357,-5.851,-6.072,-6.185,-6.2358,-6.3268,-6.36,-6.36,-6.36,-6.36,-6.36,-6.36,-6.36,-6.36,-6.36,-6.4039,-6.4634,-6.5202,-6.6028,-6.6988,-6.763,-6.807,-6.8309,-6.8457,-6.8506,-6.8506,-6.8506,-6.8506,-6.8506,-6.8506,-6.8506,-6.8506,-6.8506,-6.8506,-6.8613,-6.8915,-6.9003,-6.8966,-6.8978,-6.9015,-6.9261,-6.9625,-6.9508,-6.9388,-6.9388,-6.9347,-6.9181,-6.8817,-6.8763,-6.8623,-6.8408,-6.8358,-6.8358,-6.8408,-6.8817,-6.9265,-6.9702,-7.0099,-7.0693,-7.1514,-7.1975,-7.2591,-7.3399,-7.4284,-7.4938,-7.5322,-7.6111,-7.6517,-7.6588,-7.6855,-7.6989,-7.7101,-7.7101,-7.7112,-7.7122,-7.7185,-7.7211,-7.7187,-7.7187,-7.7187,-7.7187,-4.3432,-4.3456,-4.3671,-4.4711,-4.5617,-4.6664,-4.8133,-5.005,-5.1623,-5.2398,-5.3436,-5.4398,-5.5232,-5.7121,-5.8274,-5.8274,-5.8274,-5.8274,-5.8274,-5.8274,-5.8274,-5.8274,-5.8274,-5.8274,-5.8274,-5.8274,-5.7022,-5.4535,-5.4259,-5.2992,-5.0624,-5.0738,-5.1072,-5.1755,-5.5318,-5.765,-5.9105,-6.138,-6.2436,-6.2591,-6.3343,-6.3669,-6.3841,-6.3841,-6.3945,-6.4048,-6.391,-6.3841,-6.3807,-6.3634,-6.4147,-6.4905,-6.5617,-6.6451,-6.7305,-6.8121,-6.8358,-6.8358,-6.8457,-6.8506,-6.8506,-6.8506,-6.8506,-6.8506,-6.8506,-6.8506,-6.8506,-6.8506,-6.8602,-6.8717,-6.9047,-6.8997,-6.9085,-6.9587,-6.9508,-6.9468,-6.9777,-6.974,-6.974,-6.9814,-6.9664,-6.9468,-6.9261,-6.9047,-6.8863,-6.866,-6.8457,-6.8457,-6.8613,-6.9041,-6.9388,-6.9814,-7.0238,-7.0593,-7.0898,-7.1591,-7.2014,-7.2206,-7.3745,-7.4543,-7.4819,-7.603,-7.6643,-7.6653,-7.6965,-7.7101,-7.7101,-7.7101,-7.7117,-7.7097,-7.7165,-7.7217,-7.7187,-7.7187,-7.7187,-7.7187,-4.5278,-4.5498,-4.586,-4.6815,-4.773,-4.8771,-4.9878,-5.0906,-5.1915,-5.2501,-5.4547,-5.6128,-5.648,-5.7621,-5.8274,-5.8274,-5.8274,-5.8274,-5.8274,-5.8274,-5.8274,-5.8274,-5.8274,-5.8274,-5.8274,-5.8274,-5.7559,-5.5993,-5.4768,-5.3617,-5.2628,-5.0903,-5.1481,-5.4124,-5.6995,-5.9217,-6.092,-6.1896,-6.2779,-6.3526,-6.36,-6.3979,-6.46,-6.46,-6.5048,-6.5566,-6.4841,-6.46,-6.4496,-6.3807,-6.4463,-6.559,-6.5894,-6.6915,-6.807,-6.8408,-6.8457,-6.8457,-6.8506,-6.8506,-6.8506,-6.8506,-6.8506,-6.8506,-6.8506,-6.8506,-6.8506,-6.8506,-6.8809,-6.9085,-6.9091,-6.9664,-7.003,-6.974,-6.9959,-7.02,-7.0271,-6.9923,-6.9851,-7.02,-6.9587,-6.9265,-6.9625,-6.8997,-6.8707,-6.9041,-6.867,-6.866,-6.9003,-6.9428,-6.9814,-7.02,-7.0622,-7.0871,-7.0898,-7.0975,-7.1398,-7.2206,-7.3168,-7.4075,-7.502,-7.609,-7.6653,-7.6793,-7.7028,-7.7101,-7.7101,-7.7101,-7.7117,-7.71,-7.7186,-7.7187,-7.7187,-7.7187,-7.7187,-7.7187,-4.656,-4.661,-4.6968,-4.7886,-4.8353,-4.893,-4.9956,-5.0405,-5.1183,-5.2459,-5.442,-5.6054,-5.6603,-5.7495,-5.8089,-5.8274,-5.8274,-5.8274,-5.8274,-5.8274,-5.8274,-5.8274,-5.8274,-5.8274,-5.8274,-5.8274,-5.7653,-5.6189,-5.4768,-5.389,-5.3444,-5.2509,-5.4068,-5.7746,-5.9402,-6.1245,-6.3175,-6.4108,-6.4641,-6.4979,-6.4979,-6.5152,-6.5393,-6.5393,-6.56,-6.5842,-6.5531,-6.5393,-6.529,-6.4531,-6.4848,-6.5653,-6.5894,-6.6972,-6.8121,-6.8408,-6.8506,-6.8506,-6.8506,-6.8506,-6.8506,-6.8506,-6.8506,-6.8506,-6.8506,-6.8506,-6.8506,-6.8506,-6.8613,-6.8863,-6.9347,-6.9508,-6.9777,-7.0337,-7.0369,-7.0369,-7.0622,-7.0532,-7.0501,-7.0622,-7.0369,-7.0133,-7.0064,-6.9548,-6.9176,-6.9091,-6.8952,-6.8908,-6.9091,-6.9702,-7.0133,-7.0304,-7.0719,-7.0898,-7.0898,-7.0898,-7.1052,-7.1437,-7.2822,-7.3755,-7.4293,-7.5876,-7.6728,-7.6981,-7.7089,-7.7101,-7.7101,-7.7101,-7.7117,-7.71,-7.7187,-7.7187,-7.7187,-7.7187,-7.7187,-7.7187,-4.756,-4.7652,-4.7886,-4.8815,-4.9045,-4.9186,-4.9897,-5.001,-5.0544,-5.1948,-5.3698,-5.526,-5.6506,-5.7275,-5.7871,-5.8182,-5.8089,-5.8182,-5.8274,-5.8274,-5.8182,-5.8274,-5.8274,-5.8274,-5.8274,-5.8274,-5.784,-5.6831,-5.537,-5.4875,-5.5056,-5.5334,-5.7387,-6.0825,-6.1811,-6.328,-6.4914,-6.5611,-6.5876,-6.5876,-6.5876,-6.6014,-6.6221,-6.6221,-6.6359,-6.6497,-6.629,-6.6221,-6.6083,-6.5324,-6.5302,-6.5682,-6.5904,-6.6972,-6.8121,-6.8408,-6.8506,-6.8506,-6.8506,-6.8506,-6.8506,-6.8506,-6.8506,-6.8506,-6.8506,-6.8506,-6.8506,-6.8506,-6.8506,-6.8754,-6.9548,-6.9468,-6.9587,-7.0563,-7.0593,-7.0532,-7.0719,-7.0719,-7.0719,-7.0719,-7.0532,-7.0369,-7.0304,-6.9851,-6.9508,-6.9468,-6.9468,-6.9388,-6.9303,-6.9923,-7.0369,-7.0463,-7.0748,-7.0898,-7.0898,-7.0898,-7.0898,-7.0937,-7.2481,-7.3393,-7.3858,-7.586,-7.6866,-7.7101,-7.7101,-7.7101,-7.7101,-7.7101,-7.7117,-7.71,-7.7187,-7.7187,-7.7187,-7.7187,-7.7187,-7.7187,-4.8353,-4.8584,-4.893,-4.9783,-5.001,-5.001,-5.001,-5.001,-5.0235,-5.0795,-5.2352,-5.4142,-5.6085,-5.6988,-5.759,-5.7871,-5.7684,-5.7778,-5.8274,-5.8058,-5.7965,-5.8274,-5.8274,-5.8274,-5.8274,-5.8274,-5.8274,-5.8274,-5.6831,-5.6762,-5.8075,-5.9731,-6.1183,-6.2537,-6.3867,-6.496,-6.5876,-6.5876,-6.5876,-6.5876,-6.5876,-6.6324,-6.698,-6.698,-6.7428,-6.798,-6.7256,-6.698,-6.6876,-6.6117,-6.5777,-6.5756,-6.5958,-6.6972,-6.8121,-6.8408,-6.8506,-6.8506,-6.8506,-6.8506,-6.8506,-6.8506,-6.8506,-6.8506,-6.8506,-6.8506,-6.8506,-6.8506,-6.8506,-6.8754,-6.9548,-6.9702,-6.9814,-7.0233,-7.0622,-7.0748,-7.0369,-7.0304,-7.0304,-7.0304,-6.9625,-6.9428,-7.02,-6.9587,-6.9428,-7.0238,-7.0304,-7.0099,-6.9702,-7.0064,-7.0463,-7.0871,-7.0898,-7.0898,-7.0898,-7.0898,-7.0898,-7.0898,-7.1989,-7.3044,-7.4078,-7.6127,-7.7101,-7.7101,-7.7101,-7.7101,-7.7101,-7.7101,-7.7117,-7.71,-7.7187,-7.7187,-7.7187,-7.7187,-7.7187,-7.7187,-4.9529,-4.9529,-4.9643,-4.9897,-5.001,-5.001,-5.001,-5.001,-5.0656,-5.2352,-5.3097,-5.4245,-5.6439,-5.7019,-5.7401,-5.7871,-5.7778,-5.7871,-5.8274,-5.8182,-5.8182,-5.8274,-5.8274,-5.8274,-5.8274,-5.8274,-5.8496,-5.897,-5.7607,-5.7685,-5.9176,-6.1081,-6.3002,-6.4673,-6.571,-6.6642,-6.7394,-6.7394,-6.7394,-6.7394,-6.7394,-6.7532,-6.7738,-6.7738,-6.7911,-6.8049,-6.7807,-6.7738,-6.7635,-6.6876,-6.6925,-6.72,-6.6803,-6.7003,-6.7577,-6.8272,-6.8506,-6.8506,-6.8506,-6.8506,-6.8506,-6.8506,-6.8506,-6.8506,-6.8506,-6.8506,-6.8506,-6.8506,-6.8506,-6.866,-6.9176,-6.9508,-6.9814,-7.02,-7.0622,-7.0871,-7.0719,-7.0719,-7.0719,-7.0719,-7.0463,-7.04,-7.0652,-7.0238,-7.003,-7.0304,-7.0304,-7.0233,-7.0099,-7.0501,-7.0777,-7.0898,-7.0898,-7.0898,-7.0898,-7.0898,-7.0898,-7.0898,-7.1989,-7.3433,-7.5158,-7.6474,-7.7101,-7.7101,-7.7101,-7.7101,-7.7101,-7.7101,-7.7117,-7.71,-7.7187,-7.7187,-7.7187,-7.7187,-7.7187,-7.7187,-5.001,-5.001,-5.001,-5.001,-5.001,-5.001,-5.001,-5.001,-5.0656,-5.2566,-5.3097,-5.423,-5.6282,-5.7002,-5.749,-5.7715,-5.7934,-5.8185,-5.8654,-5.8813,-5.8939,-5.9033,-5.9033,-5.9033,-5.9033,-5.9033,-5.9254,-5.9665,-5.9441,-5.9949,-6.1335,-6.332,-6.4992,-6.6528,-6.7158,-6.7669,-6.8083,-6.8083,-6.8083,-6.8083,-6.8083,-6.8083,-6.8083,-6.8083,-6.8083,-6.8083,-6.8083,-6.8083,-6.8014,-6.7566,-6.7496,-6.7648,-6.7522,-6.7353,-6.7316,-6.8195,-6.8457,-6.8506,-6.8506,-6.8506,-6.8506,-6.8506,-6.8506,-6.8506,-6.8506,-6.8506,-6.8506,-6.8506,-6.8506,-6.8613,-6.9041,-6.9428,-6.9814,-7.02,-7.0622,-7.0898,-7.0898,-7.0898,-7.0871,-7.0719,-7.0652,-7.0652,-7.0652,-7.0432,-7.0369,-7.0494,-7.0532,-7.0532,-7.0532,-7.0748,-7.0898,-7.0898,-7.0898,-7.0898,-7.0898,-7.0898,-7.0898,-7.0898,-7.2352,-7.3806,-7.523,-7.6536,-7.7101,-7.7101,-7.7101,-7.7101,-7.7101,-7.7101,-7.7117,-7.71,-7.7187,-7.7187,-7.7187,-7.7187,-7.7187,-7.7187,-5.001,-5.001,-5.001,-5.001,-5.001,-5.001,-5.001,-5.001,-5.0432,-5.1759,-5.2837,-5.4153,-5.6047,-5.7212,-5.7757,-5.7588,-5.8052,-5.8522,-5.9286,-5.979,-6.004,-6.0297,-6.0297,-6.0297,-6.0297,-6.0297,-6.0329,-6.036,-6.207,-6.3284,-6.4233,-6.5917,-6.7127,-6.8004,-6.8083,-6.8083,-6.8083,-6.8083,-6.8083,-6.8083,-6.8083,-6.8083,-6.8083,-6.8083,-6.8083,-6.8083,-6.8083,-6.8083,-6.8083,-6.8083,-6.7713,-6.726,-6.8093,-6.7887,-6.7475,-6.8136,-6.8408,-6.8506,-6.8506,-6.8506,-6.8506,-6.8506,-6.8506,-6.8506,-6.8506,-6.8506,-6.8506,-6.8506,-6.8506,-6.8613,-6.9041,-6.9428,-6.9814,-7.02,-7.0622,-7.0898,-7.0898,-7.0898,-7.0748,-7.04,-7.0337,-7.0337,-7.0337,-7.0337,-7.0501,-7.0871,-7.0898,-7.0898,-7.0898,-7.0898,-7.0898,-7.0898,-7.0898,-7.0898,-7.0898,-7.0898,-7.0925,-7.0952,-7.3025,-7.4184,-7.4564,-7.632,-7.7101,-7.7101,-7.7101,-7.7101,-7.7101,-7.7101,-7.7117,-7.7097,-7.7187,-7.7187,-7.7187,-7.7187,-7.7187,-7.7187,0.0,-5.001,-5.001,-5.001,-5.001,-5.001,-5.001,-5.001,-5.0933,-5.341,-5.4033,-5.5217,-5.7821,-5.8416,-5.8684,-5.8794,-5.8949,-5.9238,-5.9693,-5.985,-6.004,-6.0297,-6.0297,-6.0297,-6.0297,-6.0297,-6.0581,-6.115,-6.2842,-6.3728,-6.3975,-6.5808,-6.6795,-6.7044,-6.7765,-6.8083,-6.8083,-6.8083,-6.8083,-6.8083,-6.8083,-6.8083,-6.8083,-6.8083,-6.8083,-6.8083,-6.8083,-6.8083,-6.8083,-6.8083,-6.8335,-6.8635,-6.8271,-6.8471,-6.883,-6.8527,-6.8457,-6.8506,-6.8506,-6.8506,-6.8506,-6.8506,-6.8506,-6.8506,-6.8506,-6.8506,-6.8506,-6.8506,-6.8506,-6.8613,-6.9041,-6.9428,-6.9814,-7.02,-7.0622,-7.0898,-7.0898,-7.0898,-7.0871,-7.0777,-7.0748,-7.0748,-7.0748,-7.0748,-7.0777,-7.0898,-7.0898,-7.0898,-7.0898,-7.0898,-7.0898,-7.0898,-7.0898,-7.0898,-7.0898,-7.0898,-7.1029,-7.1397,-7.3156,-7.4184,-7.4564,-7.632,-7.7101,-7.7101,-7.7101,-7.7101,-7.7101,-7.7101,-7.7146,-7.7195,-7.7184,-7.7187,-7.7187,-7.7187,-7.7187,-7.7187,-5.001,-5.001,-5.001,-5.001,-5.0227,-5.0417,-5.0417,-5.0661,-5.1591,-5.366,-5.4454,-5.5789,-5.8183,-5.892,-5.9479,-5.9888,-5.9742,-5.9855,-6.0415,-6.0697,-6.0984,-6.1277,-6.1277,-6.1277,-6.1277,-6.1277,-6.1466,-6.1877,-6.37,-6.4512,-6.4604,-6.6424,-6.7325,-6.7407,-6.7845,-6.8083,-6.8083,-6.8083,-6.8083,-6.8083,-6.8083,-6.8083,-6.8083,-6.8083,-6.8083,-6.8083,-6.8083,-6.8083,-6.8083,-6.8083,-6.8635,-6.9175,-6.8439,-6.8765,-6.9372,-6.8703,-6.8506,-6.8506,-6.8506,-6.8506,-6.8506,-6.8506,-6.8506,-6.8506,-6.8506,-6.8506,-6.8506,-6.8506,-6.8506,-6.8613,-6.9041,-6.9428,-6.9814,-7.02,-7.0622,-7.0898,-7.0898,-7.0898,-7.0898,-7.0898,-7.0898,-7.0898,-7.0898,-7.0898,-7.0898,-7.0898,-7.0898,-7.0898,-7.0898,-7.0898,-7.0898,-7.0898,-7.0898,-7.0898,-7.0898,-7.0992,-7.1214,-7.152,-7.3285,-7.4283,-7.4564,-7.632,-7.7101,-7.7101,-7.7101,-7.7101,-7.7101,-7.714,-7.7179,-7.7185,-7.7184,-7.7187,-7.7187,-7.7187,-7.7187,-7.7187,-5.0254,-5.0281,-5.0281,-5.0281,-5.0715,-5.1041,-5.1041,-5.1475,-5.2294,-5.3471,-5.4677,-5.6113,-5.7975,-5.9283,-6.0178,-6.0763,-6.0475,-6.054,-6.1038,-6.1571,-6.2116,-6.2446,-6.2446,-6.2446,-6.2446,-6.2446,-6.2446,-6.2446,-6.4328,-6.5293,-6.5293,-6.7209,-6.8083,-6.8083,-6.8083,-6.8083,-6.8083,-6.8083,-6.8083,-6.8083,-6.8083,-6.8083,-6.8083,-6.8083,-6.8083,-6.8083,-6.8083,-6.8083,-6.8083,-6.8083,-6.8752,-6.9389,-6.8571,-6.8947,-6.9596,-6.8753,-6.8506,-6.8506,-6.8506,-6.8506,-6.8506,-6.8506,-6.8506,-6.8506,-6.8506,-6.8506,-6.8506,-6.8506,-6.8554,-6.8717,-6.9091,-6.9508,-6.9887,-7.0233,-7.0622,-7.0871,-7.0843,-7.0871,-7.0898,-7.0898,-7.0898,-7.0898,-7.0898,-7.0898,-7.0898,-7.0898,-7.0898,-7.0898,-7.0898,-7.0898,-7.0898,-7.0898,-7.0898,-7.0898,-7.0898,-7.1101,-7.1358,-7.1714,-7.3471,-7.445,-7.4759,-7.636,-7.7101,-7.7101,-7.7101,-7.7101,-7.7107,-7.7179,-7.7185,-7.7195,-7.7184,-7.7187,-7.7187,-7.7187,-7.7187,-7.7187,-5.1448,-5.1557,-5.1557,-5.1557,-5.1611,-5.1692,-5.1692,-5.1774,-5.2459,-5.4173,-5.5447,-5.6786,-5.8662,-5.9953,-6.0701,-6.0794,-6.0908,-6.1153,-6.1527,-6.1621,-6.1916,-6.2347,-6.2446,-6.2446,-6.2446,-6.2446,-6.2446,-6.2446,-6.4328,-6.5293,-6.5293,-6.7209,-6.8083,-6.8083,-6.8083,-6.8083,-6.8083,-6.8083,-6.8083,-6.8083,-6.8083,-6.8083,-6.8083,-6.8083,-6.8083,-6.8083,-6.8083,-6.8083,-6.8083,-6.8083,-6.9091,-7.0078,-6.8766,-6.934,-7.0243,-6.889,-6.8506,-6.8506,-6.8506,-6.8506,-6.8506,-6.8506,-6.8506,-6.8506,-6.8506,-6.8506,-6.8506,-6.8506,-6.8763,-6.9134,-6.9508,-6.9923,-7.0238,-7.0304,-7.0622,-7.0777,-7.0432,-7.069,-7.0898,-7.0898,-7.0898,-7.0898,-7.0898,-7.0898,-7.0898,-7.0898,-7.0898,-7.0898,-7.0898,-7.0898,-7.0898,-7.0898,-7.0898,-7.0898,-7.0898,-7.1101,-7.1649,-7.253,-7.3743,-7.4762,-7.5618,-7.6633,-7.7101,-7.7101,-7.7101,-7.7117,-7.7094,-7.7151,-7.7204,-7.7187,-7.7187,-7.7187,-7.7187,-7.7187,-7.7187,-7.7187,-5.1774,-5.1828,-5.1828,-5.1828,-5.2099,-5.2289,-5.2289,-5.2588,-5.3097,-5.3937,-5.5652,-5.7091,-5.7937,-5.9789,-6.1,-6.1,-6.1308,-6.1512,-6.1815,-6.1815,-6.2016,-6.2414,-6.2446,-6.2446,-6.2446,-6.2446,-6.271,-6.3164,-6.4571,-6.5559,-6.6081,-6.7488,-6.8083,-6.8083,-6.8083,-6.8083,-6.8083,-6.8083,-6.8083,-6.8083,-6.8083,-6.8083,-6.8083,-6.8083,-6.8083,-6.8083,-6.8083,-6.8083,-6.8162,-6.86,-6.9637,-7.0584,-6.9901,-7.0201,-7.0597,-6.9459,-6.884,-6.8506,-6.8506,-6.8506,-6.8506,-6.8506,-6.8506,-6.8506,-6.8506,-6.8506,-6.8506,-6.8506,-6.8809,-6.9219,-6.9625,-7.003,-7.0369,-7.0593,-7.0777,-7.0843,-7.0622,-7.0777,-7.0898,-7.0898,-7.0898,-7.0898,-7.0898,-7.0898,-7.0898,-7.0898,-7.0898,-7.0898,-7.0898,-7.0898,-7.0898,-7.0898,-7.0898,-7.094,-7.1053,-7.1239,-7.1875,-7.286,-7.3924,-7.4889,-7.5813,-7.6711,-7.7101,-7.7101,-7.7101,-7.7107,-7.7161,-7.7172,-7.7184,-7.7187,-7.7187,-7.7187,-7.7187,-7.7187,-7.7187,-7.7187,-5.2208,-5.2235,-5.2235,-5.2235,-5.2615,-5.2913,-5.2913,-5.3293,-5.3713,-5.3926,-5.5848,-5.7299,-5.7523,-5.9758,-6.1206,-6.1206,-6.1512,-6.1784,-6.2016,-6.2016,-6.2216,-6.2414,-6.2446,-6.2446,-6.2446,-6.2612,-6.3164,-6.3894,-6.5024,-6.5995,-6.6711,-6.765,-6.8083,-6.8083,-6.8083,-6.8083,-6.8083,-6.8083,-6.8083,-6.8083,-6.8083,-6.8083,-6.8083,-6.8083,-6.8083,-6.8083,-6.8319,-6.8397,-6.8517,-6.9349,-7.0297,-7.1042,-7.0953,-7.09,-7.0772,-6.9955,-6.9137,-6.8506,-6.8506,-6.8506,-6.8506,-6.8506,-6.8506,-6.8506,-6.8506,-6.8506,-6.8506,-6.8506,-6.8863,-6.9306,-6.9625,-7.0099,-7.0532,-7.0719,-7.0843,-7.0871,-7.0777,-7.0843,-7.0898,-7.0898,-7.0898,-7.0898,-7.0898,-7.0898,-7.0898,-7.0898,-7.0898,-7.0898,-7.0898,-7.0898,-7.0925,-7.0966,-7.0925,-7.0992,-7.1214,-7.1589,-7.2312,-7.3297,-7.4336,-7.5266,-7.6125,-7.6789,-7.7101,-7.7101,-7.7101,-7.714,-7.7185,-7.7184,-7.7187,-7.7187,-7.7187,-7.7187,-7.7187,-7.7187,-7.7187,-7.7187,-5.3375,-5.3483,-5.3483,-5.3483,-5.351,-5.3537,-5.3537,-5.3565,-5.4047,-5.5178,-5.6423,-5.7664,-5.8763,-6.0211,-6.1206,-6.1206,-6.1714,-6.2016,-6.2016,-6.2216,-6.2347,-6.2446,-6.2446,-6.2446,-6.2446,-6.3357,-6.38,-6.3894,-6.5734,-6.6593,-6.6711,-6.765,-6.8083,-6.8083,-6.8083,-6.8083,-6.8083,-6.8083,-6.8083,-6.8083,-6.8083,-6.8083,-6.8083,-6.8083,-6.8083,-6.8162,-6.8863,-6.9161,-6.9273,-7.0127,-7.1059,-7.1672,-7.1107,-7.09,-7.0772,-6.9955,-6.9137,-6.8506,-6.8506,-6.8506,-6.8506,-6.8506,-6.8506,-6.8506,-6.8506,-6.8506,-6.8506,-6.8506,-6.9091,-6.9664,-6.9702,-7.0337,-7.0748,-7.04,-7.0652,-7.0777,-7.04,-7.069,-7.0898,-7.0898,-7.0898,-7.0898,-7.0898,-7.0898,-7.0898,-7.0898,-7.0898,-7.0898,-7.0898,-7.0898,-7.0992,-7.1192,-7.0992,-7.0992,-7.1214,-7.2132,-7.3168,-7.4205,-7.5233,-7.6164,-7.7023,-7.7062,-7.7101,-7.7101,-7.7179,-7.7218,-7.7185,-7.7184,-7.7187,-7.7187,-7.7187,-7.7187,-7.7187,-7.7187,-7.7187,-7.7187,-5.3537,-5.3592,-5.3592,-5.3592,-5.3592,-5.3592,-5.3592,-5.3592,-5.4047,-5.5295,-5.6622,-5.7856,-5.9087,-6.0732,-6.1714,-6.1714,-6.2016,-6.2216,-6.2216,-6.2315,-6.2446,-6.2446,-6.2446,-6.2446,-6.2446,-6.2808,-6.3516,-6.4786,-6.547,-6.6424,-6.7569,-6.7925,-6.8083,-6.8083,-6.8083,-6.8083,-6.8083,-6.8083,-6.8083,-6.8083,-6.8083,-6.8083,-6.8083,-6.8083,-6.8083,-6.8162,-6.8938,-6.9273,-6.9493,-7.093,-7.166,-7.2043,-7.2392,-7.1754,-7.066,-6.936,-6.8766,-6.8506,-6.8506,-6.8506,-6.8506,-6.8506,-6.8506,-6.8506,-6.8506,-6.8506,-6.8506,-6.8506,-6.9134,-6.9702,-6.9702,-7.0337,-7.0871,-7.0719,-7.0777,-7.0871,-7.0719,-7.0777,-7.0898,-7.0898,-7.0898,-7.0898,-7.0898,-7.0898,-7.0898,-7.0898,-7.0898,-7.0898,-7.0898,-7.0898,-7.0992,-7.1214,-7.1124,-7.1218,-7.1505,-7.2419,-7.3414,-7.4445,-7.5371,-7.6242,-7.7101,-7.7101,-7.7112,-7.7087,-7.7185,-7.72,-7.7181,-7.7187,-7.7187,-7.7187,-7.7187,-7.7187,-7.7187,-7.7187,-7.7187,-7.7187,-5.3592,-5.3592,-5.3592,-5.3592,-5.3592,-5.3592,-5.3592,-5.3592,-5.4166,-5.5732,-5.6849,-5.8077,-5.9758,-6.1144,-6.1916,-6.2016,-6.2216,-6.2446,-6.2446,-6.2446,-6.2446,-6.2446,-6.2446,-6.2446,-6.2446,-6.271,-6.3705,-6.5293,-6.5559,-6.6508,-6.8083,-6.8083,-6.8083,-6.8083,-6.8083,-6.8083,-6.8083,-6.8083,-6.8083,-6.8083,-6.8083,-6.8083,-6.8083,-6.8083,-6.8083,-6.8241,-6.9273,-6.9637,-7.0022,-7.1721,-7.2386,-7.2556,-7.3178,-7.2258,-7.0586,-6.8989,-6.8506,-6.8506,-6.8506,-6.8506,-6.8506,-6.8506,-6.8506,-6.8506,-6.8506,-6.8506,-6.8506,-6.8506,-6.9134,-6.9702,-6.9702,-7.0337,-7.0898,-7.0898,-7.0898,-7.0898,-7.0898,-7.0898,-7.0898,-7.0898,-7.0898,-7.0898,-7.0898,-7.0898,-7.0898,-7.0898,-7.0898,-7.0898,-7.0898,-7.094,-7.1193,-7.1668,-7.1727,-7.2034,-7.2569,-7.3124,-7.3904,-7.4915,-7.5774,-7.6516,-7.7101,-7.7101,-7.7117,-7.7097,-7.7169,-7.7217,-7.7187,-7.7187,-7.7187,-7.7187,-7.7187,-7.7187,-7.7187,-7.7187,-7.7187,-7.7187,-5.3592,-5.3592,-5.3592,-5.3592,-5.3592,-5.3592,-5.3592,-5.3592,-5.4497,-5.6878,-5.7187,-5.8217,-6.0897,-6.141,-6.1683,-6.2016,-6.2216,-6.2446,-6.2446,-6.2446,-6.2446,-6.2446,-6.2446,-6.2446,-6.2446,-6.3357,-6.4328,-6.5293,-6.6253,-6.7127,-6.8083,-6.8083,-6.8083,-6.8083,-6.8083,-6.8083,-6.8083,-6.8083,-6.8083,-6.8083,-6.8083,-6.8083,-6.8083,-6.8083,-6.8083,-6.8284,-6.9919,-7.0499,-7.08,-7.2593,-7.3199,-7.3252,-7.332,-7.2258,-7.0623,-6.8989,-6.8506,-6.8506,-6.8506,-6.8506,-6.8506,-6.8506,-6.8506,-6.8506,-6.8506,-6.8506,-6.8506,-6.8506,-6.9134,-6.9702,-6.9702,-7.0337,-7.0898,-7.0898,-7.0898,-7.0898,-7.0898,-7.0898,-7.0898,-7.0898,-7.0898,-7.0898,-7.0898,-7.0898,-7.0898,-7.0898,-7.0898,-7.0898,-7.0898,-7.1077,-7.1668,-7.2685,-7.2887,-7.3505,-7.4486,-7.4372,-7.4801,-7.5813,-7.6672,-7.7101,-7.7101,-7.7101,-7.7117,-7.7097,-7.7187,-7.7187,-7.7187,-7.7187,-7.7187,-7.7187,-7.7187,-7.7187,-7.7187,-7.7187,-7.7187,-7.7187,-5.3592,-5.3592,-5.3592,-5.3592,-5.3592,-5.3592,-5.3592,-5.3592,-5.4497,-5.7187,-5.7605,-5.8811,-6.1481,-6.2016,-6.2216,-6.2216,-6.2315,-6.2446,-6.2446,-6.2446,-6.2446,-6.2446,-6.2446,-6.2446,-6.2446,-6.271,-6.3705,-6.5293,-6.5559,-6.6508,-6.8083,-6.8083,-6.8083,-6.8083,-6.8083,-6.8083,-6.8083,-6.8083,-6.8083,-6.8083,-6.8083,-6.8083,-6.8083,-6.8083,-6.844,-6.8978,-7.0127,-7.093,-7.1696,-7.2798,-7.3252,-7.3246,-7.2704,-7.1812,-7.0698,-6.9657,-6.8951,-6.8506,-6.8506,-6.8506,-6.8506,-6.8506,-6.8506,-6.8506,-6.8506,-6.8506,-6.8506,-6.8506,-6.9134,-6.9702,-6.9702,-7.0337,-7.0898,-7.0898,-7.0898,-7.0898,-7.0898,-7.0898,-7.0898,-7.0898,-7.0898,-7.0898,-7.0898,-7.0898,-7.0898,-7.0898,-7.0898,-7.094,-7.1101,-7.1772,-7.2366,-7.2887,-7.3559,-7.4411,-7.5384,-7.5365,-7.5482,-7.5813,-7.6672,-7.7101,-7.7101,-7.714,-7.7185,-7.7156,-7.7184,-7.7187,-7.7187,-7.7187,-7.7187,-7.7187,-7.7187,-7.7187,-7.7187,-7.7187,-7.7187,-7.7187,-5.3592,-5.3592,-5.3592,-5.3592,-5.3592,-5.3592,-5.3592,-5.4047,-5.506,-5.7187,-5.8048,-5.9272,-6.1582,-6.2016,-6.2116,-6.2414,-6.2446,-6.2446,-6.2446,-6.2446,-6.2446,-6.2446,-6.2446,-6.2446,-6.2446,-6.2808,-6.38,-6.5293,-6.5646,-6.6593,-6.8083,-6.8083,-6.8083,-6.8083,-6.8083,-6.8083,-6.8083,-6.8083,-6.8083,-6.8083,-6.8083,-6.8083,-6.8083,-6.8083,-6.8593,-6.9347,-7.0264,-7.1123,-7.2034,-7.3,-7.332,-7.3261,-7.2444,-7.1589,-7.0772,-6.9955,-6.9137,-6.8506,-6.8506,-6.8506,-6.8506,-6.8506,-6.8506,-6.8506,-6.8506,-6.8506,-6.8554,-6.867,-6.9261,-6.974,-6.9923,-7.0432,-7.0898,-7.0898,-7.0898,-7.0898,-7.0898,-7.0898,-7.0898,-7.0898,-7.0898,-7.0898,-7.0898,-7.0898,-7.0898,-7.0898,-7.1206,-7.1479,-7.1593,-7.2534,-7.3333,-7.3872,-7.4527,-7.5343,-7.6281,-7.632,-7.632,-7.632,-7.6867,-7.7101,-7.7101,-7.7151,-7.7151,-7.7185,-7.7183,-7.7187,-7.7187,-7.7187,-7.7187,-7.7187,-7.7187,-7.7187,-7.7187,-7.7187,-7.7187,-7.7187,-5.3592,-5.3592,-5.3592,-5.3592,-5.3592,-5.3592,-5.3592,-5.4497,-5.5732,-5.7075,-5.8217,-5.9546,-6.1481,-6.1582,-6.1815,-6.2347,-6.2446,-6.2446,-6.2446,-6.2446,-6.2446,-6.2446,-6.2446,-6.2446,-6.2446,-6.3357,-6.4328,-6.5293,-6.6253,-6.7209,-6.8083,-6.8083,-6.8083,-6.8083,-6.8083,-6.8083,-6.8083,-6.8083,-6.8083,-6.8083,-6.8083,-6.8083,-6.8083,-6.8083,-6.8593,-6.9492,-7.0468,-7.135,-7.2153,-7.3071,-7.3372,-7.3261,-7.2518,-7.1701,-7.0883,-7.0066,-6.9249,-6.8617,-6.8543,-6.8506,-6.8506,-6.8506,-6.8506,-6.8506,-6.8506,-6.8506,-6.8613,-6.9041,-6.9388,-6.9814,-7.0238,-7.0622,-7.0898,-7.0898,-7.0898,-7.0898,-7.0898,-7.0898,-7.0898,-7.0898,-7.0898,-7.0898,-7.0898,-7.0975,-7.1052,-7.1129,-7.186,-7.2349,-7.2311,-7.3488,-7.4489,-7.5283,-7.5698,-7.6281,-7.7101,-7.7101,-7.7101,-7.7101,-7.7101,-7.7101,-7.7101,-7.7091,-7.713,-7.719,-7.7184,-7.7187,-7.7187,-7.7187,-7.7187,-7.7187,-7.7187,-7.7187,-7.7187,-7.7187,-7.7187,-7.7187,-5.3592,-5.3592,-5.3592,-5.3592,-5.3592,-5.3592,-5.3592,-5.3833,-5.4825,-5.7187,-5.7745,-5.8949,-6.1582,-6.1916,-6.2016,-6.2315,-6.2446,-6.2446,-6.2446,-6.2446,-6.2446,-6.2446,-6.2446,-6.2446,-6.2446,-6.3357,-6.4328,-6.5293,-6.6253,-6.7209,-6.8083,-6.8083,-6.8083,-6.8083,-6.8083,-6.8083,-6.8083,-6.8083,-6.8083,-6.8083,-6.8083,-6.8083,-6.8083,-6.8083,-6.8978,-7.0264,-7.0632,-7.1721,-7.3,-7.3268,-7.3372,-7.3372,-7.3187,-7.2555,-7.1738,-7.092,-7.0103,-6.9323,-6.8691,-6.8506,-6.8506,-6.8506,-6.8506,-6.8506,-6.8506,-6.8506,-6.8613,-6.9041,-6.9388,-6.9814,-7.0238,-7.0622,-7.0898,-7.0898,-7.0898,-7.0898,-7.0898,-7.0898,-7.0898,-7.0898,-7.0898,-7.0898,-7.0898,-7.1514,-7.2206,-7.2899,-7.3129,-7.3251,-7.3341,-7.4422,-7.516,-7.5509,-7.6349,-7.6906,-7.7101,-7.7101,-7.7101,-7.7101,-7.7101,-7.7101,-7.7101,-7.7142,-7.7187,-7.7186,-7.7187,-7.7187,-7.7187,-7.7187,-7.7187,-7.7187,-7.7187,-7.7187,-7.7187,-7.7187,-7.7187,-7.7187,-5.3592,-5.3592,-5.3592,-5.3592,-5.3592,-5.3592,-5.3592,-5.4047,-5.5178,-5.7187,-5.7856,-5.9165,-6.1582,-6.1815,-6.2016,-6.2315,-6.2446,-6.2446,-6.2446,-6.2446,-6.2446,-6.2446,-6.2446,-6.2446,-6.2446,-6.3768,-6.4786,-6.5293,-6.6711,-6.765,-6.8083,-6.8083,-6.8083,-6.8083,-6.8083,-6.8083,-6.8083,-6.8083,-6.8083,-6.8083,-6.8083,-6.8083,-6.8083,-6.8162,-6.9165,-7.0535,-7.0865,-7.1961,-7.3305,-7.3372,-7.3372,-7.3372,-7.3372,-7.2852,-7.2109,-7.1663,-7.0958,-7.0103,-6.9286,-6.91,-6.8989,-6.8617,-6.8506,-6.8506,-6.8506,-6.8506,-6.866,-6.9261,-6.9548,-6.9887,-7.0501,-7.0748,-7.0898,-7.0898,-7.0898,-7.0898,-7.0898,-7.0898,-7.1052,-7.1475,-7.1514,-7.1668,-7.2091,-7.2552,-7.3014,-7.3476,-7.386,-7.4109,-7.4192,-7.5294,-7.596,-7.6076,-7.673,-7.7101,-7.7101,-7.7101,-7.7101,-7.7101,-7.7101,-7.7101,-7.7101,-7.7139,-7.7187,-7.7187,-7.7187,-7.7187,-7.7187,-7.7187,-7.7187,-7.7187,-7.7187,-7.7187,-7.7187,-7.7187,-7.7187,-7.7187,-5.3592,-5.3592,-5.3592,-5.3592,-5.3592,-5.3592,-5.3592,-5.4497,-5.5616,-5.7075,-5.8107,-5.9516,-6.1481,-6.1683,-6.1916,-6.2315,-6.2446,-6.2446,-6.2446,-6.2446,-6.2446,-6.2446,-6.2446,-6.2446,-6.2446,-6.4328,-6.5293,-6.5293,-6.7209,-6.8083,-6.8083,-6.8083,-6.8083,-6.8083,-6.8083,-6.8083,-6.8083,-6.8083,-6.8083,-6.8083,-6.8083,-6.8162,-6.8362,-6.8517,-6.9529,-7.0865,-7.1123,-7.2175,-7.3372,-7.3372,-7.3372,-7.3372,-7.3372,-7.2927,-7.2369,-7.2221,-7.1701,-7.0958,-7.014,-6.9917,-6.9732,-6.8914,-6.8729,-6.8691,-6.8543,-6.8506,-6.8754,-6.9508,-6.9702,-6.9923,-7.0748,-7.0898,-7.0898,-7.0898,-7.1014,-7.1129,-7.1129,-7.1245,-7.1629,-7.2322,-7.2399,-7.2745,-7.363,-7.3707,-7.3783,-7.3937,-7.4553,-7.4938,-7.4938,-7.6006,-7.6609,-7.6609,-7.6936,-7.7101,-7.7101,-7.7101,-7.7101,-7.7101,-7.7101,-7.7101,-7.7101,-7.7126,-7.7142,-7.7187,-7.7187,-7.7187,-7.7187,-7.7187,-7.7187,-7.7187,-7.7187,-7.7187,-7.7187,-7.7187,-7.7187,-7.7187,-5.3592,-5.3592,-5.3592,-5.3592,-5.3592,-5.3592,-5.3592,-5.3713,-5.4706,-5.7187,-5.7745,-5.8841,-6.1683,-6.2116,-6.2315,-6.2414,-6.2446,-6.2446,-6.2446,-6.2446,-6.2446,-6.2446,-6.2446,-6.2446,-6.2446,-6.4328,-6.5293,-6.5293,-6.7209,-6.8083,-6.8083,-6.8083,-6.8083,-6.8083,-6.8083,-6.8083,-6.8083,-6.8083,-6.8083,-6.8083,-6.8083,-6.8559,-6.9203,-6.9276,-7.0329,-7.1902,-7.1961,-7.2613,-7.3372,-7.3372,-7.3372,-7.3372,-7.3372,-7.3298,-7.3075,-7.2369,-7.2109,-7.1812,-7.0995,-7.0772,-7.0549,-6.9769,-6.9546,-6.936,-6.8654,-6.8506,-6.8754,-6.9508,-6.9702,-6.9923,-7.0748,-7.0898,-7.0898,-7.0898,-7.1514,-7.2014,-7.2014,-7.2668,-7.3206,-7.3322,-7.3322,-7.363,-7.4476,-7.4553,-7.4861,-7.563,-7.5745,-7.5822,-7.5822,-7.6316,-7.6609,-7.6609,-7.6936,-7.7101,-7.7101,-7.7101,-7.7101,-7.7101,-7.7101,-7.714,-7.7179,-7.7185,-7.7172,-7.7187,-7.7187,-7.7187,-7.7187,-7.7187,-7.7187,-7.7187,-7.7187,-7.7187,-7.7187,-7.7187,-7.7187,-7.7187,-5.3592,-5.3592,-5.3592,-5.3592,-5.3592,-5.3592,-5.3592,-5.3954,-5.4942,-5.7299,-5.7827,-5.9057,-6.1683,-6.2216,-6.2446,-6.2446,-6.2446,-6.2446,-6.2446,-6.2446,-6.2446,-6.2446,-6.2446,-6.2446,-6.2446,-6.4328,-6.5293,-6.5293,-6.7209,-6.8083,-6.8083,-6.8083,-6.8083,-6.8083,-6.8083,-6.8083,-6.8083,-6.8083,-6.8083,-6.8083,-6.8083,-6.86,-6.9421,-6.96,-7.0632,-7.2138,-7.2669,-7.3071,-7.3372,-7.3372,-7.3372,-7.3372,-7.3372,-7.3372,-7.3298,-7.2964,-7.2852,-7.2666,-7.1849,-7.1626,-7.1403,-7.0586,-7.04,-7.0289,-6.9917,-6.9843,-6.9948,-7.038,-7.0422,-7.0834,-7.2092,-7.2388,-7.2415,-7.2415,-7.2777,-7.3035,-7.3035,-7.3381,-7.374,-7.4186,-7.462,-7.5053,-7.5399,-7.5438,-7.5592,-7.5976,-7.6015,-7.6015,-7.6015,-7.632,-7.6517,-7.6609,-7.6855,-7.7028,-7.7101,-7.7101,-7.7101,-7.7101,-7.7117,-7.7126,-7.7165,-7.7185,-7.7195,-7.7211,-7.7186,-7.7187,-7.7187,-7.7187,-7.7187,-7.7187,-7.7187,-7.7187,-7.7187,-7.7187,-7.7187,-7.7187]}]]